[[{"header":{"parameterUnit":"m.s-1","parameterCategory":1,"la1":30.6,"la2":29.2853,"lo1":-89.7004,"lo2":-87.6739,"dy":0.0162,"dx":0.0183,"nx":112,"ny":82,"refTime":"2026-03-25T00:00:00:Z","depth":0,"parameterNumber":2,"parameterNumberName":"U-component_of_WINDS"},"data":[0.0,0.0,0.0,0.0,0.0,0.0,0.0,0.0,0.0,0.0,0.0,0.0,0.0,0.0,0.0,0.0,0.0,0.0,0.0,0.0,0.0,0.0,0.0,0.0,0.0,0.0,0.0,0.0,0.0,0.0,0.0,0.0,0.0,0.0,0.0,0.0,0.0,0.0,0.0,0.0,0.0,0.0,0.0,0.0,0.0,0.0,0.0,0.0,0.0,0.0,0.0,0.0,0.0,0.0,0.0,0.0,0.0,0.0,0.0,0.0,0.0,0.0,0.0,0.0,0.0,0.0,0.0,0.0,0.0,0.0,0.0,0.0,0.0,0.0,0.0,0.0,0.0,0.0,0.0,0.0,0.0,0.0,0.0,0.0,0.0,0.0,0.0,0.0,0.0,0.0,-3.2326,-3.5793,-3.979,-4.1647,-4.0159,-3.7993,-3.5729,-3.3428,0.0,0.0,0.0,0.0,0.0,0.0,0.0,0.0,0.0,0.0,0.0,0.0,0.0,0.0,0.0,0.0,0.0,0.0,0.0,0.0,0.0,0.0,0.0,0.0,0.0,0.0,0.0,0.0,0.0,0.0,0.0,0.0,0.0,0.0,0.0,0.0,0.0,0.0,0.0,0.0,0.0,0.0,0.0,0.0,0.0,0.0,0.0,0.0,0.0,0.0,0.0,0.0,0.0,0.0,0.0,0.0,0.0,0.0,0.0,0.0,0.0,0.0,0.0,0.0,0.0,0.0,0.0,0.0,0.0,0.0,0.0,0.0,0.0,0.0,0.0,0.0,0.0,0.0,0.0,0.0,0.0,0.0,0.0,0.0,0.0,0.0,0.0,0.0,0.0,0.0,0.0,0.0,0.0,0.0,0.0,0.0,0.0,0.0,0.0,0.0,0.0,0.0,0.0,0.0,-3.422,-3.795,-3.9624,-3.9854,-3.8201,-3.6121,-3.3888,-3.1539,0.0,0.0,0.0,0.0,0.0,0.0,0.0,0.0,0.0,0.0,0.0,0.0,0.0,0.0,0.0,0.0,0.0,0.0,0.0,0.0,0.0,0.0,0.0,0.0,0.0,0.0,0.0,0.0,0.0,0.0,0.0,0.0,0.0,0.0,0.0,0.0,0.0,0.0,0.0,0.0,0.0,0.0,0.0,0.0,0.0,0.0,0.0,0.0,0.0,0.0,0.0,0.0,0.0,0.0,0.0,0.0,0.0,0.0,0.0,0.0,0.0,0.0,0.0,0.0,0.0,0.0,0.0,0.0,0.0,0.0,0.0,0.0,0.0,0.0,0.0,0.0,0.0,0.0,0.0,0.0,0.0,0.0,0.0,0.0,0.0,0.0,0.0,0.0,0.0,0.0,0.0,0.0,0.0,0.0,0.0,0.0,0.0,0.0,0.0,0.0,0.0,0.0,0.0,-3.2946,-3.5654,-3.7715,-3.9397,-3.9572,-3.7666,-3.5746,-3.347,-3.081,-2.9138,0.0,0.0,0.0,0.0,0.0,0.0,0.0,0.0,0.0,0.0,0.0,0.0,0.0,0.0,0.0,0.0,0.0,0.0,0.0,0.0,0.0,0.0,0.0,0.0,0.0,0.0,0.0,0.0,0.0,0.0,0.0,0.0,0.0,0.0,0.0,0.0,0.0,0.0,0.0,0.0,0.0,0.0,0.0,0.0,0.0,0.0,0.0,0.0,0.0,0.0,0.0,0.0,0.0,0.0,0.0,0.0,0.0,0.0,0.0,0.0,0.0,0.0,0.0,0.0,0.0,0.0,0.0,0.0,0.0,0.0,0.0,0.0,0.0,0.0,0.0,0.0,0.0,0.0,0.0,0.0,0.0,0.0,0.0,0.0,0.0,0.0,0.0,0.0,0.0,0.0,0.0,0.0,0.0,0.0,0.0,0.0,0.0,0.0,0.0,0.0,0.0,0.0,-3.4209,-3.6305,-3.7192,-3.8832,-3.8976,-3.685,-3.4742,-3.2371,-2.9732,-2.8058,0.0,0.0,0.0,0.0,0.0,0.0,0.0,0.0,0.0,0.0,0.0,0.0,0.0,0.0,0.0,0.0,0.0,0.0,0.0,0.0,0.0,0.0,0.0,0.0,0.0,0.0,0.0,0.0,0.0,0.0,0.0,0.0,0.0,0.0,0.0,0.0,0.0,0.0,0.0,0.0,0.0,0.0,0.0,0.0,0.0,0.0,0.0,0.0,0.0,0.0,0.0,0.0,0.0,0.0,0.0,0.0,0.0,0.0,0.0,0.0,0.0,0.0,0.0,0.0,0.0,0.0,0.0,0.0,0.0,0.0,0.0,0.0,0.0,0.0,0.0,0.0,0.0,0.0,0.0,0.0,0.0,0.0,0.0,0.0,0.0,0.0,0.0,0.0,0.0,0.0,0.0,0.0,0.0,0.0,0.0,0.0,0.0,0.0,0.0,0.0,0.0,0.0,-3.4163,-3.5696,-3.7475,-3.7615,-3.6702,-3.4695,-3.1769,-2.9277,-2.7428,-2.558,0.0,0.0,0.0,0.0,0.0,0.0,0.0,0.0,0.0,0.0,0.0,0.0,0.0,0.0,0.0,0.0,0.0,0.0,0.0,0.0,0.0,0.0,0.0,0.0,0.0,0.0,0.0,0.0,0.0,0.0,0.0,0.0,0.0,0.0,0.0,0.0,0.0,0.0,0.0,0.0,0.0,0.0,0.0,0.0,0.0,0.0,0.0,0.0,0.0,0.0,0.0,0.0,0.0,0.0,0.0,0.0,0.0,0.0,0.0,0.0,0.0,0.0,0.0,0.0,0.0,0.0,0.0,0.0,0.0,0.0,0.0,0.0,0.0,0.0,0.0,0.0,0.0,0.0,0.0,0.0,0.0,0.0,0.0,0.0,0.0,0.0,0.0,0.0,0.0,0.0,0.0,0.0,0.0,0.0,0.0,0.0,0.0,0.0,0.0,0.0,0.0,0.0,-3.3648,-3.5209,0.0,-3.627,-3.5333,-3.3092,-3.0208,-2.7782,-2.6043,0.0,0.0,0.0,0.0,0.0,0.0,0.0,0.0,0.0,0.0,0.0,0.0,0.0,0.0,0.0,0.0,0.0,0.0,0.0,0.0,0.0,0.0,0.0,0.0,0.0,0.0,0.0,0.0,0.0,0.0,0.0,0.0,0.0,0.0,0.0,0.0,0.0,0.0,0.0,0.0,0.0,0.0,0.0,0.0,0.0,0.0,0.0,0.0,0.0,0.0,0.0,0.0,0.0,0.0,0.0,0.0,0.0,0.0,0.0,0.0,0.0,0.0,0.0,0.0,0.0,0.0,0.0,0.0,0.0,0.0,0.0,0.0,0.0,0.0,0.0,0.0,0.0,0.0,0.0,0.0,0.0,0.0,0.0,0.0,0.0,0.0,0.0,0.0,0.0,0.0,0.0,0.0,0.0,0.0,0.0,0.0,0.0,0.0,0.0,0.0,0.0,0.0,-3.0582,-3.2718,-3.4297,0.0,-3.4909,-3.3925,-3.1832,-2.9029,-2.6681,-2.4914,0.0,0.0,0.0,0.0,0.0,0.0,0.0,0.0,0.0,0.0,0.0,0.0,0.0,0.0,0.0,0.0,0.0,0.0,0.0,0.0,0.0,0.0,0.0,0.0,0.0,0.0,0.0,0.0,0.0,0.0,0.0,0.0,0.0,0.0,0.0,0.0,0.0,0.0,0.0,0.0,0.0,0.0,0.0,0.0,0.0,0.0,0.0,0.0,0.0,0.0,0.0,0.0,0.0,0.0,0.0,0.0,0.0,0.0,0.0,0.0,0.0,0.0,0.0,0.0,0.0,0.0,0.0,0.0,0.0,0.0,0.0,0.0,0.0,0.0,0.0,0.0,0.0,0.0,0.0,0.0,0.0,0.0,0.0,0.0,0.0,0.0,0.0,0.0,0.0,0.0,0.0,0.0,0.0,0.0,0.0,0.0,0.0,0.0,0.0,0.0,0.0,0.0,-2.9532,-3.1328,-3.2836,-3.4063,-3.3548,-3.2437,-3.0738,-2.8142,-2.5858,0.0,0.0,0.0,0.0,0.0,0.0,0.0,0.0,0.0,0.0,0.0,0.0,0.0,0.0,0.0,0.0,0.0,0.0,0.0,0.0,0.0,0.0,0.0,0.0,0.0,0.0,0.0,0.0,0.0,0.0,0.0,0.0,0.0,0.0,0.0,0.0,0.0,0.0,0.0,0.0,0.0,0.0,0.0,0.0,0.0,0.0,0.0,0.0,0.0,0.0,0.0,0.0,0.0,0.0,0.0,0.0,0.0,0.0,0.0,0.0,0.0,0.0,0.0,0.0,0.0,0.0,0.0,0.0,0.0,0.0,0.0,0.0,0.0,0.0,0.0,0.0,0.0,0.0,0.0,0.0,0.0,0.0,0.0,0.0,0.0,0.0,0.0,0.0,0.0,0.0,0.0,0.0,0.0,0.0,0.0,0.0,0.0,0.0,0.0,0.0,0.0,0.0,0.0,-2.9203,-3.1343,-3.2933,-3.3707,-3.3204,-3.2297,-3.1042,-2.8593,-2.6413,-2.4923,0.0,0.0,0.0,0.0,0.0,0.0,0.0,0.0,0.0,0.0,0.0,0.0,0.0,0.0,0.0,0.0,0.0,0.0,0.0,0.0,0.0,0.0,0.0,0.0,0.0,0.0,0.0,0.0,0.0,0.0,0.0,0.0,0.0,0.0,0.0,0.0,0.0,0.0,0.0,0.0,0.0,0.0,0.0,0.0,0.0,0.0,0.0,0.0,0.0,0.0,0.0,0.0,0.0,0.0,0.0,0.0,0.0,0.0,0.0,0.0,0.0,0.0,0.0,0.0,0.0,0.0,0.0,0.0,0.0,0.0,0.0,0.0,0.0,0.0,0.0,0.0,0.0,0.0,0.0,0.0,0.0,0.0,0.0,0.0,0.0,0.0,0.0,0.0,0.0,0.0,0.0,0.0,0.0,0.0,0.0,0.0,0.0,0.0,0.0,0.0,0.0,0.0,-2.8613,-3.0622,-3.2112,-3.283,-3.2378,-3.1667,-3.0665,-2.8695,-2.6853,-2.5427,0.0,0.0,0.0,0.0,0.0,0.0,0.0,0.0,0.0,0.0,0.0,0.0,0.0,0.0,0.0,0.0,0.0,0.0,0.0,0.0,0.0,0.0,0.0,0.0,0.0,0.0,0.0,0.0,0.0,0.0,0.0,0.0,0.0,0.0,0.0,0.0,0.0,0.0,0.0,0.0,0.0,0.0,0.0,0.0,0.0,0.0,0.0,0.0,0.0,0.0,0.0,0.0,0.0,0.0,0.0,0.0,0.0,0.0,0.0,0.0,0.0,0.0,0.0,0.0,0.0,0.0,0.0,0.0,0.0,0.0,0.0,0.0,0.0,0.0,0.0,0.0,0.0,0.0,0.0,0.0,0.0,0.0,0.0,0.0,0.0,0.0,0.0,0.0,0.0,0.0,0.0,0.0,0.0,0.0,0.0,0.0,0.0,0.0,0.0,0.0,0.0,0.0,-2.7781,-2.946,-3.0746,-3.1569,-3.1251,-3.067,-2.9888,-2.8605,-2.72,-2.5655,0.0,0.0,0.0,0.0,0.0,0.0,0.0,0.0,0.0,0.0,0.0,0.0,0.0,0.0,0.0,0.0,0.0,0.0,0.0,0.0,0.0,0.0,0.0,0.0,0.0,0.0,0.0,0.0,0.0,0.0,0.0,0.0,0.0,0.0,0.0,0.0,0.0,0.0,0.0,0.0,0.0,0.0,0.0,0.0,0.0,0.0,0.0,0.0,0.0,0.0,0.0,0.0,0.0,0.0,0.0,0.0,0.0,0.0,0.0,0.0,-2.2105,-2.1392,0.0,0.0,0.0,0.0,0.0,0.0,0.0,0.0,0.0,0.0,0.0,0.0,0.0,0.0,0.0,0.0,0.0,0.0,0.0,0.0,0.0,0.0,0.0,0.0,0.0,0.0,0.0,0.0,0.0,0.0,0.0,0.0,0.0,0.0,0.0,0.0,0.0,0.0,0.0,0.0,-2.6754,-2.8654,-2.999,-3.0502,-3.0425,-3.0307,-3.0111,-2.8913,-2.7506,-2.6114,-2.414,0.0,0.0,0.0,0.0,0.0,0.0,0.0,0.0,0.0,0.0,0.0,0.0,0.0,0.0,0.0,0.0,0.0,0.0,0.0,0.0,0.0,0.0,0.0,0.0,0.0,0.0,0.0,0.0,0.0,0.0,0.0,0.0,0.0,0.0,0.0,0.0,0.0,0.0,0.0,0.0,0.0,0.0,0.0,0.0,0.0,0.0,0.0,0.0,0.0,0.0,0.0,0.0,0.0,0.0,0.0,0.0,0.0,0.0,0.0,-2.2076,-2.15,0.0,0.0,0.0,0.0,0.0,0.0,0.0,0.0,0.0,0.0,0.0,0.0,0.0,0.0,0.0,0.0,0.0,0.0,0.0,0.0,0.0,0.0,0.0,0.0,0.0,0.0,0.0,0.0,0.0,0.0,0.0,0.0,0.0,0.0,0.0,0.0,0.0,0.0,0.0,0.0,-2.5481,-2.695,-2.7989,-2.8394,-2.8557,-2.8594,-2.8391,-2.7545,-2.65,-2.5344,-2.3382,0.0,0.0,0.0,0.0,0.0,0.0,0.0,0.0,0.0,0.0,0.0,0.0,0.0,0.0,0.0,0.0,0.0,0.0,0.0,0.0,0.0,0.0,0.0,0.0,0.0,0.0,0.0,0.0,0.0,0.0,0.0,0.0,0.0,0.0,0.0,0.0,0.0,0.0,0.0,0.0,0.0,0.0,0.0,0.0,0.0,0.0,0.0,0.0,0.0,0.0,0.0,0.0,0.0,-2.5874,-2.5869,-2.5604,-2.5464,-2.4847,-2.3831,-2.276,-2.2289,-2.2246,-2.21,0.0,0.0,0.0,0.0,0.0,0.0,0.0,0.0,0.0,0.0,0.0,0.0,0.0,0.0,0.0,0.0,0.0,0.0,0.0,0.0,0.0,0.0,-2.2418,-2.2427,-2.2752,-2.2704,-2.1547,0.0,0.0,0.0,0.0,0.0,0.0,0.0,0.0,0.0,0.0,0.0,-2.4188,-2.5186,-2.5895,-2.6287,-2.6619,-2.6704,-2.6381,-2.5948,-2.5286,-2.4381,-2.2503,-2.0897,0.0,0.0,0.0,0.0,0.0,0.0,0.0,0.0,0.0,0.0,0.0,0.0,0.0,0.0,0.0,0.0,0.0,0.0,0.0,0.0,0.0,0.0,0.0,0.0,0.0,0.0,0.0,0.0,0.0,0.0,0.0,0.0,-2.2638,-2.2421,0.0,0.0,0.0,0.0,0.0,0.0,0.0,0.0,0.0,0.0,0.0,0.0,0.0,-2.4575,-2.5422,-2.5787,-2.6081,-2.6445,-2.7056,-2.7138,-2.6883,-2.6552,-2.6301,-2.6047,-2.5106,0.0,-2.2024,-2.2005,0.0,0.0,0.0,0.0,0.0,0.0,0.0,0.0,0.0,0.0,0.0,0.0,0.0,0.0,0.0,0.0,0.0,0.0,0.0,0.0,0.0,0.0,-2.189,-2.2407,-2.285,-2.3014,-2.2822,-2.2829,-2.2778,-2.2638,-2.2606,0.0,0.0,0.0,0.0,0.0,0.0,0.0,-2.3375,-2.4468,-2.5269,-2.5592,-2.5957,-2.6172,-2.6122,-2.5774,-2.521,-2.4447,-2.2864,-2.1438,-2.0229,-1.8281,0.0,0.0,0.0,0.0,0.0,0.0,0.0,0.0,0.0,0.0,0.0,0.0,0.0,0.0,0.0,0.0,0.0,0.0,0.0,0.0,0.0,0.0,0.0,0.0,0.0,0.0,0.0,0.0,0.0,-2.1554,-2.2286,-2.2222,-2.2258,-2.2117,0.0,0.0,0.0,0.0,0.0,0.0,0.0,0.0,0.0,-2.3763,-2.4786,-2.5561,-2.6054,-2.6702,-2.7171,-2.7475,-2.793,-2.8152,-2.8153,-2.7894,-2.773,-2.7661,-2.6894,-2.5956,-2.4884,-2.369,-2.2818,-2.2043,0.0,0.0,0.0,0.0,-2.1115,-2.131,-2.1602,-2.1519,-2.1185,-2.068,0.0,0.0,0.0,0.0,0.0,0.0,0.0,-2.0316,-2.1219,-2.188,-2.2524,-2.2948,-2.3454,-2.386,-2.3674,-2.3747,-2.3669,0.0,-2.2452,-2.211,-2.1374,0.0,0.0,0.0,0.0,-2.1343,-2.2393,-2.3163,-2.3714,-2.3868,-2.4193,-2.4409,-2.4409,-2.427,-2.39,-2.3407,-2.2425,-2.1392,-2.031,-1.8939,-1.7774,0.0,0.0,0.0,0.0,0.0,0.0,0.0,0.0,0.0,0.0,0.0,0.0,0.0,0.0,0.0,0.0,0.0,0.0,0.0,0.0,0.0,0.0,0.0,0.0,0.0,0.0,0.0,0.0,-2.1343,-2.2124,-2.2057,-2.2256,-2.2177,0.0,0.0,0.0,0.0,0.0,0.0,-2.2411,-2.3201,-2.3938,-2.4582,-2.5594,-2.6254,-2.6543,-2.7188,-2.7733,-2.8036,-2.834,-2.8504,-2.8701,-2.857,-2.8551,-2.8459,-2.801,-2.7561,-2.7089,-2.5429,-2.4273,-2.3378,-2.283,-2.2525,-2.2442,-2.2442,-2.2635,-2.2951,-2.3254,-2.3158,-2.2841,-2.2456,-2.1603,-2.0681,-2.0496,0.0,0.0,0.0,0.0,-2.1591,-2.2193,-2.2673,-2.3156,-2.3527,-2.4036,-2.4408,-2.4235,-2.4405,-2.4211,0.0,-2.2536,-2.2104,-2.139,0.0,0.0,0.0,0.0,-2.1031,-2.179,-2.229,-2.2652,-2.274,-2.2959,-2.3106,-2.3106,-2.3106,-2.2974,-2.2637,-2.2125,-2.1423,-2.0475,-1.9623,-1.8701,-1.7721,0.0,0.0,0.0,0.0,0.0,0.0,0.0,0.0,0.0,0.0,0.0,0.0,0.0,0.0,0.0,0.0,0.0,0.0,0.0,0.0,0.0,0.0,0.0,0.0,0.0,0.0,0.0,0.0,0.0,-2.2128,-2.2885,0.0,0.0,0.0,0.0,-2.1602,-2.2363,-2.3072,-2.3618,-2.4188,-2.4873,-2.5697,-2.6109,-2.6554,-2.7028,-2.7078,-2.7317,-2.761,-2.7877,-2.8029,-2.8042,-2.8296,-2.8258,-2.8017,-2.7991,-2.7508,-2.6825,-2.6439,-2.5745,-2.4965,-2.4361,-2.3946,-2.3705,-2.3705,-2.3892,-2.4187,-2.4409,-2.4315,-2.4053,-2.3407,-2.2231,-2.1052,-2.108,-2.1019,0.0,0.0,-2.2084,-2.2492,-2.3106,-2.3226,-2.348,-2.4129,-2.4282,-2.4424,-2.4665,-2.4582,-2.4263,0.0,-2.3354,-2.3045,-2.234,0.0,-2.1267,-2.129,-2.123,-2.1399,-2.2032,-2.2393,-2.274,-2.3047,-2.3106,-2.3106,-2.3106,-2.3106,-2.2974,-2.2637,-2.233,-2.1862,-2.1189,-2.046,-1.9711,-1.873,-1.775,0.0,0.0,0.0,0.0,0.0,0.0,0.0,0.0,0.0,0.0,0.0,0.0,0.0,0.0,0.0,0.0,0.0,0.0,0.0,0.0,0.0,0.0,0.0,0.0,0.0,0.0,0.0,0.0,-2.3414,-2.3766,0.0,-2.386,-2.3187,-2.2712,-2.2603,-2.2395,-2.2459,-2.2977,-2.3546,-2.4088,-2.4676,-2.5026,-2.5332,-2.5514,-2.5514,-2.5559,-2.565,-2.5662,-2.5708,-2.5776,-2.5788,-2.5799,-2.5764,-2.5525,-2.5228,-2.492,-2.4332,-2.4501,-2.5024,-2.4649,-2.4326,-2.4093,-2.4274,-2.4287,-2.4248,-2.4546,-2.4326,-2.3848,-2.328,-2.2679,-2.2203,-2.2056,-2.217,-2.2372,-2.2523,-2.2828,-2.3064,-2.3327,-2.3352,-2.3383,-2.3632,-2.3951,-2.4063,-2.3821,-2.3936,-2.3859,-2.3248,-2.3292,-2.3322,-2.2871,-2.2145,-2.1658,-2.1835,-2.169,-2.1726,-2.2363,-2.2728,-2.2974,-2.3091,-2.3106,-2.3106,-2.3106,-2.3106,-2.3062,-2.2945,-2.2842,-2.2579,-2.214,-2.1511,-2.072,-1.974,-1.8555,-1.7472,0.0,0.0,0.0,0.0,0.0,0.0,0.0,0.0,0.0,0.0,0.0,0.0,0.0,0.0,0.0,0.0,0.0,0.0,0.0,0.0,0.0,0.0,0.0,0.0,0.0,-2.1867,-2.2595,-2.3375,-2.3892,-2.409,-2.4092,-2.3517,-2.2947,-2.2631,-2.2076,-2.1905,-2.2304,-2.2851,-2.3237,-2.355,-2.3874,-2.3989,-2.3989,-2.4073,-2.4104,-2.4104,-2.3947,-2.3957,-2.4104,-2.402,-2.4031,-2.4094,-2.3863,-2.3632,-2.3381,-2.292,-2.3194,-2.3798,-2.377,-2.3644,-2.3428,-2.3608,-2.3548,-2.3404,-2.35,-2.3188,-2.2762,-2.2325,-2.2082,-2.1975,-2.1796,-2.1895,-2.2079,-2.2037,-2.2148,-2.2346,-2.2377,-2.2349,-2.2349,-2.2349,-2.2576,-2.2718,-2.247,-2.2716,-2.2964,-2.2995,-2.3398,-2.3573,-2.3194,-2.278,-2.2506,-2.2491,-2.2403,-2.2491,-2.2901,-2.3237,-2.3442,-2.3442,-2.3442,-2.3398,-2.3281,-2.3267,-2.3179,-2.2959,-2.2945,-2.2754,-2.233,-2.192,-2.1233,-2.0197,-1.8847,-1.7721,-1.6903,0.0,0.0,0.0,0.0,0.0,0.0,0.0,0.0,0.0,0.0,0.0,0.0,0.0,0.0,0.0,0.0,0.0,0.0,0.0,0.0,0.0,0.0,0.0,-2.0226,-2.1108,-2.1695,-2.1776,-2.2961,-2.3331,-2.2246,-2.2895,-2.281,-2.1457,-2.1527,-2.1621,-2.1711,-2.21,-2.2432,-2.2452,-2.2643,-2.2753,-2.2763,-2.2899,-2.3009,-2.3009,-2.2999,-2.2999,-2.3019,-2.3219,-2.3199,-2.3019,-2.3219,-2.2949,-2.236,-2.234,-2.196,-2.1419,-2.1979,-2.199,-2.1776,-2.1776,-2.1776,-2.1734,-2.1509,-2.1135,-2.0819,-2.0819,-2.059,-2.0309,-2.0309,-2.0298,-2.0288,-2.0277,-2.0277,-2.0277,-2.0277,-2.0277,-2.0277,-2.0277,-2.0277,-2.0382,-2.0751,-2.0994,-2.157,-2.2872,-2.3653,-2.388,-2.3264,-2.3666,-2.391,-2.3281,-2.3442,0.0,-2.3632,-2.391,-2.4101,-2.4115,-2.4115,-2.3984,-2.3647,-2.3618,-2.3325,-2.2681,-2.2608,-2.233,-2.1715,-2.1672,-2.1189,-2.0168,-1.8657,-1.753,-1.6917,0.0,0.0,0.0,0.0,0.0,0.0,0.0,0.0,0.0,0.0,0.0,0.0,0.0,0.0,0.0,0.0,0.0,0.0,0.0,0.0,0.0,-1.8011,-1.8479,-1.959,-1.9926,-2.0382,-2.1304,-2.1888,-2.2225,-2.2278,-2.2304,-2.1962,-2.1085,-2.0238,-1.969,-1.9561,-1.9473,-1.9508,-1.9794,-1.9716,-1.9803,-2.0071,-2.027,-2.0374,-2.0374,-2.0227,-2.0236,-2.0366,-2.0279,-2.0288,-2.0366,-2.027,-2.014,-1.9967,-1.9551,-1.9283,-1.9275,-2.1038,-2.1628,-2.1433,-2.1433,-2.133,-2.1071,-2.0856,-2.0692,-2.059,-2.059,-2.0436,-2.0211,-2.0037,-1.9964,-1.9799,-1.9713,-1.9662,-1.9662,-1.9662,-1.9594,-1.9594,-1.9594,-1.9515,-1.9548,-1.955,-1.9974,-2.0561,-2.1294,-2.2384,-2.3418,-2.4232,-2.4339,-2.4334,-2.4405,-2.4142,0.0,-2.4627,-2.4591,-2.4591,-2.4826,-2.4855,-2.4723,-2.4335,-2.4086,-2.3676,-2.3018,-2.233,-2.1876,-2.1701,-2.1013,-2.0296,-1.955,-1.8862,-1.8086,0.0,0.0,0.0,0.0,0.0,0.0,0.0,0.0,0.0,0.0,0.0,0.0,0.0,0.0,0.0,0.0,0.0,0.0,0.0,0.0,0.0,0.0,-1.7433,-1.7725,-1.8542,-1.9167,-1.9759,-2.0649,-2.1104,-2.1364,-2.1478,-2.1485,-2.1119,-2.035,-1.9455,-1.8874,-1.8623,-1.8476,-1.8468,-1.8606,-1.8582,-1.8696,-1.898,-1.9167,-1.9256,-1.9256,-1.9151,-1.9159,-1.9256,-1.9151,-1.9159,-1.9256,-1.9142,-1.9053,-1.8956,-1.8566,-1.8314,-1.8305,0.0,0.0,0.0,0.0,-1.9414,-1.9143,-1.9022,-1.893,-1.8856,-1.8856,-1.8708,-1.8505,-1.8292,-1.8114,-1.7925,-1.7719,-1.7589,-1.7542,-1.7635,-1.7715,-1.7845,-1.7845,-1.7895,-1.8036,-1.8009,-1.8391,-1.8885,-1.9624,-2.052,0.0,-2.2503,-2.3562,-2.427,-2.4344,-2.3983,-2.3926,-2.4454,-2.4283,-2.4144,-2.4454,-2.4496,-2.4382,-2.4065,-2.3804,0.0,0.0,0.0,-2.1171,-2.0914,-2.0358,0.0,0.0,0.0,0.0,0.0,0.0,0.0,0.0,-1.5819,-1.5676,0.0,0.0,0.0,0.0,0.0,0.0,0.0,0.0,0.0,0.0,0.0,0.0,0.0,0.0,0.0,0.0,-1.6523,-1.6738,-1.764,-1.8698,-1.9555,-1.981,-2.0437,-2.0561,-2.0185,-2.0588,-2.0491,-1.9615,-1.928,-1.8915,-1.8566,-1.8639,0.0,0.0,0.0,-1.8785,-1.898,-1.9167,-1.9256,-1.9256,-1.9256,-1.9256,-1.9256,-1.9256,-1.9256,-1.9256,-1.9256,-1.9167,-1.8996,-1.8801,-1.8493,-1.8095,-1.7607,-1.7421,-1.7396,-1.7234,-1.7063,-1.6917,-1.6917,0.0,0.0,-1.6641,-1.6519,-1.6324,-1.6137,-1.5829,-1.5504,-1.5293,-1.5106,-1.5009,-1.5187,-1.5504,-1.5772,-1.5772,-1.6048,-1.6328,-1.6524,-1.6745,-1.7234,-1.8064,-1.8652,-1.9084,-1.9424,-2.1819,-2.3575,-2.3386,-2.3085,-2.2994,-2.3379,-2.3143,-2.3077,-2.3379,0.0,0.0,-2.3102,-2.2862,-2.2443,-2.1869,-2.091,-2.0112,-1.9438,-1.9451,-1.9328,-1.9004,-1.8782,-1.8523,-1.8224,-1.741,-1.7247,-1.7721,-1.6253,-1.5807,0.0,0.0,0.0,0.0,0.0,0.0,0.0,0.0,0.0,0.0,0.0,0.0,0.0,0.0,0.0,-1.6794,-1.7049,-1.7494,-1.8387,-1.8953,-1.9369,-1.9388,-1.9784,-1.9983,-1.9882,-2.0124,-2.0149,-1.979,-1.9714,-1.9475,-1.9118,-1.872,-1.8558,-1.8671,-1.8566,-1.8663,-1.898,-1.9167,-1.9256,-1.9256,-1.9256,0.0,-1.9256,-1.9256,-1.9256,-1.9256,-1.9256,-1.924,-1.9183,-1.8858,-1.8428,-1.794,-1.7689,-1.7591,-1.7591,-1.7551,-1.7429,-1.7283,-1.7283,-1.7161,-1.7006,-1.7006,-1.6893,-1.669,-1.6357,-1.6008,0.0,-1.5333,-1.5106,-1.5009,-1.5187,-1.5504,-1.5772,-1.5772,-1.6048,-1.6361,-1.6453,-1.6819,-1.7271,-1.7898,-1.8435,-1.8912,-1.9019,-2.0048,-2.0913,-2.1038,-2.0773,-2.0777,-2.1402,-2.1202,-2.1143,-2.1476,-2.1511,-2.1541,-2.1522,-2.1532,-2.1184,-2.0441,-1.9145,-1.7984,-1.7033,-1.7407,-1.7493,-1.7204,-1.7603,-1.7664,-1.7329,-1.745,-1.7479,-1.7304,-1.6551,-1.6551,0.0,0.0,0.0,0.0,0.0,0.0,0.0,0.0,0.0,0.0,0.0,-1.6362,-1.6277,0.0,-1.6884,-1.7107,-1.755,-1.803,-1.8753,-1.9313,-1.9622,-1.9532,-1.9678,-1.9792,-1.9792,-1.9873,-1.9849,-1.9662,-1.9654,-1.95,-1.9142,-1.8866,-1.8761,-1.885,-1.8769,-1.885,-1.9118,-1.9216,-1.9256,-1.9256,-1.9256,-1.9256,-1.9256,-1.9256,-1.9256,-1.9256,-1.9159,-1.9118,-1.9094,-1.8736,-1.8371,-1.8038,-1.794,-1.7802,-1.764,-1.764,-1.7534,-1.7388,-1.7388,-1.7266,-1.7112,-1.7112,-1.6998,-1.6803,-1.6527,-1.6194,-1.5853,-1.5585,-1.5382,-1.5285,-1.5455,-1.5772,-1.604,-1.604,-1.6316,-1.6479,-1.6369,-1.654,-1.6764,-1.6912,-1.7217,-1.7358,-1.7329,-1.7696,-1.8339,-1.9346,-1.9223,-1.9234,-1.9693,-1.9521,-1.9468,-1.9768,-1.9801,-1.9928,-2.0206,-2.0313,-1.9889,-1.8789,-1.8304,-1.7548,-1.6384,-1.7063,-1.7143,-1.6578,-1.7318,-1.7444,-1.6887,-1.7145,-1.7207,-1.7204,-1.6591,-1.6558,0.0,0.0,0.0,0.0,0.0,0.0,0.0,-1.4432,-1.4684,-1.5009,-1.5585,-1.6081,-1.6227,-1.658,-1.7112,-1.7437,-1.7932,-1.8468,-1.9013,-1.9638,-1.9995,-1.9857,-1.9873,-1.9882,-1.9849,-1.9841,-1.9768,-1.9581,-1.9532,-1.9386,-1.9102,-1.9053,-1.9037,-1.9037,-1.9037,-1.911,-1.9256,-1.9256,-1.9256,-1.9256,-1.9256,-1.9256,-1.9256,-1.9256,-1.9256,-1.9248,-1.9061,-1.8948,-1.8858,-1.8574,-1.8347,-1.8176,-1.8176,-1.7997,-1.7746,-1.7746,-1.764,-1.7494,-1.7494,-1.7348,-1.7161,-1.7161,-1.7047,-1.6868,-1.669,-1.6405,-1.6113,-1.5926,-1.5756,-1.5658,-1.5829,-1.6113,-1.6357,-1.6357,-1.6609,-1.6755,-1.6381,-1.63,-1.6251,-1.6081,-1.5966,-1.5991,-1.5804,-1.5772,-1.633,-1.7769,-1.7834,-1.7786,-1.7961,-1.7805,-1.7737,-1.7902,-1.7922,-1.8168,-1.8782,-1.884,-1.8336,-1.7248,-1.7432,-1.7116,-1.6028,-1.6742,-1.6753,-1.5954,-1.6742,-1.6859,-1.6271,-1.6388,-1.6643,-1.6897,-1.6453,-1.6374,-1.521,-1.5424,-1.5561,-1.5503,-1.5648,-1.5788,0.0,-1.5821,-1.6121,-1.6332,-1.669,-1.6966,-1.699,-1.7299,-1.7616,-1.7827,-1.8314,-1.885,-1.9378,-1.9808,-2.006,-2.0036,-2.0166,-2.0198,-2.0052,-2.0036,-1.9955,-1.9776,-1.9605,-1.9492,-1.9451,-1.9313,-1.9224,-1.9224,-1.9224,-1.924,-1.9256,-1.9256,-1.9256,-1.9256,-1.9256,-1.9256,-1.9256,-1.9256,-1.9256,-1.9248,-1.9061,-1.8801,-1.8509,-1.8563,-1.8347,-1.8176,-1.8176,-1.8152,-1.8111,-1.8111,-1.8005,-1.7859,-1.7859,-1.764,-1.7356,-1.7356,-1.7234,-1.7047,-1.6877,-1.6682,-1.6479,-1.63,-1.6121,-1.6024,-1.6202,-1.6397,-1.6552,-1.6552,-1.6706,-1.6755,-1.6381,-1.63,-1.6251,-1.6081,-1.5966,-1.5991,-1.5804,-1.5772,-1.5779,-1.5806,-1.5827,-1.5827,-1.5843,-1.5685,-1.5568,-1.5593,-1.5593,-1.5964,-1.6896,-1.6762,-1.6355,-1.5949,-1.5569,-1.5039,-1.4397,-1.4634,-1.4643,-1.4379,-1.4634,-1.4733,-1.4656,-1.511,-1.5556,-1.586,-1.616,-1.6438,-1.4675,-1.4873,-1.5053,-1.5562,-1.5855,-1.611,-1.6482,-1.6768,-1.7119,-1.7679,-1.7752,-1.7795,-1.7978,-1.7888,-1.7914,-1.8277,-1.8456,-1.8781,-1.9613,-1.9679,-1.9831,-1.993,-1.9784,-1.9752,-1.989,-1.9906,-1.9873,-1.9792,-1.9719,-1.963,-1.9516,-1.9354,-1.9256,-1.9256,-1.9256,-1.9256,-1.9256,-1.9256,-1.9256,-1.9256,-1.9256,-1.9256,-1.9256,-1.9256,-1.9199,-1.9094,-1.9013,-1.8777,-1.8547,-1.8547,-1.8347,-1.8176,-1.8176,-1.8176,-1.8176,-1.8176,-1.8062,-1.7916,-1.7916,-1.7681,-1.7388,-1.7388,-1.7258,-1.7096,-1.7023,-1.695,-1.6877,-1.6795,-1.6722,-1.6682,-1.6755,-1.6828,-1.6885,-1.6885,-1.695,-1.6933,-1.6682,-1.6625,-1.6568,-1.6389,-1.6357,-1.63,-1.6113,-1.6081,-1.6024,-1.5853,-1.565,-1.548,-1.5366,-1.5382,-1.5358,-1.5174,-1.5483,-1.5855,-1.6224,-1.6207,-1.6057,-1.5664,-1.545,-1.5084,-1.4446,-1.4901,-1.491,-1.4437,-1.4901,-1.4997,-1.4774,-1.5219,-1.548,-1.5615,-1.5786,-1.5949,-1.4489,-1.4857,-1.5236,-1.5841,-1.6339,-1.6747,-1.7048,-1.7396,-1.7883,-1.8528,-1.8503,-1.839,-1.8656,-1.8392,-1.8192,-1.8488,-1.8545,-1.8714,-1.9371,-1.9623,-1.959,-1.9607,-1.9448,-1.9394,-1.9549,-1.9565,-1.9589,-1.9638,-1.9735,-1.9727,-1.9597,-1.9475,-1.9402,-1.9402,-1.9354,-1.9329,-1.9329,-1.9281,-1.9256,-1.9256,-1.9256,-1.9256,-1.9256,-1.9256,-1.9159,-1.898,-1.898,-1.8777,-1.8547,-1.8547,-1.8347,-1.8176,-1.8176,-1.8176,-1.8176,-1.8176,-1.8095,-1.7989,-1.7989,-1.7786,-1.7534,-1.7534,-1.738,-1.7185,-1.7185,-1.7153,-1.7112,-1.7112,-1.7112,-1.7112,-1.7112,-1.7112,-1.7112,-1.7112,-1.7112,-1.7063,-1.6806,-1.6766,-1.6795,-1.6617,-1.6584,-1.6519,-1.6332,-1.63,-1.6243,-1.599,-1.5829,-1.561,-1.548,-1.5536,-1.552,-1.5333,-1.5668,-1.5948,-1.5872,-1.593,-1.5897,-1.5588,-1.5514,-1.5259,-1.4777,-1.5191,-1.52,-1.4769,-1.5191,-1.5259,-1.5035,-1.531,-1.5486,-1.5494,-1.5546,-1.5572,-1.4757,-1.5731,-1.6494,-1.6502,-1.7312,-1.7869,-1.7381,-1.7803,-1.8426,-1.8434,-1.8574,-1.8728,-1.8728,-1.8582,-1.8383,-1.8146,-1.8529,-1.8875,-1.8686,-1.9447,-1.9797,-1.9283,-1.9415,-1.9378,-1.9037,-1.9004,-1.9086,-1.9264,-1.9597,-1.9784,-1.9784,-1.9776,-1.9776,-1.9776,-1.9597,-1.95,-1.95,-1.9337,-1.9256,-1.9256,-1.9256,-1.9256,-1.9256,-1.9256,-1.9159,-1.898,-1.898,-1.8777,-1.8547,-1.8547,-1.8347,-1.8176,-1.8176,-1.8176,-1.8176,-1.8176,-1.8168,-1.8168,-1.8168,-1.8054,-1.79,-1.79,-1.7664,-1.738,-1.738,-1.725,-1.7112,-1.7112,-1.7112,-1.7112,-1.7112,-1.7112,-1.7112,-1.7112,-1.7112,-1.7063,-1.6806,-1.6766,-1.6795,-1.6617,-1.6584,-1.6519,-1.6332,-1.63,-1.6243,-1.599,-1.5958,-1.5942,-1.5942,-1.5869,-1.5699,-1.5528,-1.5512,-1.5585,-1.5828,-1.5601,-1.5504,-1.5496,-1.5317,-1.513,-1.5028,-1.502,-1.502,-1.502,-1.502,-1.5028,-1.5028,-1.513,-1.5212,-1.522,-1.5398,-1.548,-1.5593,-1.6305,-1.6908,-1.7351,-1.7539,-1.7739,-1.7951,-1.7997,-1.8151,-1.8644,-1.8328,-1.8126,-1.8576,-1.8096,-1.7685,-1.8211,-1.8288,-1.8371,-1.879,-1.8881,-1.8904,-1.8835,-1.8587,-1.8382,-1.8435,-1.8689,-1.8939,-1.9232,-1.9475,-1.9662,-1.9784,-1.9792,-1.9792,-1.9792,-1.9605,-1.9516,-1.9516,-1.9345,-1.9256,-1.9256,-1.9256,-1.9256,-1.9256,-1.9256,-1.9224,-1.9167,-1.9167,-1.8964,-1.8631,-1.8631,-1.8452,-1.8176,-1.8176,-1.8249,-1.8347,-1.8217,-1.8257,-1.8338,-1.8217,-1.8062,-1.7916,-1.7916,-1.7754,-1.7534,-1.7421,-1.7348,-1.7266,-1.7145,-1.7201,-1.7291,-1.7291,-1.738,-1.7429,-1.7323,-1.7291,-1.7242,-1.7063,-1.7023,-1.7006,-1.6942,-1.6933,-1.6877,-1.6698,-1.6665,-1.6609,-1.643,-1.6097,-1.591,-1.595,-1.5886,-1.5748,-1.5691,-1.5796,-1.5837,-1.578,-1.5723,-1.5691,-1.5691,-1.552,-1.5398,-1.5333,-1.5333,-1.5333,-1.5333,-1.5333,-1.5333,-1.5333,-1.539,-1.5423,-1.5423,-1.5488,-1.5512,-1.6495,-1.7168,-1.7718,-1.7959,-1.7933,-1.785,-1.7847,-1.7844,-1.7898,-1.8176,-1.7825,-1.7619,-1.7828,-1.7435,-1.7185,-1.769,-1.7909,-1.8067,-1.8337,-1.856,-1.8617,-1.8463,-1.8233,-1.8022,-1.8031,-1.8219,-1.8624,-1.9053,-1.9083,-1.9324,-1.9776,-1.971,-1.9774,-1.9979,-1.9743,-1.9613,-1.9613,-1.9378,-1.9256,-1.9256,-1.9256,-1.9256,-1.9256,-1.9256,-1.9256,-1.9256,-1.9256,-1.9094,-1.8818,-1.8818,-1.8639,-1.8371,-1.8371,-1.8444,-1.8533,-1.842,-1.8444,-1.8517,-1.8265,-1.8103,-1.8014,-1.8014,-1.7892,-1.7721,-1.7607,-1.7486,-1.7364,-1.7242,-1.725,-1.7307,-1.7372,-1.7469,-1.7526,-1.7413,-1.7388,-1.7339,-1.7153,-1.7112,-1.7112,-1.7112,-1.7112,-1.7055,-1.6798,-1.6795,-1.6714,-1.66,-1.6284,-1.6105,-1.6219,-1.6073,-1.5934,-1.5878,-1.5918,-1.5926,-1.5878,-1.5869,-1.5894,-1.5959,-1.5918,-1.5869,-1.5804,-1.5861,-1.5894,-1.5894,-1.5894,-1.5894,-1.5894,-1.5894,-1.5894,-1.5894,-1.5829,-1.5796,-1.7299,-1.8252,-1.8864,-1.8255,-1.8314,-1.8349,-1.7293,-1.7398,-1.7633,-1.6985,-1.7025,-1.7072,-1.6535,-1.6644,-1.6719,-1.6584,-1.7331,-1.779,-1.7399,-1.8246,-1.8807,-1.8244,-1.8441,-1.8373,-1.7798,-1.7788,-1.8071,-1.856,-1.8466,-1.8804,-1.9666,-1.9616,-1.9694,-2.02,-1.9971,-1.9784,-1.9776,-1.9435,-1.9256,-1.9256,-1.9256,-1.9256,-1.9256,-1.9256,-1.9256,-1.9256,-1.9256,-1.9159,-1.898,-1.898,-1.8883,-1.8728,-1.8728,-1.8728,-1.8736,-1.8728,-1.8728,-1.8688,-1.833,-1.8192,-1.8184,-1.8176,-1.8062,-1.7924,-1.7916,-1.7672,-1.7396,-1.7388,-1.7258,-1.7169,-1.7339,-1.7396,-1.7396,-1.7396,-1.7396,-1.7348,-1.7161,-1.7128,-1.712,-1.7112,-1.7112,-1.7055,-1.6806,-1.6722,-1.6609,-1.6609,-1.6609,-1.66,-1.6584,-1.6422,-1.6243,-1.6073,-1.5894,-1.5861,-1.5958,-1.6056,-1.6137,-1.6308,-1.6479,-1.6495,-1.6308,-1.647,-1.656,-1.6552,-1.6552,-1.6552,-1.6552,-1.6552,-1.656,-1.656,-1.6373,-1.6292,-1.6749,-1.7825,-1.8493,-1.8313,-1.8364,-1.8202,-1.7762,-1.7398,-1.7086,-1.6758,-1.6299,-1.5869,-1.5861,-1.5676,-1.5647,-1.6166,-1.6974,-1.7486,-1.7412,-1.8011,-1.8356,-1.7998,-1.7811,-1.7699,-1.7765,-1.73,-1.725,-1.7841,-1.8205,-1.8505,-1.865,-1.9202,-1.9535,-1.9505,-1.9702,-1.9727,-1.9581,-1.937,-1.9256,-1.9256,-1.9256,-1.9256,-1.9256,-1.9256,-1.9256,-1.9256,-1.9256,-1.9159,-1.898,-1.898,-1.8883,-1.8728,-1.8728,-1.8801,-1.8899,-1.8769,-1.8809,-1.8883,-1.8663,-1.8493,-1.8355,-1.8217,-1.8144,-1.8087,-1.7957,-1.7762,-1.7551,-1.7421,-1.7356,-1.7331,-1.7372,-1.7478,-1.7575,-1.7575,-1.7575,-1.7526,-1.7356,-1.7315,-1.7274,-1.7136,-1.7112,-1.7096,-1.7055,-1.7006,-1.6974,-1.6974,-1.6974,-1.6877,-1.6617,-1.6422,-1.6284,-1.6243,-1.6081,-1.6048,-1.6219,-1.6235,-1.6316,-1.6495,-1.6552,-1.6495,-1.6308,-1.6349,-1.6316,-1.6186,-1.6186,-1.6186,-1.6186,-1.6186,-1.6251,-1.6373,-1.6194,-1.6178,-1.7113,-1.7926,-1.8425,-1.8291,-1.8193,-1.7968,-1.7377,-1.6934,-1.6537,-1.5931,-1.5378,-1.4985,-1.4822,-1.475,-1.4981,-1.5556,-1.6591,-1.7229,-1.7229,-1.7684,-1.7935,-1.7704,-1.746,-1.7336,-1.7419,-1.7228,-1.7048,-1.7085,-1.7448,-1.7806,-1.8134,-1.8506,-1.8811,-1.9228,-1.9292,-1.938,-1.9402,-1.9305,-1.9256,-1.9256,-1.9256,-1.9256,-1.9264,-1.9337,-1.9329,-1.9264,-1.9337,-1.9272,-1.9102,-1.9102,-1.9045,-1.8964,-1.8964,-1.9021,-1.9094,-1.8996,-1.9021,-1.9077,-1.8899,-1.8769,-1.8639,-1.8379,-1.8298,-1.8265,-1.8087,-1.7908,-1.7746,-1.7648,-1.7559,-1.7518,-1.7599,-1.7632,-1.764,-1.764,-1.7583,-1.7478,-1.7307,-1.7266,-1.7234,-1.7128,-1.7112,-1.7112,-1.7112,-1.7112,-1.7112,-1.7112,-1.7112,-1.7039,-1.6836,-1.6657,-1.6544,-1.6544,-1.6389,-1.6349,-1.6527,-1.6544,-1.6592,-1.669,-1.6771,-1.673,-1.6552,-1.6617,-1.6617,-1.6511,-1.6511,-1.6511,-1.6511,-1.6511,-1.656,-1.6657,-1.6479,-1.6454,-1.747,-1.8027,-1.8422,-1.8017,-1.7946,-1.7601,-1.6701,-1.632,-1.5872,-1.4862,-1.4405,-1.4091,-1.3643,-1.4013,-1.4524,-1.5097,-1.6144,-1.6931,-1.6944,-1.7304,-1.7514,-1.7378,-1.7229,-1.71,-1.7019,-1.7301,-1.7265,-1.6619,-1.6658,-1.7106,-1.7866,-1.7703,-1.8071,-1.9055,-1.8846,-1.8912,-1.9264,-1.9256,-1.9256,-1.9256,-1.9256,-1.9256,-1.9264,-1.9435,-1.9419,-1.9264,-1.9435,-1.9419,-1.9256,-1.9256,-1.9256,-1.9256,-1.9256,-1.9256,-1.9256,-1.9256,-1.9256,-1.924,-1.9077,-1.9021,-1.8964,-1.8606,-1.8485,-1.846,-1.8298,-1.8127,-1.7989,-1.7989,-1.7851,-1.7746,-1.7884,-1.7778,-1.764,-1.764,-1.751,-1.7339,-1.7185,-1.7128,-1.7112,-1.7112,-1.7112,-1.7112,-1.7112,-1.7112,-1.7112,-1.7112,-1.7112,-1.7112,-1.7112,-1.6958,-1.6766,-1.6766,-1.669,-1.6657,-1.675,-1.6766,-1.6774,-1.6798,-1.7023,-1.7031,-1.6774,-1.6998,-1.7063,-1.7039,-1.7039,-1.7039,-1.7039,-1.7039,-1.7055,-1.7071,-1.6901,-1.6741,-1.6742,-1.7209,-1.7532,-1.7429,-1.7302,-1.7151,-1.6476,-1.5845,-1.5153,-1.4353,-1.3596,-1.3036,-1.3057,-1.3377,-1.3896,-1.4841,-1.5906,-1.6646,-1.6768,-1.6965,-1.7087,-1.706,-1.6917,-1.691,-1.7134,-1.7233,-1.7206,-1.708,-1.7022,-1.6996,-1.692,-1.7348,-1.7968,-1.8714,-1.8605,-1.8785,-1.9256,-1.9256,-1.9256,-1.9256,-1.9256,-1.9256,-1.9264,-1.9435,-1.9419,-1.9264,-1.9435,-1.9419,-1.9256,-1.9256,-1.9256,-1.9256,-1.9256,-1.9256,-1.9256,-1.9256,-1.9256,-1.9256,-1.9224,-1.9207,-1.9151,-1.8793,-1.868,-1.8671,-1.8639,-1.8501,-1.8363,-1.8363,-1.8225,-1.8054,-1.7949,-1.7778,-1.764,-1.764,-1.751,-1.738,-1.7348,-1.7218,-1.7112,-1.7112,-1.7112,-1.7112,-1.7112,-1.7112,-1.7112,-1.7112,-1.7112,-1.7112,-1.7112,-1.6958,-1.6766,-1.6766,-1.669,-1.6657,-1.675,-1.6766,-1.6917,-1.7055,-1.7096,-1.7031,-1.6774,-1.6798,-1.6828,-1.6674,-1.6674,-1.6674,-1.6674,-1.6674,-1.6747,-1.6806,-1.6714,-1.6706,-1.6768,-1.7195,-1.7467,-1.7161,-1.708,-1.6863,-1.6029,-1.5262,-1.4489,-1.3661,-1.2834,-1.2311,-1.2467,-1.28,-1.337,-1.4346,-1.5384,-1.6117,-1.6259,-1.6415,-1.6544,-1.6625,-1.6632,-1.6748,-1.7053,-1.7222,-1.7277,-1.7195,-1.706,-1.6951,-1.6876,-1.7307,-1.7675,-1.7951,-1.8164,-1.8421,-1.8629,-1.873,-1.873,-1.873,-1.873,-1.873,-1.8637,-1.88,-1.8839,-1.8613,-1.8776,-1.8698,-1.8465,-1.8762,-1.8853,-1.896,-1.9157,-1.9157,-1.896,-1.9157,-1.9157,-1.896,-1.9157,-1.9256,-1.9232,-1.9061,-1.8939,-1.8842,-1.8753,-1.8663,-1.8574,-1.8476,-1.8387,-1.8273,-1.8095,-1.7916,-1.7786,-1.7786,-1.7648,-1.7518,-1.7518,-1.7453,-1.7388,-1.7388,-1.7388,-1.7356,-1.7266,-1.7258,-1.7218,-1.7128,-1.7112,-1.7112,-1.7112,-1.7039,-1.699,-1.699,-1.6909,-1.6893,-1.6982,-1.699,-1.7023,-1.7104,-1.7112,-1.712,-1.7128,-1.7039,-1.699,-1.6998,-1.6901,-1.6852,-1.6852,-1.6852,-1.6901,-1.6982,-1.6901,-1.6901,-1.7032,-1.7405,-1.7582,-1.71,-1.691,-1.6558,-1.5506,-1.4618,-1.3777,-1.2942,-1.2189,-1.1735,-1.1891,-1.2284,-1.2881,-1.3783,-1.478,-1.5506,-1.5683,-1.5845,-1.6008,-1.6191,-1.6341,-1.6571,-1.6944,-1.7249,-1.7372,-1.7249,-1.708,-1.6965,-1.6931,-1.7224,-1.7291,-1.7253,-1.7749,-1.7953,-1.8055,-1.8055,-1.8055,-1.8055,-1.8055,-1.8055,-1.8157,-1.8328,-1.8231,-1.7926,-1.809,-1.797,-1.7771,-1.816,-1.8358,-1.8556,-1.8861,-1.8762,-1.8556,-1.8861,-1.8738,-1.8501,-1.8904,-1.9077,-1.9142,-1.9142,-1.9069,-1.8956,-1.8818,-1.8753,-1.8696,-1.855,-1.8509,-1.8468,-1.8282,-1.8103,-1.7957,-1.7875,-1.7746,-1.764,-1.764,-1.764,-1.764,-1.764,-1.764,-1.7599,-1.7469,-1.7413,-1.7339,-1.7193,-1.7136,-1.7128,-1.7161,-1.7136,-1.7128,-1.7169,-1.7136,-1.7112,-1.7112,-1.7112,-1.7112,-1.7112,-1.7153,-1.7234,-1.738,-1.725,-1.7242,-1.7388,-1.7201,-1.7112,-1.7112,-1.7112,-1.7112,-1.7112,-1.7112,-1.7112,-1.7467,-1.7717,-1.7704,-1.7127,-1.6673,-1.6096,-1.5038,-1.3912,-1.2901,-1.2277,-1.1653,-1.1274,-1.1423,-1.1823,-1.242,-1.3315,-1.4224,-1.4923,-1.5201,-1.5377,-1.5574,-1.5859,-1.6029,-1.6347,-1.6924,-1.7249,-1.7412,-1.7399,-1.7141,-1.6917,-1.6781,-1.6754,-1.6989,-1.7246,-1.7348,-1.7647,-1.8055,-1.8055,-1.8055,-1.8055,-1.8055,-1.8055,-1.8157,-1.8328,-1.8231,-1.7926,-1.809,-1.797,-1.7672,-1.7771,-1.8061,-1.8457,-1.8069,-1.8061,-1.8457,-1.797,-1.797,-1.8231,-1.8231,-1.8519,-1.8777,-1.8777,-1.8866,-1.898,-1.8964,-1.885,-1.872,-1.8704,-1.8696,-1.8655,-1.8476,-1.829,-1.807,-1.7746,-1.7656,-1.764,-1.764,-1.764,-1.764,-1.764,-1.764,-1.764,-1.7616,-1.7486,-1.738,-1.7364,-1.7218,-1.7169,-1.7339,-1.7218,-1.7177,-1.7348,-1.721,-1.7112,-1.7112,-1.7112,-1.7112,-1.7112,-1.7266,-1.7372,-1.7388,-1.7372,-1.7372,-1.7388,-1.7201,-1.7112,-1.7112,-1.7112,-1.7112,-1.7112,-1.7112,-1.7112,-1.7012,-1.7412,-1.7568,-1.6876,-1.6368,-1.5764,-1.4713,-1.3478,-1.2433,-1.2013,-1.1375,-1.0941,-1.1097,-1.1416,-1.1925,-1.2732,-1.3539,-1.4211,-1.4597,-1.4936,-1.5221,-1.5425,-1.5669,-1.6015,-1.653,-1.6842,-1.7053,-1.7148,-1.7046,-1.6951,-1.689,-1.689,-1.6967,-1.7114,-1.7114,-1.7217,-1.7418,-1.7418,-1.7418,-1.7418,-1.7418,-1.7418,-1.7425,-1.7488,-1.7348,-1.7052,-1.7109,-1.6961,-1.6779,-1.707,-1.7367,-1.7566,-1.7665,-1.7665,-1.7566,-1.7672,-1.7627,-1.7469,-1.7772,-1.8022,-1.8051,-1.7943,-1.7882,-1.8052,-1.8632,-1.8777,-1.8704,-1.859,-1.8558,-1.8517,-1.833,-1.8233,-1.8135,-1.7997,-1.7965,-1.7965,-1.7965,-1.7965,-1.7965,-1.7965,-1.7965,-1.7932,-1.7827,-1.7754,-1.7672,-1.7559,-1.7478,-1.7453,-1.7534,-1.7478,-1.7461,-1.7534,-1.7283,-1.7153,-1.7266,-1.7274,-1.7323,-1.7421,-1.7502,-1.7591,-1.7705,-1.7502,-1.7437,-1.7534,-1.7258,-1.7112,-1.7112,-1.7112,-1.7112,-1.7112,-1.7112,-1.7112,-1.6632,-1.7154,-1.7399,-1.6646,-1.6056,-1.5384,-1.434,-1.3091,-1.2067,-1.1762,-1.1179,-1.0751,-1.0793,-1.109,-1.1477,-1.2135,-1.2874,-1.3519,-1.3973,-1.4496,-1.4869,-1.497,-1.5255,-1.5622,-1.6069,-1.6537,-1.6897,-1.7093,-1.7114,-1.7114,-1.7114,-1.7066,-1.7026,-1.6985,-1.6978,-1.6978,-1.6978,-1.6978,-1.6978,-1.6978,-1.6978,-1.6978,-1.6978,-1.6978,-1.6836,-1.6585,-1.6585,-1.6442,-1.6205,-1.6564,-1.6842,-1.6935,-1.7191,-1.7098,-1.7035,-1.7241,-1.7142,-1.7042,-1.7341,-1.761,-1.7642,-1.7471,-1.7314,-1.7269,-1.7984,-1.8129,-1.8058,-1.8025,-1.7994,-1.7962,-1.7835,-1.7803,-1.7803,-1.7803,-1.7803,-1.7803,-1.7803,-1.7803,-1.7803,-1.7803,-1.7896,-1.7965,-1.7901,-1.7897,-1.7892,-1.7811,-1.7705,-1.7656,-1.7713,-1.7672,-1.7681,-1.7786,-1.7478,-1.7323,-1.7453,-1.7461,-1.751,-1.7632,-1.7689,-1.7778,-1.7908,-1.7681,-1.7575,-1.764,-1.7396,-1.7242,-1.7193,-1.7242,-1.7266,-1.7266,-1.7266,-1.7266,-1.6551,-1.708,-1.7243,-1.6497,-1.5744,-1.4916,-1.3871,-1.2705,-1.1748,-1.1457,-1.1036,-1.0717,-1.0724,-1.0779,-1.1035,-1.1558,-1.2257,-1.2895,-1.3349,-1.4048,-1.4516,-1.4516,-1.4787,-1.5153,-1.5601,-1.6456,-1.71,-1.7392,-1.7412,-1.7412,-1.7412,-1.727,-1.7127,-1.6985,-1.6978,-1.6978,-1.6978,-1.6978,-1.6978,-1.6978,-1.6978,-1.6978,-1.6978,-1.6978,-1.6897,-1.6748,-1.6748,-1.6659,-1.6503,-1.6368,-1.6609,-1.6984,-1.6337,-1.6571,-1.7005,-1.6508,-1.6609,-1.7106,-1.7106,-1.7306,-1.7543,-1.7471,-1.721,-1.7054,-1.6979,-1.6815,-1.6681,-1.6681,-1.6681,-1.6681,-1.6681,-1.6681,-1.6681,-1.6681,-1.6681,-1.6681,-1.6681,-1.6681,-1.6681,-1.6681,-1.7055,-1.7484,-1.7647,-1.7771,-1.7973,-1.8144,-1.7867,-1.7705,-1.7892,-1.7754,-1.7778,-1.8135,-1.7851,-1.764,-1.764,-1.764,-1.764,-1.764,-1.7811,-1.7916,-1.7916,-1.7916,-1.7827,-1.7648,-1.764,-1.7551,-1.7388,-1.7551,-1.7632,-1.7632,-1.7632,-1.7632,-1.5255,-1.5927,-1.6327,-1.5581,-1.4984,-1.436,-1.3512,-1.2393,-1.1504,-1.1409,-1.1029,-1.0717,-1.0717,-1.0758,-1.0941,-1.1389,-1.1918,-1.2501,-1.3152,-1.3973,-1.455,-1.4658,-1.512,-1.5601,-1.6056,-1.6537,-1.6985,-1.7392,-1.7419,-1.7419,-1.7419,-1.7277,-1.7168,-1.7127,-1.7032,-1.6978,-1.6978,-1.6978,-1.6978,-1.6978,-1.6978,-1.6978,-1.6978,-1.6978,-1.6897,-1.6748,-1.6748,-1.6666,-1.6517,-1.6476,-1.6496,-1.6515,-1.6462,-1.6455,-1.6522,-1.6517,-1.6551,-1.6653,-1.6653,-1.6727,-1.686,-1.6713,-1.6559,-1.6405,-1.6244,-1.6414,-1.6681,-1.6681,-1.6681,-1.6681,-1.6681,-1.6681,-1.6681,-1.6681,-1.6681,-1.6681,-1.6681,-1.6681,-1.6681,-1.6681,-1.6868,-1.7108,-1.7655,-1.7593,-1.7787,-1.8338,-1.816,-1.803,-1.8087,-1.8046,-1.8095,-1.8338,-1.8152,-1.8005,-1.8005,-1.79,-1.7932,-1.8176,-1.8135,-1.8152,-1.8273,-1.8046,-1.7827,-1.7648,-1.764,-1.7559,-1.7388,-1.7559,-1.764,-1.764,-1.764,-1.764,-1.4231,-1.4977,-1.5425,-1.4787,-1.4292,-1.3777,-1.3078,-1.2128,-1.1375,-1.1314,-1.0995,-1.0717,-1.0717,-1.0717,-1.0846,-1.124,-1.1633,-1.2155,-1.2901,-1.3831,-1.459,-1.5025,-1.5459,-1.5893,-1.6347,-1.6707,-1.71,-1.7555,-1.7589,-1.7589,-1.7589,-1.7446,-1.7338,-1.7283,-1.7087,-1.6978,-1.6978,-1.6978,-1.6978,-1.6978,-1.6978,-1.6978,-1.6978,-1.6978,-1.6931,-1.6836,-1.6836,-1.6781,0.0,-1.6632,-1.6558,-1.6476,-1.651,-1.6503,-1.6483,-1.6578,-1.6646,-1.6693,-1.6693,-1.6693,-1.6673,-1.6524,-1.63,-1.6056,-1.59,-1.6097,-1.6299,-1.6299,-1.6256,-1.6205,-1.6205,-1.6162,-1.6119,-1.6119,-1.6119,-1.6133,-1.6198,-1.6205,-1.6227,-1.6292,-1.6488,-1.6729,-1.7275,-1.7265,-1.7496,-1.7953,-1.7923,-1.7813,-1.7813,-1.7813,-1.7884,-1.8057,-1.786,-1.7742,-1.7813,-1.7965,-1.8111,-1.833,-1.8241,-1.8225,-1.8347,-1.8135,-1.7932,-1.7746,-1.7811,-1.7762,-1.7591,-1.7762,-1.7843,-1.7843,-1.7843,-1.7843,0.0,-1.415,-1.4536,-1.4102,-1.3668,-1.3193,-1.2589,-1.1891,0.0,-1.1179,-1.0921,-1.0717,-1.0717,-1.0731,-1.0833,-1.1131,-1.1443,-1.1911,-1.2671,-1.3702,-1.4706,-1.5594,-1.5818,-1.6076,-1.6524,-1.6958,-1.7392,-1.7826,-1.786,-1.786,-1.786,-1.7717,-1.7582,-1.7426,-1.7148,-1.6992,-1.6978,-1.6978,-1.6978,-1.6978,-1.6978,-1.6978,-1.6978,-1.6978,-1.6978,-1.6978,-1.6978,-1.6978,-1.6971,-1.6829,-1.6761,-1.6734,-1.6605,-1.6632,-1.6754,-1.6761,-1.6856,-1.6978,-1.6978,-1.6978,-1.6951,-1.6788,-1.6449,-1.6083,-1.592,-1.5764,-1.5642,-1.5642,-1.554,-1.5425,-1.5425,-1.5323,-1.5215,-1.5215,-1.5215,-1.5255,-1.5398,-1.5425,-1.5466,-1.5608,-1.6022,-1.6458,-1.6615,-1.6904,-1.7136,-1.7389,-1.7188,-1.7084,-1.7084,-1.7084,-1.7143,-1.7396,-1.7136,-1.7016,-1.7188,-1.7734,-1.8091,-1.8099,-1.8091,-1.8091,-1.8115,-1.8099,-1.8103,-1.7848,-1.8079,-1.8079,-1.794,-1.8095,-1.8176,-1.8176,-1.8176,-1.8176,-1.2033,0.0,-1.3634,-1.3302,-1.3051,-1.2732,0.0,-1.1586,-1.1172,-1.1029,-1.0853,-1.0717,-1.0717,-1.0745,-1.0989,-1.1287,-1.1687,-1.2257,-1.3125,-1.4346,-1.5438,-1.6218,-1.6341,-1.6544,-1.6992,-1.7236,-1.7507,-1.7846,-1.786,-1.786,-1.786,-1.7717,-1.7582,-1.7426,-1.7243,-1.7087,-1.6985,-1.6978,-1.6978,-1.6978,-1.6978,-1.6978,-1.6978,-1.6978,-1.6978,-1.6978,-1.6978,-1.6978,-1.6978,-1.6944,-1.6856,-1.6761,-1.6842,-1.6822,-1.6761,-1.6883,-1.6951,-1.6978,-1.6978,-1.6978,-1.6937,-1.6666,-1.6503,-1.6368,-1.611,-1.5845,-1.5642,-1.5642,-1.5615,-1.5588,-1.5588,-1.556,-1.5533,-1.5533,-1.5533,-1.554,-1.5581,-1.5588,-1.5594,-1.5635,-1.5732,-1.5974,-1.6517,-1.6605,-1.6749,-1.7291,-1.7188,-1.7084,-1.7084,-1.7084,-1.7143,-1.7396,-1.7143,-1.7091,-1.7352,-1.7132,-1.7108,-1.7246,-1.7124,-1.7169,-1.7436,-1.7577,-1.76,-1.7561,-1.7845,-1.8022,-1.8111,-1.8152,-1.8176,-1.8176,-1.8176,-1.8176,-1.1538,-1.2189,-1.2732,-1.2501,-1.2379,-1.2196,-1.1735,-1.1335,-1.1043,-1.0894,-1.0813,-1.0759,-1.0759,-1.0948,-1.1165,-1.1531,-1.1972,-1.2745,-1.4129,-1.5065,-1.594,-1.6829,-1.6931,-1.708,-1.7467,-1.7575,-1.7684,-1.7846,-1.786,-1.786,-1.786,-1.7792,-1.765,-1.7426,-1.7338,-1.7195,-1.6985,-1.6978,-1.6978,-1.6978,-1.6978,-1.6978,-1.6978,-1.6978,-1.6978,-1.6978,-1.6978,-1.6978,-1.6978,-1.6978,-1.6931,-1.6863,-1.6951,-1.6931,-1.6863,-1.6951,-1.6978,-1.6978,-1.6978,-1.6978,-1.6951,-1.6788,-1.6639,-1.649,-1.6334,-1.6076,-1.5845,-1.5845,-1.5791,-1.5737,-1.5737,-1.5689,-1.5642,-1.5642,-1.5642,-1.5655,-1.5723,-1.5737,-1.5757,-1.5832,-1.5845,-1.5984,-1.6439,-1.6335,-1.6377,-1.6828,-1.6721,-1.665,-1.6721,-1.6665,-1.6679,-1.6835,-1.665,-1.6544,-1.6727,-1.6433,-1.6473,-1.7039,-1.6957,-1.6994,-1.7173,-1.72,-1.7386,-1.7576,-1.8056,-1.8338,-1.8428,-1.8428,-1.8428,-1.8428,-1.8428,-1.8428,-1.1436,-1.1769,-1.1972,-1.1891,-1.1884,-1.1823,-1.1525,-1.128,-1.1035,-1.0988,-1.0981,-1.0981,-1.0981,-1.1165,-1.1409,-1.1864,-1.2427,-1.3424,-1.5194,-1.5723,-1.6293,-1.7304,-1.7419,-1.7534,-1.7826,-1.786,-1.786,-1.786,-1.7846,-1.7826,-1.7826,-1.7812,-1.767,-1.7392,-1.7385,-1.7256,-1.6985,-1.6978,-1.6978,-1.6978,-1.6978,-1.6978,-1.6978,-1.6978,-1.6978,-1.6978,-1.6978,-1.6978,-1.6978,-1.6978,-1.6978,-1.6978,-1.6978,-1.6978,-1.6978,-1.6978,-1.6978,-1.6978,-1.6978,-1.6978,-1.6978,-1.6951,-1.6754,-1.6517,-1.6497,-1.63,-1.6083,-1.6083,-1.5988,-1.5886,-1.5886,-1.5798,-1.571,-1.571,-1.571,-1.5737,-1.5859,-1.5886,-1.5927,-1.6056,-1.6083,-1.613,-1.6286,-1.6185,-1.6137,-1.6286,-1.6178,-1.613,-1.6259,-1.6164,-1.613,-1.6259,-1.6042,-1.59,-1.592,-1.5791,-1.6008,-1.6904,-1.6935,-1.6891,-1.6987,-1.7009,-1.7299,-1.7751,-1.824,-1.844,-1.844,-1.844,-1.8536,-1.8624,-1.8624,-1.8624,-1.1179,-1.1457,-1.1742,-1.1972,-1.2121,-1.2142,-1.183,-1.183,-1.1823,-1.1565,-1.1518,-1.1518,-1.1518,-1.1633,-1.1877,-1.2325,-1.341,-1.4529,-1.5472,-1.5974,-1.6537,-1.7324,-1.7419,-1.7534,-1.7826,-1.786,-1.786,-1.786,-1.7758,-1.7684,-1.7684,-1.7555,-1.7405,-1.7236,-1.7229,-1.7148,-1.6985,-1.6978,-1.6978,-1.6978,-1.6978,-1.6978,-1.6978,-1.6978,-1.6978,-1.6978,-1.6978,-1.6978,-1.6978,-1.6978,-1.6978,-1.6978,-1.6978,-1.6978,-1.6978,-1.6978,-1.6978,-1.6978,-1.6978,-1.6978,-1.6958,-1.6829,-1.6666,-1.6497,-1.6381,-1.6218,-1.6083,-1.6083,-1.6062,-1.6049,-1.6049,-1.6029,-1.6015,-1.6015,-1.6015,-1.6022,-1.6042,-1.6049,-1.6056,-1.6076,-1.6083,-1.613,-1.6286,-1.6185,-1.6137,-1.6286,-1.6178,-1.609,-1.611,-1.6096,-1.609,-1.6117,-1.6076,-1.6096,-1.6232,-1.6103,-1.6169,-1.6398,-1.6048,-1.6022,-1.6498,-1.6634,-1.6836,-1.718,-1.7277,-1.7373,-1.7373,-1.7373,-1.7566,-1.8039,-1.8039,-1.824,-1.1226,-1.1389,-1.1586,-1.1965,-1.2237,-1.2386,-1.2332,-1.2372,-1.2359,-1.2142,-1.2033,-1.1979,-1.1979,-1.2169,-1.2623,-1.3559,-1.4434,-1.5235,-1.5906,-1.6246,-1.6673,-1.7344,-1.7419,-1.7534,-1.7826,-1.786,-1.786,-1.786,-1.7738,-1.765,-1.765,-1.75,-1.7351,-1.7195,-1.7195,-1.7121,-1.6985,-1.6978,-1.6978,-1.6978,-1.6978,-1.6978,-1.6978,-1.6978,-1.6978,-1.6978,-1.6978,-1.6978,-1.6978,-1.6978,-1.6978,-1.6978,-1.6978,-1.6978,-1.6971,-1.689,-1.6856,-1.6856,-1.6856,-1.6802,-1.6734,-1.6748,-1.6592,-1.6395,-1.6327,-1.6205,-1.6083,-1.6083,-1.6083,-1.6083,-1.6083,-1.6083,-1.6083,-1.6083,-1.6083,-1.6083,-1.6083,-1.6083,-1.6103,-1.6191,-1.6205,-1.6279,-1.651,-1.6354,-1.6252,-1.6402,-1.6232,-1.611,-1.6191,-1.613,-1.611,-1.6198,-1.613,-1.611,-1.6178,-1.6123,-1.611,-1.6185,-1.5995,-1.5978,-1.6265,-1.663,-1.6827,-1.6951,-1.7245,-1.7441,-1.7441,-1.7441,-1.7539,-1.7832,-1.8126,-1.8321,-1.1328,-1.1416,-1.1545,-1.1959,-1.2284,-1.2471,-1.2581,-1.2702,-1.2655,-1.243,-1.2311,-1.2238,-1.2238,-1.2582,-1.3264,-1.4604,-1.5174,-1.5676,-1.6273,-1.6483,-1.6788,-1.7351,-1.7419,-1.7534,-1.7826,-1.7826,-1.7812,-1.7812,-1.765,-1.7541,-1.7541,-1.7399,-1.7263,-1.7148,-1.7141,-1.7087,-1.6985,-1.6978,-1.6978,-1.6978,-1.6978,-1.6978,-1.6978,-1.6978,-1.6978,-1.6978,-1.6978,-1.6978,-1.6978,-1.6978,-1.6978,-1.6978,-1.6978,-1.6958,-1.691,-1.6795,-1.6727,-1.67,-1.6734,-1.6653,-1.6544,-1.67,-1.6551,-1.6307,-1.6307,-1.6205,-1.6083,-1.6083,-1.6083,-1.6083,-1.6083,-1.611,-1.6137,-1.6137,-1.6157,-1.6185,-1.6185,-1.6185,-1.6218,-1.6334,-1.6361,-1.6442,-1.6707,-1.653,-1.6408,-1.6551,-1.6354,-1.6225,-1.6347,-1.6259,-1.6232,-1.6347,-1.6252,-1.6185,-1.6185,-1.6218,-1.6225,-1.6185,-1.6123,-1.6083,-1.6083,-1.6474,-1.6672,-1.6672,-1.707,-1.7375,-1.7375,-1.7375,-1.7367,-1.7566,-1.7962,-1.816,-1.1389,-1.1497,-1.1674,-1.1986,-1.2284,-1.242,-1.2316,-1.2604,-1.2682,-1.2121,-1.2001,-1.1995,-1.1995,-1.2743,-1.3745,-1.4756,-1.533,-1.5832,-1.6422,-1.6639,-1.6904,-1.7365,-1.7419,-1.7534,-1.7826,-1.7738,-1.7663,-1.7663,-1.7392,-1.7222,-1.7222,-1.7087,-1.7005,-1.6998,-1.6998,-1.6992,-1.6978,-1.6978,-1.6978,-1.6978,-1.6978,-1.6978,-1.6978,-1.6978,-1.6978,-1.6978,-1.6978,-1.6978,-1.6978,-1.6978,-1.6978,-1.6978,-1.6978,-1.6897,-1.6768,-1.6754,-1.6659,-1.6558,-1.67,-1.6653,-1.6544,-1.67,-1.6551,-1.6307,-1.6307,-1.6205,-1.6083,-1.6083,-1.6083,-1.6083,-1.6083,-1.6185,-1.6293,-1.6293,-1.6395,-1.649,-1.649,-1.649,-1.649,-1.6503,-1.6503,-1.6558,-1.672,-1.6612,-1.6558,-1.6714,-1.6592,-1.649,-1.6503,-1.6497,-1.649,-1.6503,-1.6497,-1.649,-1.649,-1.6619,-1.6639,-1.6497,-1.6232,-1.6083,-1.6083,-1.6182,-1.6182,-1.6182,-1.6182,-1.6182,-1.6182,-1.6182,-1.6474,-1.6963,-1.6963,-1.7268,-1.0785,-1.0792,-1.0855,-1.1224,-1.16,-1.1926,-1.2388,-1.21,-1.1687,-1.1204,-1.0421,-1.0076,-1.1112,-1.2348,-1.3636,-1.5053,-1.5622,-1.609,-1.6592,-1.6795,-1.6992,-1.7249,-1.7365,-1.75,-1.7704,-1.7684,-1.765,-1.765,-1.7365,-1.7195,-1.7195,-1.706,-1.6978,-1.6978,-1.6978,-1.6978,-1.6978,-1.6978,-1.6978,-1.6978,-1.6978,-1.6978,-1.6978,-1.6978,-1.6978,-1.6978,-1.6978,-1.6978,-1.6978,-1.6978,-1.6978,-1.6978,-1.6978,-1.6944,-1.687,-1.668,-1.6571,-1.6517,-1.6483,-1.6435,-1.6415,-1.6558,-1.6469,-1.6307,-1.6307,-1.6205,-1.6103,-1.6198,-1.6225,-1.6198,-1.6103,-1.6198,-1.6307,-1.6307,-1.6415,-1.6524,-1.6524,-1.6524,-1.6551,-1.6646,-1.6666,-1.6714,-1.687,-1.6768,-1.668,-1.6741,-1.6619,-1.6524,-1.6524,-1.6524,-1.6524,-1.6524,-1.6524,-1.6524,-1.6524,-1.6571,-1.6585,-1.6524,-1.6415,-1.6354,-1.6354,-1.6354,-1.6354,-1.6354,-1.6354,-1.6354,-1.6354,-1.6266,-1.6326,-1.6519,-1.6814,-1.697,-0.9341,-0.9281,-0.927,-0.9593,-0.9851,-1.0168,-1.0771,-1.078,-1.0584,-0.9948,-0.8981,-0.8805,-1.0288,-1.1659,-1.3082,-1.4915,-1.5622,-1.6051,-1.6754,-1.691,-1.7032,-1.7175,-1.7283,-1.7426,-1.7629,-1.7561,-1.7521,-1.7575,-1.7297,-1.7127,-1.7127,-1.7032,-1.6978,-1.6978,-1.6978,-1.6978,-1.6978,-1.6978,-1.6978,-1.6978,-1.6978,-1.6978,-1.6978,-1.6978,-1.6978,-1.6978,-1.6978,-1.6978,-1.6978,-1.6978,-1.6978,-1.6978,-1.6978,-1.6951,-1.6883,-1.6673,-1.6564,-1.6517,-1.6463,-1.6449,-1.6476,-1.6619,-1.6564,-1.6442,-1.6388,-1.63,-1.6239,-1.6347,-1.6415,-1.6435,-1.6381,-1.6408,-1.6449,-1.6449,-1.6558,-1.6666,-1.6666,-1.6666,-1.67,-1.6802,-1.6822,-1.6856,-1.6965,-1.6897,-1.6822,-1.6822,-1.6734,-1.6666,-1.6666,-1.6666,-1.6666,-1.6666,-1.6666,-1.6666,-1.6666,-1.6666,-1.6666,-1.6666,-1.6666,-1.6619,-1.6524,-1.6524,-1.6524,-1.6524,-1.6524,-1.6524,-1.6524,-1.6381,-1.6307,-1.6307,-1.655,-1.6672,-0.697,-0.6909,-0.6888,-0.6991,-0.7022,-0.7111,-0.6963,-0.8473,-0.9508,-0.8228,-0.8013,-0.8393,-0.9676,-1.0543,-1.2013,-1.45,-1.5099,-1.5681,-1.6792,-1.6978,-1.7032,-1.7175,-1.7195,-1.7311,-1.7616,-1.7372,-1.7256,-1.7405,-1.7148,-1.6978,-1.6978,-1.6978,-1.6978,-1.6978,-1.6978,-1.6978,-1.6978,-1.6978,-1.6978,-1.6978,-1.6978,-1.6978,-1.6978,-1.6978,-1.6978,-1.6978,-1.6978,-1.6978,-1.6978,-1.6978,-1.6978,-1.6978,-1.6978,-1.689,-1.6754,-1.6748,-1.6653,-1.6544,-1.6693,-1.6748,-1.6775,-1.6931,-1.6876,-1.672,-1.6571,-1.6524,-1.6524,-1.6524,-1.6632,-1.6788,-1.6944,-1.687,-1.6754,-1.6754,-1.687,-1.6985,-1.6985,-1.6985,-1.6985,-1.6985,-1.6985,-1.6985,-1.6985,-1.6985,-1.6985,-1.6985,-1.6985,-1.6985,-1.6985,-1.6985,-1.6985,-1.6978,-1.6978,-1.6978,-1.6978,-1.6978,-1.6978,-1.6978,-1.6978,-1.6842,-1.6537,-1.6524,-1.6524,-1.6524,-1.6524,-1.6524,-1.6524,-1.6381,-1.6313,-1.6307,-1.6157,-1.6083,-0.6177,-0.6203,-0.6209,-0.6347,-0.6476,-0.6485,-0.6082,-0.6389,-0.6314,-0.5019,-0.53,-0.5976,-0.6767,-0.8435,-1.0468,-1.2784,-1.4081,-1.5284,-1.6806,-1.6978,-1.6998,-1.7039,-1.7134,-1.727,-1.7467,-1.7311,-1.7256,-1.7405,-1.7148,-1.6978,-1.6978,-1.6978,-1.6978,-1.6978,-1.6978,-1.6978,-1.6978,-1.6978,-1.6978,-1.6978,-1.6978,-1.6978,-1.6978,-1.6978,-1.6978,-1.6978,-1.6978,-1.6978,-1.6978,-1.6978,-1.6978,-1.6978,-1.6978,-1.6951,-1.6897,-1.6788,-1.672,-1.6673,-1.6612,-1.6659,-1.6754,-1.6802,-1.6788,-1.6741,-1.6693,-1.6605,-1.6564,-1.6781,-1.6876,-1.6971,-1.7222,-1.7256,-1.7195,-1.7087,-1.7175,-1.729,-1.729,-1.729,-1.729,-1.729,-1.729,-1.729,-1.729,-1.729,-1.729,-1.729,-1.729,-1.7249,-1.7141,-1.7127,-1.7093,-1.6992,-1.6978,-1.6978,-1.6978,-1.6978,-1.6978,-1.6978,-1.6978,-1.6937,-1.6849,-1.6842,-1.6842,-1.6842,-1.6842,-1.6842,-1.6842,-1.6693,-1.6619,-1.6619,-1.6463,-1.6388,-0.4428,-0.4483,-0.4579,-0.464,-0.4851,-0.4935,-0.4659,-0.4698,-0.4532,-0.3643,-0.3922,-0.4632,-0.5303,-0.6994,-0.9115,-1.157,-1.2922,-1.4373,-1.64,-1.6663,-1.6768,-1.6978,-1.706,-1.7168,-1.7317,-1.7195,-1.7168,-1.7317,-1.7114,-1.6978,-1.6978,-1.6978,-1.6978,-1.6978,-1.6978,-1.6978,-1.6978,-1.6978,-1.6978,-1.6978,-1.6978,-1.6978,-1.6978,-1.6978,-1.6978,-1.6978,-1.6978,-1.6978,-1.6978,-1.6978,-1.6978,-1.6978,-1.6978,-1.6978,-1.6971,-1.6876,-1.6842,-1.6829,-1.6734,-1.6802,-1.6924,-1.6924,-1.6924,-1.6917,-1.6856,-1.6775,-1.6754,-1.6998,-1.7107,-1.7222,-1.7521,-1.7595,-1.7541,-1.7331,-1.7351,-1.7419,-1.7419,-1.7419,-1.7419,-1.7419,-1.7419,-1.7419,-1.7419,-1.7419,-1.7419,-1.7419,-1.7419,-1.7385,-1.7297,-1.7229,-1.7161,-1.7073,-1.7012,-1.6978,-1.6978,-1.6978,-1.6978,-1.6978,-1.6978,-1.6978,-1.6978,-1.6978,-1.6978,-1.6978,-1.6978,-1.6978,-1.6978,-1.6829,-1.6748,-1.6748,-1.6592,-1.6524,-0.2316,-0.2358,-0.2423,-0.2572,-0.2732,-0.2927,-0.3208,-0.3534,-0.3731,-0.3451,-0.3742,-0.419,-0.5017,-0.6148,-0.78,-1.0511,-1.1589,-1.3036,-1.5567,-1.592,-1.6236,-1.6873,-1.6978,-1.7039,-1.7175,-1.7066,-1.7039,-1.7182,-1.706,-1.6978,-1.6978,-1.6978,-1.6978,-1.6978,-1.6978,-1.6978,-1.6978,-1.6978,-1.6978,-1.6978,-1.6978,-1.6978,-1.6978,-1.6978,-1.6978,-1.6978,-1.6978,-1.6978,-1.6978,-1.6978,-1.6978,-1.6978,-1.6978,-1.6978,-1.6978,-1.6978,-1.6978,-1.6978,-1.6978,-1.7066,-1.7175,-1.7175,-1.7175,-1.7148,-1.7019,-1.6978,-1.7012,-1.7154,-1.7304,-1.7487,-1.7772,-1.7846,-1.7792,-1.7507,-1.7453,-1.746,-1.746,-1.746,-1.746,-1.746,-1.746,-1.746,-1.746,-1.746,-1.746,-1.746,-1.746,-1.7453,-1.7446,-1.7317,-1.7229,-1.7216,-1.71,-1.7019,-1.7005,-1.6998,-1.6992,-1.6978,-1.6978,-1.6978,-1.6978,-1.6978,-1.6978,-1.6978,-1.6978,-1.6978,-1.6978,-1.6836,-1.6768,-1.6768,-1.6625,-1.6564,-0.2316,-0.239,-0.2485,-0.2635,-0.2857,-0.3074,-0.3209,-0.335,-0.3387,-0.3382,-0.3498,-0.3582,-0.3751,-0.4713,-0.5988,-0.7497,-0.9442,-1.1528,-1.3785,-1.4961,-1.5815,-1.6873,-1.6978,-1.7039,-1.7175,-1.7066,-1.7039,-1.7182,-1.706,-1.6978,-1.6978,-1.6978,-1.6978,-1.6978,-1.6978,-1.6978,-1.6978,-1.6978,-1.6978,-1.6978,-1.6978,-1.6978,-1.6978,-1.6978,-1.6978,-1.6978,-1.6978,-1.6978,-1.6978,-1.6978,-1.6978,-1.6978,-1.6978,-1.6978,-1.6978,-1.6978,-1.6978,-1.6978,-1.6978,-1.6998,-1.7026,-1.7026,-1.7026,-1.7019,-1.6992,-1.6978,-1.7012,-1.7154,-1.7304,-1.746,-1.765,-1.7772,-1.7812,-1.765,-1.7684,-1.7772,-1.7772,-1.7772,-1.7772,-1.7772,-1.7772,-1.7772,-1.7772,-1.7772,-1.7772,-1.7772,-1.7772,-1.7724,-1.7616,-1.7568,-1.7507,-1.7385,-1.7344,-1.7277,-1.7154,-1.7148,-1.71,-1.6985,-1.6978,-1.6978,-1.6978,-1.6978,-1.6978,-1.6978,-1.6978,-1.6978,-1.6978,-1.6944,-1.6931,-1.6931,-1.6897,-1.6883,-0.2323,-0.2432,-0.2572,-0.2823,-0.3014,-0.316,-0.3235,-0.3276,-0.3311,-0.3358,-0.338,-0.3385,-0.3369,-0.4132,-0.5099,-0.6203,-0.7827,-0.9886,-1.242,-1.348,-1.4651,-1.6341,-1.6558,-1.669,-1.7087,-1.7026,-1.7012,-1.7087,-1.7026,-1.6978,-1.6978,-1.6978,-1.6978,-1.6978,-1.6978,-1.6978,-1.6978,-1.6978,-1.6978,-1.6978,-1.6978,-1.6978,-1.6978,-1.6978,-1.6978,-1.6978,-1.6978,-1.6978,-1.6978,-1.6904,-1.691,-1.6971,-1.6897,-1.6917,-1.6978,-1.6978,-1.6978,-1.6978,-1.6978,-1.6978,-1.6978,-1.6978,-1.6978,-1.6978,-1.6978,-1.6978,-1.7012,-1.7154,-1.7249,-1.7365,-1.7589,-1.765,-1.765,-1.765,-1.7758,-1.7846,-1.7772,-1.7812,-1.786,-1.786,-1.786,-1.7846,-1.7772,-1.7704,-1.767,-1.7758,-1.7758,-1.7758,-1.7758,-1.7684,-1.7616,-1.7541,-1.7467,-1.7392,-1.7311,-1.7304,-1.727,-1.7195,-1.7121,-1.708,-1.708,-1.7019,-1.6978,-1.6978,-1.6978,-1.6978,-1.6978,-1.6978,-1.6978,-1.6978,-1.6978,-1.6978,-0.2323,-0.2482,-0.2677,-0.3007,-0.3135,-0.3194,-0.3249,-0.3284,-0.3307,-0.3311,-0.3337,-0.3359,-0.3359,-0.3805,-0.4453,-0.5367,-0.6457,-0.8087,-1.0623,-1.1791,-1.3058,-1.5388,-1.5809,-1.6236,-1.6978,-1.6978,-1.6978,-1.6978,-1.6978,-1.6978,-1.6978,-1.6978,-1.6978,-1.6978,-1.6978,-1.6978,-1.6978,-1.6978,-1.6978,-1.6978,-1.6951,-1.6944,-1.6937,-1.691,-1.6931,-1.6978,-1.6978,-1.6978,-1.6971,-1.6842,-1.6863,-1.6971,-1.6842,-1.687,-1.6978,-1.6978,-1.6978,-1.6978,-1.6978,-1.6978,-1.6978,-1.6978,-1.6978,-1.6978,-1.6978,-1.6978,-1.7005,-1.7121,-1.7175,-1.7249,-1.7507,-1.7494,-1.7446,-1.7548,-1.7704,-1.7792,-1.767,-1.7738,-1.7826,-1.786,-1.7846,-1.7772,-1.7629,-1.7507,-1.7473,-1.7629,-1.765,-1.7704,-1.7846,-1.7758,-1.7684,-1.7684,-1.7575,-1.7487,-1.746,-1.746,-1.7446,-1.7419,-1.7277,-1.7195,-1.7195,-1.706,-1.6978,-1.6978,-1.6978,-1.6978,-1.6978,-1.6978,-1.6978,-1.6978,-1.6978,-1.6978,-0.2297,-0.2541,-0.2803,-0.3007,-0.3104,-0.3157,-0.3193,-0.3221,-0.325,-0.3276,-0.3306,-0.3326,-0.3326,-0.3457,-0.3582,-0.3681,-0.4661,-0.5964,-0.7335,-0.9246,-1.1368,-1.3686,-1.4856,-1.5815,-1.6873,-1.6978,-1.6978,-1.6978,-1.6978,-1.6978,-1.6978,-1.6978,-1.6978,-1.6978,-1.6978,-1.6978,-1.6978,-1.6978,-1.6978,-1.6978,-1.6842,-1.6781,-1.6775,-1.6646,-1.6727,-1.6978,-1.6978,-1.6978,-1.6978,-1.6958,-1.6965,-1.6978,-1.6958,-1.6965,-1.6978,-1.6978,-1.6978,-1.6978,-1.6978,-1.6978,-1.6978,-1.6978,-1.6978,-1.6978,-1.6978,-1.6978,-1.6985,-1.7005,-1.71,-1.7202,-1.7243,-1.7338,-1.7392,-1.7283,-1.7467,-1.767,-1.765,-1.7663,-1.7717,-1.7846,-1.7758,-1.7629,-1.7473,-1.7433,-1.7473,-1.7629,-1.765,-1.7704,-1.7846,-1.7846,-1.7826,-1.7826,-1.7812,-1.7758,-1.7629,-1.7616,-1.7561,-1.7433,-1.7277,-1.7195,-1.7195,-1.706,-1.6978,-1.6978,-1.6978,-1.6978,-1.6978,-1.6978,-1.6978,-1.6978,-1.6978,-1.6978,-0.2291,-0.2617,-0.2848,-0.3011,-0.3085,-0.313,-0.3178,-0.3198,-0.3215,-0.3245,-0.3261,-0.328,-0.3314,-0.3332,-0.3341,-0.3341,-0.4085,-0.4942,-0.6123,-0.7709,-0.9725,-1.2309,-1.3375,-1.4434,-1.592,-1.6026,-1.6131,-1.6453,-1.6236,-1.6131,-1.6453,-1.6236,-1.6236,-1.6453,-1.6453,-1.6663,-1.6978,-1.6978,-1.6937,-1.6849,-1.6781,-1.6707,-1.6625,-1.6639,-1.672,-1.6849,-1.6849,-1.6904,-1.6971,-1.689,-1.6904,-1.6971,-1.6883,-1.6904,-1.6978,-1.6978,-1.6978,-1.6978,-1.6978,-1.6978,-1.6978,-1.6978,-1.6978,-1.6978,-1.6978,-1.6978,-1.6978,-1.6978,-1.7026,-1.7093,-1.7168,-1.7182,-1.7175,-1.7188,-1.7297,-1.7419,-1.75,-1.765,-1.7792,-1.7846,-1.7758,-1.7629,-1.7561,-1.7473,-1.7473,-1.7629,-1.765,-1.7704,-1.7846,-1.786,-1.786,-1.786,-1.786,-1.7846,-1.7772,-1.7772,-1.7738,-1.767,-1.7528,-1.7446,-1.7446,-1.7304,-1.7229,-1.7229,-1.7066,-1.6978,-1.6978,-1.6978,-1.6978,-1.6978,-1.6978,-1.6978,-0.2342,-0.2628,-0.2807,-0.2958,-0.3024,-0.3067,-0.3129,-0.3155,-0.3174,-0.3202,-0.3215,-0.3234,-0.3279,-0.3299,-0.331,-0.331,-0.3628,-0.4265,-0.5128,-0.619,-0.7894,-1.0264,-1.1244,-1.2199,-1.3863,-1.4283,-1.4691,-1.529,-1.5179,-1.5081,-1.5388,-1.5179,-1.5081,-1.5388,-1.5603,-1.6132,-1.6863,-1.6863,-1.6809,-1.6693,-1.6653,-1.6598,-1.6524,-1.6605,-1.668,-1.6754,-1.6788,-1.6876,-1.6971,-1.6856,-1.6876,-1.6971,-1.6849,-1.6876,-1.6978,-1.6978,-1.6978,-1.6978,-1.6978,-1.6978,-1.6978,-1.6978,-1.6978,-1.6978,-1.6978,-1.6978,-1.6978,-1.6978,-1.7005,-1.706,-1.7161,-1.7141,-1.7121,-1.7222,-1.7283,-1.7338,-1.7453,-1.7684,-1.7846,-1.7812,-1.7717,-1.7629,-1.7595,-1.7494,-1.7473,-1.7629,-1.765,-1.7704,-1.7846,-1.786,-1.786,-1.786,-1.786,-1.786,-1.786,-1.786,-1.786,-1.786,-1.7717,-1.765,-1.765,-1.75,-1.7419,-1.7419,-1.7202,-1.7093,-1.7093,-1.7093,-1.7093,-1.7093,-1.7093,-1.7093,-0.2326,-0.2519,-0.265,-0.2803,-0.2883,-0.2942,-0.3002,-0.3061,-0.3111,-0.3141,-0.3171,-0.3191,-0.3194,-0.324,-0.3279,-0.3279,-0.3302,-0.3321,-0.3426,-0.4497,-0.5675,-0.6929,-0.8038,-0.9108,-1.0286,-1.1327,-1.2434,-1.3357,-1.3871,-1.3974,-1.3454,-1.3871,-1.3974,-1.3454,-1.4391,-1.5423,-1.6544,-1.6544,-1.6537,-1.653,-1.6395,-1.6402,-1.6517,-1.6388,-1.6483,-1.6761,-1.6904,-1.6971,-1.6978,-1.6971,-1.6971,-1.6978,-1.6971,-1.6971,-1.6978,-1.6978,-1.6978,-1.6978,-1.6978,-1.6978,-1.6978,-1.6978,-1.6978,-1.6978,-1.6978,-1.6978,-1.6978,-1.6978,-1.708,-1.7182,-1.7188,-1.7297,-1.7399,-1.7405,-1.7521,-1.7629,-1.7629,-1.7758,-1.7826,-1.7684,-1.765,-1.7602,-1.746,-1.7426,-1.7473,-1.7629,-1.765,-1.7704,-1.7846,-1.786,-1.786,-1.786,-1.786,-1.786,-1.786,-1.786,-1.786,-1.786,-1.7717,-1.765,-1.765,-1.75,-1.7419,-1.7419,-1.7405,-1.7399,-1.7399,-1.7399,-1.7399,-1.7399,-1.7399,-1.7399,-0.1907,-0.2233,-0.251,-0.2604,-0.2716,-0.2822,-0.2904,-0.2983,-0.3059,-0.3129,-0.3152,-0.3165,-0.3185,-0.322,-0.3246,-0.3246,-0.3255,-0.3276,-0.3315,-0.3955,-0.492,-0.6135,-0.6974,-0.7898,-0.8922,-1.002,-1.1212,-1.2713,-1.2924,-1.2961,-1.2818,-1.2554,-1.2446,-1.2305,-1.2967,-1.4065,-1.55,-1.5808,-1.5966,-1.5874,-1.6219,-1.6422,-1.6388,-1.653,-1.6653,-1.6761,-1.691,-1.6978,-1.6978,-1.6978,-1.6978,-1.6978,-1.6978,-1.6978,-1.6978,-1.6978,-1.6978,-1.6978,-1.6978,-1.6978,-1.6978,-1.6978,-1.6978,-1.6978,-1.6978,-1.6978,-1.6978,-1.6978,-1.708,-1.7195,-1.7195,-1.7304,-1.7446,-1.7541,-1.7609,-1.767,-1.7772,-1.7826,-1.7846,-1.7792,-1.7792,-1.7772,-1.7724,-1.7704,-1.7724,-1.7772,-1.7792,-1.7812,-1.786,-1.786,-1.786,-1.786,-1.786,-1.786,-1.786,-1.786,-1.786,-1.786,-1.7812,-1.7565,-1.7242,-1.7189,-1.695,-1.6608,-1.6608,-1.6846,-1.7419,-1.7419,-1.7419,-1.7419,-1.7419,-1.7419,-0.1619,-0.1975,-0.2365,-0.2436,-0.2544,-0.2658,-0.2759,-0.286,-0.2957,-0.3048,-0.3091,-0.3125,-0.3165,-0.3197,-0.3219,-0.3228,-0.3239,-0.326,-0.33,-0.3635,-0.4188,-0.5084,-0.5393,-0.5895,-0.6695,-0.8006,-0.9605,-1.1376,-1.1925,-1.1979,-1.1625,-1.1194,-1.088,-1.0493,-1.1227,-1.2298,-1.3729,-1.444,-1.493,-1.5189,-1.6097,-1.6449,-1.6463,-1.6659,-1.6781,-1.6836,-1.6937,-1.6978,-1.6978,-1.6978,-1.6978,-1.6978,-1.6978,-1.6978,-1.6978,-1.6978,-1.6978,-1.6978,-1.6978,-1.6978,-1.6978,-1.6978,-1.6978,-1.6992,-1.7039,-1.7053,-1.706,-1.7114,-1.7229,-1.7344,-1.7344,-1.7453,-1.7595,-1.7704,-1.7717,-1.7738,-1.7846,-1.786,-1.786,-1.786,-1.786,-1.786,-1.786,-1.786,-1.786,-1.786,-1.786,-1.786,-1.786,-1.786,-1.786,-1.786,-1.786,-1.786,-1.786,-1.786,-1.786,-1.786,-1.786,-1.7652,-1.6988,-1.6416,-1.5862,-1.5197,-1.4631,-1.4558,-1.5155,-1.6365,-1.6916,-1.6916,-1.6916,-1.6916,0.0,0.0,0.0,-0.2303,-0.2371,-0.2448,-0.2567,-0.269,-0.2804,-0.2896,-0.2986,-0.3069,-0.3131,-0.3167,-0.3197,-0.3225,-0.3255,-0.3276,-0.3277,-0.3329,-0.3367,-0.3367,-0.3393,-0.3388,-0.3328,-0.5187,-0.7405,-0.948,-1.0775,-1.0936,-0.9702,-0.9787,-0.9281,-0.8072,-0.9105,-1.0162,-1.1173,-1.2263,-1.3429,-1.4684,-1.5708,-1.6368,-1.6644,-1.6651,-1.6732,-1.6978,-1.6978,-1.6978,-1.6978,-1.6978,-1.6978,-1.6978,-1.6978,-1.6978,-1.6978,-1.6978,-1.6978,-1.6978,-1.6978,-1.6978,-1.6978,-1.6978,-1.6985,-1.7012,-1.7148,-1.7195,-1.7229,-1.7378,-1.7534,-1.765,-1.765,-1.7758,-1.786,-1.786,-1.786,-1.786,-1.786,-1.786,-1.786,-1.786,-1.786,-1.786,-1.786,-1.786,-1.786,-1.786,-1.786,-1.786,-1.786,-1.786,-1.786,-1.786,-1.788,-1.788,-1.786,-1.786,-1.786,-1.786,-1.786,-1.7535,-1.6871,-1.5185,-1.3954,-1.3288,-1.151,-1.0619,-1.0619,-1.4192,-1.5979,-1.5979,-1.5979,-1.5979,-0.1132,0.0,0.0,0.0,0.0,0.0,-0.239,-0.2551,-0.2717,-0.283,-0.2924,-0.3018,-0.3123,-0.3149,-0.3172,-0.3223,-0.3255,-0.3283,-0.3306,-0.3341,-0.3374,-0.3397,-0.3388,-0.3373,-0.3355,-0.4998,-0.6931,-0.9144,-0.9581,-0.9621,-0.9258,-0.7783,-0.6914,-0.6953,-0.7998,-0.8862,-0.9569,-1.0968,-1.213,-1.2957,-1.4578,-1.5333,-1.5509,-1.5603,-1.5672,-1.5815,-1.6131,-1.6341,-1.6341,-1.6768,-1.6978,-1.6978,-1.6978,-1.6978,-1.6978,-1.6978,-1.6978,-1.6978,-1.6978,-1.6978,-1.6978,-1.6978,-1.7053,-1.7141,-1.7182,-1.727,-1.7365,-1.7405,-1.7534,-1.767,-1.7772,-1.7826,-1.786,-1.786,-1.786,-1.786,-1.786,-1.786,-1.786,-1.786,-1.786,-1.786,-1.786,-1.786,-1.786,-1.786,-1.786,-1.7749,-1.7307,-1.7301,-1.7235,-1.6789,-1.6777,-1.6902,-1.6696,-1.6696,-1.6646,-1.6545,-1.6643,-1.5979,-1.442,-1.3526,-1.2298,-1.0854,-0.9962,-0.9512,-0.9512,-1.1296,-1.2186,-1.2186,-1.2186,-1.2186,0.0,0.0,0.0,0.0,0.0,0.0,-0.2264,-0.2421,-0.2585,-0.2694,-0.2797,-0.2901,-0.301,-0.304,-0.3063,-0.3111,-0.3165,-0.323,-0.331,-0.3347,-0.3378,-0.3408,-0.3396,-0.3381,-0.3367,-0.4605,-0.6143,-0.787,-0.8317,-0.8261,-0.7805,-0.5843,-0.4862,-0.5145,-0.5787,-0.645,-0.7157,-0.8561,-0.9726,-1.067,-1.2067,-1.29,-1.3069,-1.3132,-1.348,-1.3907,-1.475,-1.5283,-1.5815,-1.6663,-1.6978,-1.6978,-1.6978,-1.6978,-1.6978,-1.6978,-1.6978,-1.6978,-1.6978,-1.6978,-1.6978,-1.6978,-1.7073,-1.7202,-1.727,-1.7392,-1.7528,-1.7589,-1.767,-1.7758,-1.7846,-1.786,-1.786,-1.786,-1.786,-1.786,-1.7542,-1.7535,-1.7652,-1.786,-1.786,-1.786,-1.786,-1.7914,-1.7948,-1.7948,-1.8023,-1.7827,-1.7268,-1.6546,-1.5913,-1.5236,-1.45,-1.4067,-1.3999,-1.3983,-1.3957,-1.3889,-1.3889,-1.3318,-1.1974,-1.0928,-0.9671,-0.8447,-0.7295,-0.6724,-0.6724,-0.895,-0.9954,-0.9954,-0.9954,-0.9954,-0.0864,0.0,0.0,0.0,-0.1993,0.0,-0.2168,-0.2296,-0.2429,-0.2517,-0.263,-0.2742,-0.2831,-0.287,-0.2896,-0.2927,-0.3009,-0.3122,-0.3279,-0.3336,-0.3373,-0.3403,-0.341,-0.3401,-0.3374,-0.4317,-0.535,-0.6343,-0.7017,-0.6863,-0.5855,-0.4195,-0.3326,-0.3326,-0.327,-0.3747,-0.4756,-0.5762,-0.693,-0.8083,-0.9216,-0.982,-0.9984,-0.9984,-1.0623,-1.1685,-1.2842,-1.4007,-1.5072,-1.6341,-1.6873,-1.6978,-1.6978,-1.6978,-1.6978,-1.6978,-1.6978,-1.6978,-1.6978,-1.6978,-1.6978,-1.6978,-1.7087,-1.7243,-1.7378,-1.7541,-1.7704,-1.7826,-1.786,-1.786,-1.786,-1.786,-1.786,-1.786,-1.786,-1.7749,-1.7099,-1.6871,-1.6871,-1.7424,-1.7749,-1.7749,-1.7749,-1.7871,-1.7958,-1.7847,-1.7967,-1.7835,-1.7035,-1.5458,-1.4103,-1.3305,-1.1706,-1.0677,-1.0669,-1.0669,-1.0657,-1.0646,-1.0646,-1.0311,-0.9629,-0.7971,-0.6811,-0.6126,-0.4505,-0.3589,-0.3589,-0.6836,-0.8396,-0.8396,-0.8396,-0.8396,-0.0556,-0.105,-0.1546,-0.1611,0.0,0.0,-0.2052,-0.2172,-0.2227,-0.2364,-0.2473,-0.2585,-0.2675,-0.2695,-0.2709,-0.274,-0.2822,-0.295,-0.3149,-0.3265,-0.3341,-0.3371,-0.3397,-0.341,-0.3403,-0.4039,-0.4884,-0.6039,-0.6261,-0.5846,-0.4687,-0.3799,-0.3358,-0.3358,-0.3322,-0.3613,-0.4232,-0.5258,-0.6218,-0.7014,-0.8059,-0.8734,-0.8823,-0.8823,-0.9246,-0.9996,-1.1579,-1.2636,-1.338,-1.4967,-1.6131,-1.6978,-1.6978,-1.6978,-1.6978,-1.6978,-1.6978,-1.6978,-1.6978,-1.6978,-1.6978,-1.6978,-1.7161,-1.7385,-1.7412,-1.7609,-1.7826,-1.786,-1.786,-1.786,-1.786,-1.786,-1.786,-1.786,-1.786,-1.7749,-1.7099,-1.5862,-1.4975,-1.5634,-1.6533,-1.6988,-1.6533,-1.689,-1.702,-1.6577,-1.6578,-1.6115,-1.4515,-1.3652,-1.2617,-1.1003,-1.0139,-0.9688,-0.9498,-0.9498,-0.947,-0.9407,-0.94,-0.8832,-0.7805,-0.6997,-0.6054,-0.4887,-0.4055,-0.3589,-0.3589,-0.4259,-0.4709,-0.4709,-0.4709,-0.4709,-0.0442,-0.0758,-0.1071,-0.1439,0.0,0.0,0.0,-0.2113,-0.2213,-0.2258,-0.235,-0.2442,-0.2502,-0.2525,-0.2541,-0.2556,-0.2646,-0.2763,-0.29,-0.31,-0.3265,-0.3355,-0.338,-0.3395,-0.3411,-0.3624,-0.405,-0.4687,-0.4687,-0.4474,-0.3837,-0.3594,-0.3366,-0.3366,-0.3337,-0.3425,-0.3736,-0.4253,-0.4688,-0.5043,-0.5568,-0.5912,-0.5959,-0.5959,-0.6387,-0.7343,-0.8717,-0.9878,-1.0729,-1.2209,-1.3053,-1.3797,-1.5493,-1.6131,-1.6131,-1.6131,-1.6131,-1.6131,-1.6131,-1.6131,-1.6144,-1.6215,-1.6382,-1.6569,-1.6965,-1.7252,-1.7424,-1.708,-1.6969,-1.6969,-1.6969,-1.6969,-1.6969,-1.6969,-1.6969,-1.6643,-1.5424,-1.4309,-1.3303,-1.2975,-1.3981,-1.4969,-1.5541,-1.57,-1.5518,-1.4948,-1.4204,-1.328,-1.2031,-1.0888,-0.9695,-0.8529,-0.7275,-0.6582,-0.6551,-0.6551,-0.6422,-0.6396,-0.6392,-0.6164,-0.5581,-0.5217,-0.4726,-0.4118,-0.3756,-0.3628,-0.3611,-0.3611,-0.3604,-0.3589,-0.3589,-0.3589,0.0,0.0,0.0,0.0,0.0,-0.1599,0.0,0.0,0.0,-0.2159,-0.2226,-0.2289,-0.2313,-0.2342,-0.2363,-0.2363,-0.2467,-0.2572,-0.2641,-0.2879,-0.3112,-0.3285,-0.3321,-0.3347,-0.3382,-0.339,-0.3395,-0.3395,-0.3395,-0.3397,-0.3403,-0.3385,-0.3375,-0.3375,-0.3351,-0.3339,-0.3339,-0.3339,-0.3351,-0.3375,-0.3375,-0.3388,-0.3412,-0.3412,-0.3944,-0.5009,-0.6172,-0.7231,-0.8292,-0.9455,-0.9878,-1.0196,-1.3164,-1.4329,-1.4329,-1.4329,-1.4329,-1.4329,-1.4329,-1.4346,-1.4381,-1.449,-1.4842,-1.5536,-1.6222,-1.6451,-1.6317,-1.5751,-1.5313,-1.5086,-1.5086,-1.5086,-1.5086,-1.5086,-1.5086,-1.4631,-1.3076,-1.2071,-1.1184,-1.0412,-1.0854,-1.2071,-1.397,-1.4167,-1.3873,-1.2976,-1.1663,-1.0506,-0.9819,-0.8266,-0.7026,-0.6322,-0.4811,-0.3761,-0.3761,-0.3768,-0.3772,-0.3772,-0.3772,-0.3772,-0.3772,-0.3744,-0.3715,-0.3692,-0.3677,-0.366,-0.3636,-0.3628,-0.3614,-0.3589,-0.3589,-0.3589,0.0,0.0,0.0,0.0,-0.1085,0.0,0.0,0.0,-0.2035,-0.2038,0.0,-0.2095,-0.2165,0.0,0.0,-0.2144,-0.2267,-0.2394,-0.2482,-0.2615,-0.2799,-0.3056,-0.3159,-0.323,-0.3285,-0.3315,-0.3332,-0.3332,-0.3332,-0.3343,-0.337,-0.3395,-0.3407,-0.3407,-0.3403,-0.3401,-0.3401,-0.3401,-0.3403,-0.3407,-0.3407,-0.3408,-0.3412,-0.3412,-0.373,-0.4474,-0.5643,-0.6387,-0.7128,-0.8186,-0.8717,-0.8823,-1.0196,-1.083,-1.083,-1.083,-1.083,-1.083,-1.083,-1.078,-1.0746,-1.0755,-1.2394,-1.4447,-1.5139,-1.5068,-1.452,-1.3854,-1.2511,-1.1283,-1.1283,-1.1283,-1.1283,-1.1283,-1.1283,-1.1069,-1.0392,-0.895,-0.7946,-0.8293,-0.8067,-0.851,-1.0862,-1.2093,-1.221,-1.0536,-0.9711,-0.8977,-0.7843,-0.6989,-0.6105,-0.4956,-0.4176,-0.373,-0.373,-0.3757,-0.3772,-0.3772,-0.3772,-0.3772,-0.3772,-0.3744,-0.3726,-0.3723,-0.3667,-0.3639,-0.3636,-0.3607,-0.3594,-0.3589,-0.3589,-0.3589,0.0,0.0,0.0,0.0,0.0,0.0,-0.1383,0.0,-0.1807,0.0,0.0,0.0,0.0,0.0,0.0,0.0,-0.2218,-0.2307,-0.238,-0.2463,-0.2617,-0.289,-0.3002,-0.3101,-0.3215,-0.3251,-0.3268,-0.3268,-0.3268,-0.329,-0.3337,-0.3385,-0.3412,-0.3412,-0.3412,-0.3412,-0.3412,-0.3412,-0.3412,-0.3412,-0.3412,-0.3412,-0.3412,-0.3412,-0.3517,-0.3837,-0.4263,-0.4581,-0.49,-0.5324,-0.5536,-0.5536,-0.6066,-0.7444,-0.9243,-0.9243,-0.9243,-0.9243,-0.9243,-0.9192,-0.9383,-0.9806,-1.1339,-1.3122,-1.2738,-1.2864,-1.2965,-1.1732,-1.0516,-0.9739,-0.9739,-0.9739,-0.9739,-0.9739,-0.9739,-0.94,-0.8507,-0.7393,-0.6612,-0.65,-0.6612,-0.6836,-0.7505,-0.8622,-0.9062,-0.7955,-0.677,-0.5673,-0.5223,-0.5034,-0.4712,-0.4141,-0.3825,-0.3726,-0.3726,-0.3754,-0.3772,-0.3772,-0.3772,-0.3772,-0.3772,-0.3757,-0.3754,-0.3754,-0.3708,-0.3681,-0.3663,-0.3632,-0.3618,-0.3614,-0.3596,-0.3589,0.0,0.0,0.0,0.0,0.0,0.0,0.0,0.0,0.0,0.0,0.0,0.0,0.0,0.0,0.0,0.0,0.0,-0.2187,-0.2292,-0.2342,-0.2466,-0.2713,-0.2851,-0.2972,-0.3091,-0.3135,-0.316,-0.3168,-0.317,-0.3202,-0.328,-0.335,-0.339,-0.3399,-0.3408,-0.3412,-0.3412,-0.3412,-0.3412,-0.3412,-0.3412,-0.3412,-0.3412,-0.3412,-0.3412,-0.3412,-0.3412,-0.3412,-0.3412,-0.3412,-0.3412,-0.3412,-0.3412,-0.4898,-0.7128,-0.7128,-0.7128,-0.7128,-0.7128,-0.7179,-0.7376,-0.8274,-0.9691,-1.0854,-1.0189,-1.0528,-1.0743,-0.9289,-0.8284,-0.7505,-0.7505,-0.7505,-0.7505,-0.7505,-0.7505,-0.7281,-0.6388,-0.5826,-0.5383,-0.5045,-0.5271,-0.5383,-0.4933,-0.605,-0.6724,-0.5938,-0.451,-0.3621,-0.3621,-0.3643,-0.3656,-0.3656,-0.3684,-0.3701,-0.3701,-0.373,-0.3748,-0.3748,-0.3748,-0.3748,-0.3748,-0.3748,-0.3748,-0.3748,-0.3715,-0.3692,-0.3667,-0.3639,-0.3628,-0.3636,-0.3614,-0.3604,0.0,0.0,0.0,0.0,0.0,0.0,0.0,0.0,-0.1032,0.0,0.0,0.0,0.0,0.0,0.0,0.0,0.0,0.0,0.0,-0.2232,-0.2246,-0.2503,-0.2707,-0.2846,-0.2881,-0.2936,-0.2983,-0.3011,-0.3014,-0.3066,-0.3186,-0.3276,-0.3337,-0.3367,-0.3396,-0.3412,-0.3412,-0.3412,-0.3412,-0.3412,-0.3412,-0.3412,-0.3412,-0.3412,-0.3412,-0.3412,-0.3412,-0.3412,-0.3412,-0.3412,-0.3412,-0.3412,-0.3412,-0.3517,-0.3517,-0.3517,-0.3517,-0.3517,-0.3517,-0.3558,-0.3839,-0.5127,-0.6388,-0.7505,-0.8067,-0.7843,-0.7281,-0.6612,-0.5157,-0.3814,-0.3814,-0.3814,-0.3814,-0.3814,-0.3814,-0.3814,-0.3702,-0.3702,-0.3702,-0.3702,-0.3702,-0.3702,-0.3702,-0.5157,-0.5938,-0.4712,-0.4039,-0.3589,-0.3589,-0.3594,-0.3594,-0.3594,-0.3621,-0.3639,-0.3639,-0.3667,-0.3684,-0.3684,-0.3684,-0.3684,-0.3684,-0.3684,-0.3684,-0.3684,-0.3652,-0.3639,-0.3636,-0.3607,-0.3607,-0.3636,-0.3636,-0.3636,0.0,0.0,0.0,0.0,0.0,0.0,0.0,0.0,0.0,0.0,0.0,0.0,0.0,0.0,0.0,0.0,0.0,0.0,0.0,0.0,-0.2245,-0.2327,-0.2522,-0.2677,-0.2747,-0.2808,-0.2848,-0.2857,-0.2878,-0.2942,-0.3062,-0.319,-0.3284,-0.3335,-0.3385,-0.3412,-0.3412,-0.3412,-0.3412,-0.3412,-0.3412,-0.3412,-0.3412,-0.3412,-0.3412,-0.3412,-0.3412,-0.3412,-0.3412,-0.3412,-0.3412,-0.3412,-0.3412,-0.3412,-0.3412,-0.3412,-0.3412,-0.3418,-0.3457,-0.3486,-0.3623,-0.4574,-0.5607,-0.6612,-0.6388,-0.65,-0.6388,-0.5383,-0.4376,-0.3589,-0.3589,-0.3589,-0.3589,-0.3589,-0.3589,-0.3589,-0.3589,-0.3589,-0.3589,-0.3589,-0.3589,-0.3589,-0.3589,-0.4152,-0.4373,-0.3927,-0.3702,-0.3589,-0.3589,-0.3589,-0.3589,-0.3589,-0.3618,-0.3636,-0.3636,-0.3663,-0.3681,-0.3681,-0.3681,-0.3681,-0.3681,-0.3681,-0.3681,-0.3681,-0.3649,-0.3636,-0.3636,-0.3625,-0.3636,-0.3667,-0.3688,-0.3684,0.0,0.0,0.0,0.0,0.0,0.0,-0.0289,0.0,0.0,0.0,0.0,0.0,0.0,0.0,0.0,0.0,0.0,0.0,0.0,-0.2174,0.0,0.0,0.0,0.0,-0.259,-0.2652,-0.2697,-0.2717,-0.2728,-0.2799,-0.2951,-0.3091,-0.3204,-0.3285,-0.3369,-0.3412,-0.3412,-0.3412,-0.3412,-0.3412,-0.3412,-0.3412,-0.3412,-0.3412,-0.3412,-0.3412,-0.3412,-0.3412,-0.3412,-0.3412,-0.3412,-0.3412,-0.3412,-0.3412,-0.3412,-0.3412,-0.3419,-0.3435,-0.3484,-0.3509,-0.3527,-0.402,-0.4709,-0.5271,-0.4933,-0.5045,-0.5157,-0.4376,-0.3927,-0.3589,-0.3589,-0.3589,-0.3589,-0.3589,-0.3589,-0.3589,-0.3589,-0.3589,-0.3589,-0.3589,-0.3589,-0.3589,-0.3589,-0.3589,-0.3589,-0.3589,-0.3589,-0.3594,-0.3604,-0.3607,-0.3611,-0.3621,-0.3639,-0.3645,-0.3636,-0.3652,-0.366,-0.3649,-0.3649,-0.3649,-0.3649,-0.3649,-0.3649,-0.3649,-0.3628,-0.3618,-0.3618,-0.3628,-0.3649,-0.3681,-0.3712,-0.3723]},{"header":{"parameterUnit":"m.s-1","parameterCategory":1,"la1":30.6,"la2":29.2853,"lo1":-89.7004,"lo2":-87.6739,"dy":0.0162,"dx":0.0183,"nx":112,"ny":82,"refTime":"2026-03-25T00:00:00:Z","depth":0,"parameterNumber":3,"parameterNumberName":"V-component_of_WINDS"},"data":[0.0,0.0,0.0,0.0,0.0,0.0,0.0,0.0,0.0,0.0,0.0,0.0,0.0,0.0,0.0,0.0,0.0,0.0,0.0,0.0,0.0,0.0,0.0,0.0,0.0,0.0,0.0,0.0,0.0,0.0,0.0,0.0,0.0,0.0,0.0,0.0,0.0,0.0,0.0,0.0,0.0,0.0,0.0,0.0,0.0,0.0,0.0,0.0,0.0,0.0,0.0,0.0,0.0,0.0,0.0,0.0,0.0,0.0,0.0,0.0,0.0,0.0,0.0,0.0,0.0,0.0,0.0,0.0,0.0,0.0,0.0,0.0,0.0,0.0,0.0,0.0,0.0,0.0,0.0,0.0,0.0,0.0,0.0,0.0,0.0,0.0,0.0,0.0,0.0,0.0,3.6699,4.0725,4.5272,4.7489,4.6299,4.4093,4.1557,3.8796,0.0,0.0,0.0,0.0,0.0,0.0,0.0,0.0,0.0,0.0,0.0,0.0,0.0,0.0,0.0,0.0,0.0,0.0,0.0,0.0,0.0,0.0,0.0,0.0,0.0,0.0,0.0,0.0,0.0,0.0,0.0,0.0,0.0,0.0,0.0,0.0,0.0,0.0,0.0,0.0,0.0,0.0,0.0,0.0,0.0,0.0,0.0,0.0,0.0,0.0,0.0,0.0,0.0,0.0,0.0,0.0,0.0,0.0,0.0,0.0,0.0,0.0,0.0,0.0,0.0,0.0,0.0,0.0,0.0,0.0,0.0,0.0,0.0,0.0,0.0,0.0,0.0,0.0,0.0,0.0,0.0,0.0,0.0,0.0,0.0,0.0,0.0,0.0,0.0,0.0,0.0,0.0,0.0,0.0,0.0,0.0,0.0,0.0,0.0,0.0,0.0,0.0,0.0,0.0,3.8935,4.3561,4.5884,4.6355,4.4531,4.3527,4.157,3.809,0.0,0.0,0.0,0.0,0.0,0.0,0.0,0.0,0.0,0.0,0.0,0.0,0.0,0.0,0.0,0.0,0.0,0.0,0.0,0.0,0.0,0.0,0.0,0.0,0.0,0.0,0.0,0.0,0.0,0.0,0.0,0.0,0.0,0.0,0.0,0.0,0.0,0.0,0.0,0.0,0.0,0.0,0.0,0.0,0.0,0.0,0.0,0.0,0.0,0.0,0.0,0.0,0.0,0.0,0.0,0.0,0.0,0.0,0.0,0.0,0.0,0.0,0.0,0.0,0.0,0.0,0.0,0.0,0.0,0.0,0.0,0.0,0.0,0.0,0.0,0.0,0.0,0.0,0.0,0.0,0.0,0.0,0.0,0.0,0.0,0.0,0.0,0.0,0.0,0.0,0.0,0.0,0.0,0.0,0.0,0.0,0.0,0.0,0.0,0.0,0.0,0.0,0.0,3.8489,4.193,4.5046,4.6745,4.716,4.5999,4.4639,4.2456,3.9082,3.6468,0.0,0.0,0.0,0.0,0.0,0.0,0.0,0.0,0.0,0.0,0.0,0.0,0.0,0.0,0.0,0.0,0.0,0.0,0.0,0.0,0.0,0.0,0.0,0.0,0.0,0.0,0.0,0.0,0.0,0.0,0.0,0.0,0.0,0.0,0.0,0.0,0.0,0.0,0.0,0.0,0.0,0.0,0.0,0.0,0.0,0.0,0.0,0.0,0.0,0.0,0.0,0.0,0.0,0.0,0.0,0.0,0.0,0.0,0.0,0.0,0.0,0.0,0.0,0.0,0.0,0.0,0.0,0.0,0.0,0.0,0.0,0.0,0.0,0.0,0.0,0.0,0.0,0.0,0.0,0.0,0.0,0.0,0.0,0.0,0.0,0.0,0.0,0.0,0.0,0.0,0.0,0.0,0.0,0.0,0.0,0.0,0.0,0.0,0.0,0.0,0.0,0.0,4.1407,4.4337,4.6133,4.7317,4.7704,4.6954,4.5277,4.2958,3.9907,3.7745,0.0,0.0,0.0,0.0,0.0,0.0,0.0,0.0,0.0,0.0,0.0,0.0,0.0,0.0,0.0,0.0,0.0,0.0,0.0,0.0,0.0,0.0,0.0,0.0,0.0,0.0,0.0,0.0,0.0,0.0,0.0,0.0,0.0,0.0,0.0,0.0,0.0,0.0,0.0,0.0,0.0,0.0,0.0,0.0,0.0,0.0,0.0,0.0,0.0,0.0,0.0,0.0,0.0,0.0,0.0,0.0,0.0,0.0,0.0,0.0,0.0,0.0,0.0,0.0,0.0,0.0,0.0,0.0,0.0,0.0,0.0,0.0,0.0,0.0,0.0,0.0,0.0,0.0,0.0,0.0,0.0,0.0,0.0,0.0,0.0,0.0,0.0,0.0,0.0,0.0,0.0,0.0,0.0,0.0,0.0,0.0,0.0,0.0,0.0,0.0,0.0,0.0,4.2853,4.5078,4.7007,4.7395,4.6871,4.5215,4.4129,4.2302,3.9354,3.7307,0.0,0.0,0.0,0.0,0.0,0.0,0.0,0.0,0.0,0.0,0.0,0.0,0.0,0.0,0.0,0.0,0.0,0.0,0.0,0.0,0.0,0.0,0.0,0.0,0.0,0.0,0.0,0.0,0.0,0.0,0.0,0.0,0.0,0.0,0.0,0.0,0.0,0.0,0.0,0.0,0.0,0.0,0.0,0.0,0.0,0.0,0.0,0.0,0.0,0.0,0.0,0.0,0.0,0.0,0.0,0.0,0.0,0.0,0.0,0.0,0.0,0.0,0.0,0.0,0.0,0.0,0.0,0.0,0.0,0.0,0.0,0.0,0.0,0.0,0.0,0.0,0.0,0.0,0.0,0.0,0.0,0.0,0.0,0.0,0.0,0.0,0.0,0.0,0.0,0.0,0.0,0.0,0.0,0.0,0.0,0.0,0.0,0.0,0.0,0.0,0.0,0.0,4.395,4.6198,0.0,4.7698,4.6889,4.5968,4.3748,4.1383,3.9068,0.0,0.0,0.0,0.0,0.0,0.0,0.0,0.0,0.0,0.0,0.0,0.0,0.0,0.0,0.0,0.0,0.0,0.0,0.0,0.0,0.0,0.0,0.0,0.0,0.0,0.0,0.0,0.0,0.0,0.0,0.0,0.0,0.0,0.0,0.0,0.0,0.0,0.0,0.0,0.0,0.0,0.0,0.0,0.0,0.0,0.0,0.0,0.0,0.0,0.0,0.0,0.0,0.0,0.0,0.0,0.0,0.0,0.0,0.0,0.0,0.0,0.0,0.0,0.0,0.0,0.0,0.0,0.0,0.0,0.0,0.0,0.0,0.0,0.0,0.0,0.0,0.0,0.0,0.0,0.0,0.0,0.0,0.0,0.0,0.0,0.0,0.0,0.0,0.0,0.0,0.0,0.0,0.0,0.0,0.0,0.0,0.0,0.0,0.0,0.0,0.0,0.0,4.2384,4.5033,4.7314,0.0,4.827,4.7342,4.6424,4.3651,4.0987,3.8734,0.0,0.0,0.0,0.0,0.0,0.0,0.0,0.0,0.0,0.0,0.0,0.0,0.0,0.0,0.0,0.0,0.0,0.0,0.0,0.0,0.0,0.0,0.0,0.0,0.0,0.0,0.0,0.0,0.0,0.0,0.0,0.0,0.0,0.0,0.0,0.0,0.0,0.0,0.0,0.0,0.0,0.0,0.0,0.0,0.0,0.0,0.0,0.0,0.0,0.0,0.0,0.0,0.0,0.0,0.0,0.0,0.0,0.0,0.0,0.0,0.0,0.0,0.0,0.0,0.0,0.0,0.0,0.0,0.0,0.0,0.0,0.0,0.0,0.0,0.0,0.0,0.0,0.0,0.0,0.0,0.0,0.0,0.0,0.0,0.0,0.0,0.0,0.0,0.0,0.0,0.0,0.0,0.0,0.0,0.0,0.0,0.0,0.0,0.0,0.0,0.0,0.0,4.317,4.6011,4.834,4.9678,4.9272,4.8091,4.622,4.3857,4.1281,0.0,0.0,0.0,0.0,0.0,0.0,0.0,0.0,0.0,0.0,0.0,0.0,0.0,0.0,0.0,0.0,0.0,0.0,0.0,0.0,0.0,0.0,0.0,0.0,0.0,0.0,0.0,0.0,0.0,0.0,0.0,0.0,0.0,0.0,0.0,0.0,0.0,0.0,0.0,0.0,0.0,0.0,0.0,0.0,0.0,0.0,0.0,0.0,0.0,0.0,0.0,0.0,0.0,0.0,0.0,0.0,0.0,0.0,0.0,0.0,0.0,0.0,0.0,0.0,0.0,0.0,0.0,0.0,0.0,0.0,0.0,0.0,0.0,0.0,0.0,0.0,0.0,0.0,0.0,0.0,0.0,0.0,0.0,0.0,0.0,0.0,0.0,0.0,0.0,0.0,0.0,0.0,0.0,0.0,0.0,0.0,0.0,0.0,0.0,0.0,0.0,0.0,0.0,4.4331,4.7131,4.9404,5.1047,4.9928,4.8795,4.8029,4.5098,4.227,3.9885,0.0,0.0,0.0,0.0,0.0,0.0,0.0,0.0,0.0,0.0,0.0,0.0,0.0,0.0,0.0,0.0,0.0,0.0,0.0,0.0,0.0,0.0,0.0,0.0,0.0,0.0,0.0,0.0,0.0,0.0,0.0,0.0,0.0,0.0,0.0,0.0,0.0,0.0,0.0,0.0,0.0,0.0,0.0,0.0,0.0,0.0,0.0,0.0,0.0,0.0,0.0,0.0,0.0,0.0,0.0,0.0,0.0,0.0,0.0,0.0,0.0,0.0,0.0,0.0,0.0,0.0,0.0,0.0,0.0,0.0,0.0,0.0,0.0,0.0,0.0,0.0,0.0,0.0,0.0,0.0,0.0,0.0,0.0,0.0,0.0,0.0,0.0,0.0,0.0,0.0,0.0,0.0,0.0,0.0,0.0,0.0,0.0,0.0,0.0,0.0,0.0,0.0,4.5131,4.8067,5.0406,5.2032,5.1069,4.9948,4.9194,4.6371,4.3606,4.1089,0.0,0.0,0.0,0.0,0.0,0.0,0.0,0.0,0.0,0.0,0.0,0.0,0.0,0.0,0.0,0.0,0.0,0.0,0.0,0.0,0.0,0.0,0.0,0.0,0.0,0.0,0.0,0.0,0.0,0.0,0.0,0.0,0.0,0.0,0.0,0.0,0.0,0.0,0.0,0.0,0.0,0.0,0.0,0.0,0.0,0.0,0.0,0.0,0.0,0.0,0.0,0.0,0.0,0.0,0.0,0.0,0.0,0.0,0.0,0.0,0.0,0.0,0.0,0.0,0.0,0.0,0.0,0.0,0.0,0.0,0.0,0.0,0.0,0.0,0.0,0.0,0.0,0.0,0.0,0.0,0.0,0.0,0.0,0.0,0.0,0.0,0.0,0.0,0.0,0.0,0.0,0.0,0.0,0.0,0.0,0.0,0.0,0.0,0.0,0.0,0.0,0.0,4.5557,4.8788,5.1296,5.267,5.2268,5.1296,4.9989,4.7843,4.5269,4.2278,0.0,0.0,0.0,0.0,0.0,0.0,0.0,0.0,0.0,0.0,0.0,0.0,0.0,0.0,0.0,0.0,0.0,0.0,0.0,0.0,0.0,0.0,0.0,0.0,0.0,0.0,0.0,0.0,0.0,0.0,0.0,0.0,0.0,0.0,0.0,0.0,0.0,0.0,0.0,0.0,0.0,0.0,0.0,0.0,0.0,0.0,0.0,0.0,0.0,0.0,0.0,0.0,0.0,0.0,0.0,0.0,0.0,0.0,0.0,0.0,4.7404,4.4976,0.0,0.0,0.0,0.0,0.0,0.0,0.0,0.0,0.0,0.0,0.0,0.0,0.0,0.0,0.0,0.0,0.0,0.0,0.0,0.0,0.0,0.0,0.0,0.0,0.0,0.0,0.0,0.0,0.0,0.0,0.0,0.0,0.0,0.0,0.0,0.0,0.0,0.0,0.0,0.0,4.5081,4.8767,5.1425,5.2302,5.2302,5.2099,5.1762,4.9702,4.7402,4.5003,4.1497,0.0,0.0,0.0,0.0,0.0,0.0,0.0,0.0,0.0,0.0,0.0,0.0,0.0,0.0,0.0,0.0,0.0,0.0,0.0,0.0,0.0,0.0,0.0,0.0,0.0,0.0,0.0,0.0,0.0,0.0,0.0,0.0,0.0,0.0,0.0,0.0,0.0,0.0,0.0,0.0,0.0,0.0,0.0,0.0,0.0,0.0,0.0,0.0,0.0,0.0,0.0,0.0,0.0,0.0,0.0,0.0,0.0,0.0,0.0,5.1694,4.9007,0.0,0.0,0.0,0.0,0.0,0.0,0.0,0.0,0.0,0.0,0.0,0.0,0.0,0.0,0.0,0.0,0.0,0.0,0.0,0.0,0.0,0.0,0.0,0.0,0.0,0.0,0.0,0.0,0.0,0.0,0.0,0.0,0.0,0.0,0.0,0.0,0.0,0.0,0.0,0.0,4.5499,4.9507,5.2364,5.3122,5.3566,5.3635,5.3256,5.1804,4.9971,4.7665,4.3975,0.0,0.0,0.0,0.0,0.0,0.0,0.0,0.0,0.0,0.0,0.0,0.0,0.0,0.0,0.0,0.0,0.0,0.0,0.0,0.0,0.0,0.0,0.0,0.0,0.0,0.0,0.0,0.0,0.0,0.0,0.0,0.0,0.0,0.0,0.0,0.0,0.0,0.0,0.0,0.0,0.0,0.0,0.0,0.0,0.0,0.0,0.0,0.0,0.0,0.0,0.0,0.0,0.0,6.1328,6.2261,6.3173,6.4028,6.3893,6.2694,5.7411,5.4822,5.4207,5.2702,0.0,0.0,0.0,0.0,0.0,0.0,0.0,0.0,0.0,0.0,0.0,0.0,0.0,0.0,0.0,0.0,0.0,0.0,0.0,0.0,0.0,0.0,5.0352,5.0519,5.1101,5.0695,4.7145,0.0,0.0,0.0,0.0,0.0,0.0,0.0,0.0,0.0,0.0,0.0,4.6464,5.0515,5.3387,5.4196,5.5033,5.5209,5.4541,5.3795,5.2423,5.0127,4.6523,4.3568,0.0,0.0,0.0,0.0,0.0,0.0,0.0,0.0,0.0,0.0,0.0,0.0,0.0,0.0,0.0,0.0,0.0,0.0,0.0,0.0,0.0,0.0,0.0,0.0,0.0,0.0,0.0,0.0,0.0,0.0,0.0,0.0,5.3493,5.2821,0.0,0.0,0.0,0.0,0.0,0.0,0.0,0.0,0.0,0.0,0.0,0.0,0.0,6.1018,6.312,6.4025,6.496,6.5866,6.7389,6.8239,6.8466,6.8721,6.9193,6.9665,6.7598,0.0,5.8324,5.8081,0.0,0.0,0.0,0.0,0.0,0.0,0.0,0.0,0.0,0.0,0.0,0.0,0.0,0.0,0.0,0.0,0.0,0.0,0.0,0.0,0.0,0.0,5.5571,5.6164,5.6912,5.7141,5.5785,5.2348,4.8987,4.7195,4.5341,0.0,0.0,0.0,0.0,0.0,0.0,0.0,4.7793,5.1299,5.3729,5.457,5.5349,5.5808,5.5702,5.4959,5.3757,5.213,4.9033,4.6637,4.5169,4.1546,0.0,0.0,0.0,0.0,0.0,0.0,0.0,0.0,0.0,0.0,0.0,0.0,0.0,0.0,0.0,0.0,0.0,0.0,0.0,0.0,0.0,0.0,0.0,0.0,0.0,0.0,0.0,0.0,0.0,5.5785,5.768,5.7328,5.7607,5.7243,0.0,0.0,0.0,0.0,0.0,0.0,0.0,0.0,0.0,6.2928,6.5423,6.7468,6.8995,7.0712,7.1955,7.2759,7.3964,7.4799,7.5299,7.4854,7.4915,7.5232,7.3641,7.1073,6.7679,6.3998,6.103,5.8567,0.0,0.0,0.0,0.0,5.5368,5.5879,5.6645,5.6426,5.555,5.4405,0.0,0.0,0.0,0.0,0.0,0.0,0.0,5.1908,5.4742,5.6999,5.8677,5.9393,6.0118,6.0378,5.9528,5.7686,5.5091,0.0,4.9266,4.7013,4.3945,0.0,0.0,0.0,0.0,4.6164,4.9421,5.2799,5.503,5.5388,5.6142,5.6644,5.6644,5.6321,5.563,5.4481,5.2352,5.0245,4.8285,4.5302,4.291,0.0,0.0,0.0,0.0,0.0,0.0,0.0,0.0,0.0,0.0,0.0,0.0,0.0,0.0,0.0,0.0,0.0,0.0,0.0,0.0,0.0,0.0,0.0,0.0,0.0,0.0,0.0,0.0,5.9241,6.141,6.1434,6.1777,6.1557,0.0,0.0,0.0,0.0,0.0,0.0,6.2635,6.4841,6.6901,6.8703,7.1287,7.3125,7.4183,7.5985,7.7242,7.8088,7.8934,7.9663,8.0215,7.9847,7.9522,7.9264,7.8014,7.6764,7.5191,6.9394,6.5574,6.3156,6.0859,5.9847,5.9627,5.9627,6.0139,6.098,6.1784,6.1528,6.0688,5.9664,5.7397,5.4948,5.4099,0.0,0.0,0.0,0.0,5.6064,5.8385,6.0041,6.132,6.2099,6.2615,6.2765,6.2119,6.1759,6.0112,0.0,5.2772,5.0533,4.7345,0.0,0.0,0.0,0.0,4.8657,5.1179,5.4146,5.6066,5.6283,5.6826,5.7188,5.7188,5.7188,5.6862,5.6029,5.4762,5.3023,5.0836,4.8568,4.6287,4.386,0.0,0.0,0.0,0.0,0.0,0.0,0.0,0.0,0.0,0.0,0.0,0.0,0.0,0.0,0.0,0.0,0.0,0.0,0.0,0.0,0.0,0.0,0.0,0.0,0.0,0.0,0.0,0.0,0.0,6.4266,6.5533,0.0,0.0,0.0,0.0,6.296,6.5176,6.7246,6.8834,7.0497,7.2492,7.4894,7.5826,7.7119,7.8773,7.8921,7.9335,8.0184,8.096,8.1403,8.144,8.2179,8.2068,8.1366,8.1292,7.9889,7.7356,7.3639,7.0734,6.8357,6.6706,6.5569,6.4908,6.4908,6.5422,6.6229,6.7063,6.6806,6.5862,6.431,6.108,5.7643,5.6759,5.6406,0.0,0.0,5.8677,6.0359,6.2006,6.317,6.4075,6.4752,6.4945,6.4892,6.4675,6.4038,6.2192,0.0,5.5353,5.3319,5.0771,0.0,4.6801,4.7818,4.8826,5.0412,5.3027,5.4906,5.6283,5.7043,5.7188,5.7188,5.7188,5.7188,5.6862,5.6029,5.5269,5.411,5.2444,5.08,4.8786,4.6359,4.3932,0.0,0.0,0.0,0.0,0.0,0.0,0.0,0.0,0.0,0.0,0.0,0.0,0.0,0.0,0.0,0.0,0.0,0.0,0.0,0.0,0.0,0.0,0.0,0.0,0.0,0.0,0.0,0.0,6.9976,7.1547,0.0,7.1309,6.9804,6.9385,7.0611,7.2683,7.4623,7.6344,7.7926,7.9721,8.1666,8.2499,8.3181,8.3779,8.3779,8.3929,8.4227,8.3938,8.4087,8.4639,8.4349,8.4386,8.4601,8.349,8.2518,8.151,7.8666,7.5129,7.1406,7.0337,6.9416,6.8752,6.9268,6.9305,6.9194,7.0042,6.9416,6.8052,6.643,6.4943,6.3578,6.2719,6.2389,6.2524,6.3383,6.402,6.4683,6.5874,6.6404,6.6724,6.6968,6.6938,6.6565,6.5448,6.4448,6.2975,6.0366,5.8754,5.7185,5.5216,5.281,5.149,5.239,5.2365,5.2942,5.4834,5.6077,5.6862,5.7152,5.7188,5.7188,5.7188,5.7188,5.708,5.679,5.6536,5.5884,5.4798,5.3241,5.1285,4.8858,4.5924,4.3244,0.0,0.0,0.0,0.0,0.0,0.0,0.0,0.0,0.0,0.0,0.0,0.0,0.0,0.0,0.0,0.0,0.0,0.0,0.0,0.0,0.0,0.0,0.0,0.0,0.0,6.8057,7.2211,7.4136,7.5776,7.6696,7.6409,7.487,7.4474,7.5795,7.795,7.966,8.0766,8.2398,8.379,8.492,8.5722,8.6136,8.6136,8.6437,8.655,8.655,8.5985,8.6023,8.655,8.6249,8.6286,8.6512,8.5684,8.4856,8.3953,8.2298,7.9254,7.5478,7.4257,7.3313,7.2643,7.3201,7.3015,7.2569,7.2867,7.19,7.0314,6.9223,6.8727,6.8392,6.7834,6.7638,6.7701,6.8331,6.8418,6.8518,6.9124,6.9298,6.9298,6.9298,6.9224,6.8643,6.6914,6.5509,6.4179,6.2964,6.1354,5.9652,5.7953,5.6561,5.5703,5.5667,5.545,5.5667,5.6681,5.7514,5.8021,5.8021,5.8021,5.7913,5.7623,5.7587,5.7369,5.6826,5.679,5.6319,5.5269,5.4255,5.2552,5.0148,4.6649,4.386,4.1705,0.0,0.0,0.0,0.0,0.0,0.0,0.0,0.0,0.0,0.0,0.0,0.0,0.0,0.0,0.0,0.0,0.0,0.0,0.0,0.0,0.0,0.0,0.0,6.6157,7.0134,7.3832,7.6573,7.8141,7.8765,7.8226,7.7917,7.7942,7.8365,8.0693,8.2123,8.21,8.3572,8.4454,8.453,8.5247,8.5662,8.57,8.6593,8.7009,8.7009,8.6971,8.6971,8.7047,8.7802,8.7726,8.7047,8.7802,8.6782,8.4554,8.4479,8.3044,8.0641,7.8586,7.7324,7.6573,7.6573,7.6573,7.6423,7.5634,7.4319,7.2906,7.2906,7.2402,7.1711,7.1711,7.1673,7.1636,7.1598,7.1598,7.1598,7.1598,7.1598,7.1598,7.1598,7.1598,7.1081,6.9222,6.7351,6.5895,6.5496,6.3053,6.0622,5.906,5.932,5.918,5.7623,5.8021,0.0,5.8492,5.918,5.9651,5.9687,5.9687,5.9361,5.8528,5.8456,5.7732,5.6138,5.5957,5.5269,5.3748,5.3639,5.2444,5.0075,4.6178,4.3389,4.1741,0.0,0.0,0.0,0.0,0.0,0.0,0.0,0.0,0.0,0.0,0.0,0.0,0.0,0.0,0.0,0.0,0.0,0.0,0.0,0.0,0.0,6.6065,6.8367,7.0046,7.4692,7.8813,8.1278,8.3507,8.4792,8.4616,8.5094,8.5304,8.4962,8.6371,8.7019,8.6447,8.5626,8.5778,8.7035,8.6692,8.7073,8.8254,8.913,8.9587,8.9587,8.894,8.8978,8.9549,8.9168,8.9206,8.9549,8.913,8.8559,8.7797,8.5969,8.4788,8.3908,8.0984,7.9331,7.8615,7.8615,7.8238,7.762,7.6829,7.6226,7.5849,7.5849,7.5283,7.4454,7.3813,7.3226,7.2623,7.1998,7.181,7.181,7.181,7.1869,7.1869,7.1869,7.189,7.1395,6.9611,6.7701,6.6217,6.6026,6.4549,6.3266,6.3126,6.2791,6.2374,6.1759,6.0897,0.0,6.0955,6.0675,6.0675,6.1254,6.1326,6.1,6.0231,5.9615,5.8601,5.6971,5.5269,5.4146,5.3711,5.2009,5.0234,4.8387,4.6685,4.4765,0.0,0.0,0.0,0.0,0.0,0.0,0.0,0.0,0.0,0.0,0.0,0.0,0.0,0.0,0.0,0.0,0.0,0.0,0.0,0.0,0.0,0.0,7.0574,7.3478,7.6134,7.9077,8.1908,8.4385,8.6244,8.7307,8.7359,8.78,8.7969,8.7709,8.8672,8.8797,8.7613,8.6925,8.6887,8.7536,8.7422,8.7957,8.9294,9.0173,9.0593,9.0593,9.0096,9.0135,9.0593,9.0096,9.0135,9.0593,9.0058,8.9638,8.9179,8.7345,8.6161,8.5204,0.0,0.0,0.0,0.0,7.9339,7.8601,7.8107,7.7728,7.7424,7.7424,7.6817,7.5982,7.5109,7.4027,7.2907,7.2072,7.1541,7.1352,7.1731,7.2395,7.2926,7.2926,7.3477,7.3362,7.1235,6.924,6.781,6.76,6.6598,0.0,6.6531,6.5625,6.4699,6.4254,6.3095,6.2532,6.3292,6.2646,6.249,6.3292,6.3401,6.2901,6.1683,6.082,0.0,0.0,0.0,5.409,5.3436,5.1682,0.0,0.0,0.0,0.0,0.0,0.0,0.0,0.0,4.217,4.2348,0.0,0.0,0.0,0.0,0.0,0.0,0.0,0.0,0.0,0.0,0.0,0.0,0.0,0.0,0.0,0.0,7.4918,7.8748,8.299,8.3478,8.4284,8.6671,8.7649,8.8181,8.8308,8.8295,8.8318,8.8477,8.927,8.8988,8.7345,8.7689,0.0,0.0,0.0,8.8377,8.9294,9.0173,9.0593,9.0593,9.0593,9.0593,9.0593,9.0593,9.0593,9.0593,9.0593,9.0173,8.937,8.8453,8.7001,8.5129,8.2837,8.1958,8.1843,8.1079,8.0277,7.9589,7.9589,0.0,0.0,7.829,7.7717,7.68,7.5921,7.4469,7.2941,7.1947,7.1068,7.061,7.145,7.2941,7.4201,7.4201,7.5501,7.6,7.3397,7.1463,7.01,6.985,6.9008,6.8525,6.916,6.7909,6.6574,6.5812,6.4965,6.4708,6.5566,6.4903,6.4719,6.5566,0.0,0.0,6.3257,6.2388,6.0836,5.8299,5.6488,5.4701,5.2868,5.2197,5.1867,5.1862,5.057,4.9874,4.9901,4.8659,4.9214,5.1282,4.6541,4.5744,0.0,0.0,0.0,0.0,0.0,0.0,0.0,0.0,0.0,0.0,0.0,0.0,0.0,0.0,0.0,7.4978,7.8522,8.2302,8.6505,8.8221,8.921,8.9766,9.1119,9.2035,9.2057,9.2684,9.2799,9.2117,9.2253,9.1625,8.9944,8.8071,8.7307,8.7842,8.7345,8.7804,8.9294,9.0173,9.0593,9.0593,9.0593,0.0,9.0593,9.0593,9.0593,9.0593,9.0593,9.0517,9.0249,8.8721,8.6696,8.4403,8.3219,8.276,8.276,8.2569,8.1996,8.1308,8.1308,8.0735,8.0009,8.0009,7.9474,7.8519,7.6953,7.531,0.0,7.2138,7.1068,7.061,7.145,7.2941,7.4201,7.4201,7.5501,7.6153,7.4214,7.2849,7.194,7.1787,7.0965,7.0273,7.0365,6.9917,6.9214,6.8278,6.7419,6.7172,6.7878,6.7244,6.7058,6.7854,6.7966,6.7547,6.6486,6.5538,6.4007,6.1537,5.8058,5.4739,5.1844,5.279,5.3049,5.2363,5.3383,5.3569,5.2939,5.331,5.3794,5.4261,5.0563,5.0193,0.0,0.0,0.0,0.0,0.0,0.0,0.0,0.0,0.0,0.0,0.0,6.9827,7.121,0.0,7.6159,7.8789,8.1691,8.4824,8.8224,9.0861,9.2312,9.1892,9.258,9.3115,9.3115,9.3497,9.3382,9.2504,9.2465,9.1739,9.0058,8.8759,8.8262,8.8683,8.8301,8.8683,8.9944,9.0402,9.0593,9.0593,9.0593,9.0593,9.0593,9.0593,9.0593,9.0593,9.0135,8.9944,8.9829,8.8148,8.6428,8.4862,8.4403,8.3754,8.299,8.299,8.2493,8.1805,8.1805,8.1232,8.0506,8.0506,7.9971,7.9054,7.7755,7.6188,7.4584,7.3323,7.2367,7.1909,7.2711,7.4201,7.5462,7.5462,7.6761,7.7526,7.5791,7.4994,7.4464,7.399,7.3478,7.3004,7.2529,7.2319,7.1554,6.9466,6.8445,6.8199,6.8962,6.8361,6.8173,6.894,6.9053,6.865,6.7673,6.5926,6.4053,6.2184,5.9637,5.7172,5.4872,5.5809,5.6071,5.5303,5.6425,5.6836,5.6556,5.6968,5.7398,5.7847,5.6236,5.5676,0.0,0.0,0.0,0.0,0.0,0.0,0.0,6.7897,6.9082,7.061,7.3323,7.5653,7.6341,7.8423,8.0506,8.2034,8.4365,8.6887,8.9447,9.2389,9.407,9.3421,9.3497,9.3535,9.3382,9.3344,9.3,9.2121,9.1892,9.1204,8.9867,8.9638,8.9561,8.9561,8.9561,8.9905,9.0593,9.0593,9.0593,9.0593,9.0593,9.0593,9.0593,9.0593,9.0593,9.0555,8.9676,8.9141,8.8721,8.7384,8.6314,8.5511,8.5511,8.4671,8.3486,8.3486,8.299,8.2302,8.2302,8.1614,8.0735,8.0735,8.02,7.936,7.8519,7.7182,7.5806,7.4927,7.4125,7.3667,7.4469,7.5806,7.6953,7.6953,7.8137,7.8825,7.7067,7.6685,7.6456,7.5653,7.5518,7.5233,7.4354,7.4201,7.3281,7.0611,6.9587,6.9398,7.0079,6.9473,6.9208,6.9852,6.9927,6.9622,6.8892,6.6524,6.4475,6.2994,6.1808,6.0435,5.8792,5.9364,5.9401,5.8771,5.9364,5.9777,5.994,6.0111,6.0527,6.1186,6.1671,6.0843,5.7515,6.101,6.6083,6.8862,7.2071,7.4278,0.0,7.4431,7.5844,7.6838,7.8519,7.9818,7.9933,8.1385,8.2875,8.3868,8.6161,8.8683,9.1166,9.3191,9.4376,9.4261,9.4872,9.5025,9.4338,9.4261,9.3879,9.3038,9.2236,9.1701,9.151,9.0861,9.044,9.044,9.044,9.0517,9.0593,9.0593,9.0593,9.0593,9.0593,9.0593,9.0593,9.0593,9.0593,9.0555,8.9676,8.8453,8.7078,8.6867,8.6314,8.5511,8.5511,8.5397,8.5206,8.5206,8.4709,8.4021,8.4021,8.299,8.1652,8.1652,8.1079,8.02,7.9398,7.8481,7.7526,7.6685,7.5844,7.5386,7.6227,7.7144,7.787,7.787,7.8596,7.8825,7.7067,7.6685,7.6456,7.5653,7.5518,7.5233,7.4354,7.4201,7.384,7.2796,7.2511,7.2511,7.2588,7.1863,7.1328,7.1443,7.1443,7.1641,7.2109,7.0495,6.8785,6.7075,6.5479,6.3557,6.114,6.1847,6.1885,6.1064,6.1847,6.2265,6.2243,6.2938,6.3272,6.3317,6.4813,6.4138,6.3562,6.6401,7.0441,7.4006,7.7496,8.0075,8.0119,8.1057,8.2301,8.362,8.4882,8.5552,8.5034,8.5532,8.6125,8.6448,8.8247,9.0294,9.2274,9.4097,9.4823,9.3764,9.3077,9.2924,9.3573,9.365,9.3497,9.3115,9.2771,9.2351,9.1816,9.1052,9.0593,9.0593,9.0593,9.0593,9.0593,9.0593,9.0593,9.0593,9.0593,9.0593,9.0593,9.0593,9.0326,8.9829,8.9447,8.8339,8.679,8.679,8.6314,8.5511,8.5511,8.5511,8.5511,8.5511,8.4976,8.4289,8.4289,8.3181,8.1805,8.1805,8.1194,8.043,8.0086,7.9742,7.9398,7.9016,7.8672,7.8481,7.8825,7.9169,7.9436,7.9436,7.9742,7.9665,7.8481,7.8213,7.7946,7.7105,7.6953,7.6685,7.5806,7.5653,7.5386,7.4584,7.3628,7.2826,7.2291,7.2367,7.2253,7.1773,7.2066,7.2265,7.2063,7.0906,6.9898,6.9226,6.7593,6.5993,6.4496,6.5194,6.5232,6.4457,6.5194,6.5612,6.5623,6.5922,6.6062,6.599,6.6712,6.6432,6.8165,7.1041,7.4473,7.8296,8.2141,8.5166,8.5704,8.647,8.7408,8.8591,8.8955,8.8899,8.8245,8.7941,8.7943,8.84,9.0143,9.1983,9.3642,9.5385,9.5751,9.3753,9.199,9.1243,9.1969,9.2045,9.216,9.2389,9.2847,9.2809,9.2198,9.1625,9.1281,9.1281,9.1052,9.0937,9.0937,9.0708,9.0593,9.0593,9.0593,9.0593,9.0593,9.0593,9.0135,8.9294,8.9294,8.8339,8.679,8.679,8.6314,8.5511,8.5511,8.5511,8.5511,8.5511,8.5129,8.4632,8.4632,8.3677,8.2493,8.2493,8.1767,8.085,8.085,8.0697,8.0506,8.0506,8.0506,8.0506,8.0506,8.0506,8.0506,8.0506,8.0506,8.0277,7.9493,7.9302,7.9016,7.8175,7.8022,7.7717,7.6838,7.6685,7.6418,7.5633,7.4469,7.3437,7.2826,7.3093,7.3017,7.2138,7.2546,7.2685,7.2342,7.1489,7.0976,7.1044,6.962,6.8477,6.7703,6.8171,6.821,6.7665,6.8171,6.8477,6.8526,6.8705,6.8786,6.8824,6.9053,6.9167,6.9425,7.401,7.8441,8.1112,8.5571,8.9324,8.942,9.0014,9.0566,9.0605,8.9299,8.811,8.811,8.7422,8.7424,8.9188,9.1582,9.3823,9.5573,9.7214,9.7303,9.4777,9.2835,9.1166,8.9561,8.9409,8.9791,9.0631,9.2198,9.3077,9.3077,9.3038,9.3038,9.3038,9.2198,9.1739,9.1739,9.0975,9.0593,9.0593,9.0593,9.0593,9.0593,9.0593,9.0135,8.9294,8.9294,8.8339,8.679,8.679,8.6314,8.5511,8.5511,8.5511,8.5511,8.5511,8.5473,8.5473,8.5473,8.4938,8.4212,8.4212,8.3104,8.1767,8.1767,8.1156,8.0506,8.0506,8.0506,8.0506,8.0506,8.0506,8.0506,8.0506,8.0506,8.0277,7.9493,7.9302,7.9016,7.8175,7.8022,7.7717,7.6838,7.6685,7.6418,7.5633,7.548,7.5403,7.5403,7.466,7.3858,7.3055,7.2979,7.3323,7.407,7.3399,7.2941,7.2902,7.2062,7.1183,7.0326,7.0288,7.0288,7.0288,7.0288,7.0326,7.0326,7.1183,7.1565,7.1603,7.2444,7.2826,7.3361,7.7962,8.2185,8.5284,8.919,9.2335,9.2891,9.3677,9.3926,9.2674,9.1104,8.9591,8.8341,8.7962,8.8404,9.0012,9.3541,9.6191,9.6667,9.8281,9.8396,9.5783,9.3443,9.1372,8.9608,8.8876,8.9103,9.0478,9.1625,9.2504,9.3077,9.3115,9.3115,9.3115,9.2236,9.1816,9.1816,9.1013,9.0593,9.0593,9.0593,9.0593,9.0593,9.0593,9.044,9.0173,9.0173,8.9218,8.7651,8.7651,8.681,8.5511,8.5511,8.5855,8.6314,8.5702,8.5893,8.6275,8.5702,8.4976,8.4289,8.4289,8.3524,8.2493,8.1958,8.1614,8.1232,8.0659,8.0926,8.1347,8.1347,8.1767,8.1996,8.1499,8.1347,8.1117,8.0277,8.0086,8.0009,7.9704,7.9665,7.9398,7.8557,7.8404,7.8137,7.7296,7.573,7.4851,7.5442,7.4736,7.4087,7.3819,7.4316,7.4507,7.424,7.3972,7.3819,7.3819,7.3017,7.2444,7.2138,7.2138,7.2138,7.2138,7.2138,7.2138,7.2138,7.2406,7.2559,7.2559,7.2864,7.2979,7.7602,8.2091,8.6126,8.9266,9.2257,9.458,9.5137,9.5694,9.5406,9.2966,9.0647,8.8577,8.714,8.6662,8.7389,8.9957,9.433,9.748,9.7748,9.9534,9.9841,9.7247,9.4905,9.2718,9.0646,8.9054,8.8571,8.9638,9.075,9.1896,9.3038,9.3731,9.4037,9.3994,9.2886,9.2274,9.2274,9.1166,9.0593,9.0593,9.0593,9.0593,9.0593,9.0593,9.0593,9.0593,9.0593,8.9829,8.853,8.853,8.7689,8.6428,8.6428,8.6772,8.7192,8.6658,8.6772,8.7116,8.5932,8.5167,8.4747,8.4747,8.4174,8.3372,8.2837,8.2264,8.169,8.1117,8.1156,8.1423,8.1729,8.2187,8.2455,8.192,8.1805,8.1576,8.0697,8.0506,8.0506,8.0506,8.0506,8.0238,7.9454,7.9016,7.8634,7.8099,7.6609,7.5768,7.6303,7.5615,7.4966,7.4698,7.4889,7.4927,7.4698,7.466,7.4775,7.508,7.4889,7.466,7.4354,7.4622,7.4775,7.4775,7.4775,7.4775,7.4775,7.4775,7.4775,7.4775,7.4469,7.4316,8.1824,8.6334,9.0197,9.2831,9.477,9.6076,9.6232,9.6213,9.5137,9.1642,8.8096,8.534,8.457,8.3673,8.4534,8.8936,9.4081,9.7769,9.8673,10.0902,10.1475,9.9037,9.7132,9.5077,9.2642,8.9937,8.8326,8.8265,8.9761,9.1406,9.3022,9.4828,9.5729,9.5544,9.3955,9.3077,9.3038,9.1434,9.0593,9.0593,9.0593,9.0593,9.0593,9.0593,9.0593,9.0593,9.0593,9.0135,8.9294,8.9294,8.8835,8.811,8.811,8.811,8.8148,8.811,8.811,8.7918,8.6237,8.5588,8.555,8.5511,8.4976,8.4327,8.4289,8.3142,8.1843,8.1805,8.1194,8.0773,8.1576,8.1843,8.1843,8.1843,8.1843,8.1614,8.0735,8.0582,8.0544,8.0506,8.0506,8.0238,7.9493,7.8672,7.8137,7.8137,7.8137,7.8099,7.8022,7.7258,7.6418,7.5615,7.4775,7.4622,7.548,7.5539,7.5921,7.6723,7.7526,7.7602,7.6723,7.7487,7.7908,7.787,7.787,7.787,7.787,7.787,7.7908,7.7908,7.7029,7.6647,8.4687,8.9611,9.3501,9.4213,9.6152,9.7614,9.6424,9.6213,9.5078,9.0969,8.6883,8.3585,8.2075,8.1594,8.2911,8.7225,9.3868,9.8538,9.875,10.15,10.2788,10.0788,9.9115,9.727,9.5272,9.2219,9.032,9.0206,9.0491,9.1467,9.3231,9.4913,9.5483,9.4811,9.3693,9.2809,9.2121,9.1128,9.0593,9.0593,9.0593,9.0593,9.0593,9.0593,9.0593,9.0593,9.0593,9.0135,8.9294,8.9294,8.8835,8.811,8.811,8.8453,8.8912,8.8301,8.8492,8.8835,8.7804,8.7001,8.6352,8.5702,8.5358,8.5091,8.448,8.3563,8.2569,8.1958,8.1652,8.1538,8.1729,8.2225,8.2684,8.2684,8.2684,8.2455,8.1652,8.1461,8.127,8.0621,8.0506,8.043,8.0238,8.0009,7.9856,7.9856,7.9856,7.9398,7.8175,7.7258,7.6609,7.6418,7.5653,7.5501,7.6303,7.6379,7.6761,7.7602,7.787,7.7602,7.6723,7.6914,7.6761,7.615,7.615,7.615,7.615,7.615,7.6456,7.7029,7.6188,7.6112,8.8039,9.2219,9.5345,9.5769,9.698,9.7538,9.5502,9.4828,9.3192,8.8102,8.3994,8.0849,7.9489,7.9582,8.1327,8.6026,9.2905,9.7711,9.7711,10.0289,10.1712,10.0404,9.9019,9.7692,9.6328,9.41,9.2544,9.218,9.1356,9.1606,9.3293,9.4653,9.5111,9.4509,9.326,9.2164,9.1281,9.0822,9.0593,9.0593,9.0593,9.0593,9.0631,9.0975,9.0937,9.0631,9.0975,9.0669,8.9867,8.9867,8.96,8.9218,8.9218,8.9485,8.9829,8.937,8.9485,8.9752,8.8912,8.8301,8.7689,8.6467,8.6084,8.5932,8.5091,8.425,8.3486,8.3028,8.2607,8.2416,8.2798,8.2951,8.299,8.299,8.2722,8.2225,8.1423,8.1232,8.1079,8.0582,8.0506,8.0506,8.0506,8.0506,8.0506,8.0506,8.0506,8.0162,7.9207,7.8366,7.7831,7.7831,7.7105,7.6914,7.7755,7.7831,7.8061,7.8519,7.8901,7.871,7.787,7.8175,7.8175,7.7678,7.7678,7.7678,7.7678,7.7678,7.7908,7.8366,7.7526,7.7411,9.1471,9.4388,9.6459,9.7211,9.7423,9.6732,9.4115,9.2556,9.0017,8.4286,8.0161,7.7439,7.6885,7.7493,7.9822,8.5077,9.1556,9.6019,9.6095,9.8134,9.9327,9.8557,9.7711,9.698,9.6519,9.5675,9.4887,9.4249,9.2695,9.2295,9.3543,9.4369,9.4618,9.4185,9.2633,9.1424,9.0631,9.0593,9.0593,9.0593,9.0593,9.0593,9.0631,9.1434,9.1357,9.0631,9.1434,9.1357,9.0593,9.0593,9.0593,9.0593,9.0593,9.0593,9.0593,9.0593,9.0593,9.0517,8.9752,8.9485,8.9218,8.7536,8.6963,8.6849,8.6084,8.5282,8.4632,8.4632,8.3983,8.3486,8.4136,8.3639,8.299,8.299,8.2378,8.1576,8.085,8.0582,8.0506,8.0506,8.0506,8.0506,8.0506,8.0506,8.0506,8.0506,8.0506,8.0506,8.0506,7.978,7.9302,7.9302,7.8519,7.8366,7.9225,7.9302,7.934,7.9454,8.0086,8.0124,7.934,7.9971,8.0277,8.0162,8.0162,8.0162,8.0162,8.0162,8.0238,8.0315,7.9513,7.9187,9.3751,9.6366,9.8173,9.7596,9.75,9.6654,9.3441,8.9863,8.594,8.14,7.6615,7.3462,7.4053,7.5385,7.8308,8.417,9.021,9.4403,9.5095,9.6211,9.6903,9.6749,9.5942,9.5903,9.7173,9.7115,9.6962,9.6865,9.5923,9.5174,9.4751,9.4753,9.4081,9.2501,9.1447,9.0812,9.0593,9.0593,9.0593,9.0593,9.0593,9.0593,9.0631,9.1434,9.1357,9.0631,9.1434,9.1357,9.0593,9.0593,9.0593,9.0593,9.0593,9.0593,9.0593,9.0593,9.0593,9.0593,9.044,9.0364,9.0096,8.8415,8.788,8.7842,8.7689,8.704,8.639,8.639,8.5741,8.4938,8.4441,8.3639,8.299,8.299,8.2378,8.1767,8.1614,8.1003,8.0506,8.0506,8.0506,8.0506,8.0506,8.0506,8.0506,8.0506,8.0506,8.0506,8.0506,7.978,7.9302,7.9302,7.8519,7.8366,7.9225,7.9302,7.9589,8.0238,8.043,8.0124,7.934,7.9454,7.9169,7.8443,7.8443,7.8443,7.8443,7.8443,7.8787,7.9493,7.8634,7.8596,9.5095,9.7519,9.9058,9.7326,9.6865,9.5634,9.0902,8.6555,8.217,7.7476,7.2783,6.9821,7.0706,7.2591,7.5822,8.1362,8.7248,9.1402,9.221,9.3095,9.3826,9.4287,9.4326,9.498,9.6711,9.7673,9.798,9.7519,9.6749,9.6134,9.5711,9.5118,9.4216,9.2891,9.2371,9.2082,9.2079,9.2059,9.2059,9.2059,9.2059,9.2059,9.2118,9.2922,9.2595,9.1485,9.2289,9.1906,9.0758,9.0697,9.0638,9.0656,9.0614,9.0614,9.0656,9.0614,9.0614,9.0656,9.0614,9.0593,9.0478,8.9676,8.9103,8.8644,8.8224,8.7804,8.7384,8.6925,8.6505,8.597,8.5129,8.4289,8.3677,8.3677,8.3028,8.2416,8.2416,8.2111,8.1805,8.1805,8.1805,8.1652,8.1232,8.1194,8.1003,8.0582,8.0506,8.0506,8.0506,8.0162,7.9933,7.9933,7.9551,7.9474,7.9895,7.9933,8.0086,8.0468,8.0506,8.0544,8.0582,8.0162,7.9933,7.9971,7.9513,7.9283,7.9283,7.9283,7.9513,7.9895,7.9513,7.9513,9.6596,9.8711,9.9712,9.698,9.5903,9.3903,8.794,8.2901,7.813,7.3399,6.9129,6.6551,6.7436,6.9667,7.3053,7.8169,8.3824,8.794,8.894,8.9863,9.0787,9.1825,9.2672,9.398,9.6095,9.7827,9.8519,9.7827,9.6865,9.6211,9.6019,9.5252,9.4446,9.3658,9.3486,9.3447,9.3427,9.3427,9.3427,9.3427,9.3427,9.3427,9.3408,9.429,9.3791,9.2219,9.3063,9.2449,9.0896,9.0779,9.0739,9.0699,9.0676,9.0697,9.0699,9.0676,9.0582,9.0431,9.0388,9.0232,9.0058,9.0058,8.9714,8.9179,8.853,8.8224,8.7957,8.7269,8.7078,8.6887,8.6008,8.5167,8.448,8.4098,8.3486,8.299,8.299,8.299,8.299,8.299,8.299,8.2798,8.2187,8.192,8.1576,8.0888,8.0621,8.0582,8.0735,8.0621,8.0582,8.0773,8.0621,8.0506,8.0506,8.0506,8.0506,8.0506,8.0697,8.1079,8.1767,8.1156,8.1117,8.1805,8.0926,8.0506,8.0506,8.0506,8.0506,8.0506,8.0506,8.0506,9.9058,10.0481,10.0404,9.7134,9.4557,9.1287,8.5286,7.89,7.3168,6.9629,6.609,6.3935,6.4782,6.7051,7.0437,7.5515,8.0669,8.4632,8.6209,8.7209,8.8325,8.994,9.0902,9.271,9.598,9.7827,9.875,9.8673,9.7211,9.5942,9.5172,9.5018,9.454,9.362,9.3601,9.3505,9.3427,9.3427,9.3427,9.3427,9.3427,9.3427,9.3408,9.429,9.3791,9.2219,9.3063,9.2449,9.0915,9.0896,9.0799,9.0719,9.0837,9.0799,9.0719,9.0857,9.0339,8.9609,8.9609,8.9032,8.8339,8.8339,8.8759,8.9294,8.9218,8.8683,8.8071,8.7995,8.7957,8.7766,8.6925,8.6046,8.5015,8.3486,8.3066,8.299,8.299,8.299,8.299,8.299,8.299,8.299,8.2875,8.2264,8.1767,8.169,8.1003,8.0773,8.1576,8.1003,8.0812,8.1614,8.0964,8.0506,8.0506,8.0506,8.0506,8.0506,8.1232,8.1729,8.1805,8.1729,8.1729,8.1805,8.0926,8.0506,8.0506,8.0506,8.0506,8.0506,8.0506,8.0506,9.648,9.875,9.9635,9.5711,9.2826,8.9402,8.3439,7.6438,7.0514,6.8129,6.4512,6.205,6.2935,6.4743,6.7628,7.2206,7.6784,8.0592,8.2785,8.4709,8.6324,8.7478,8.8863,9.0825,9.3749,9.5518,9.6711,9.725,9.6673,9.6134,9.5788,9.5788,9.5615,9.5232,9.5232,9.5213,9.5137,9.5137,9.5137,9.5137,9.5137,9.5137,9.5176,9.5521,9.4753,9.3139,9.3447,9.264,9.1084,9.0991,9.0934,9.0896,9.0877,9.0877,9.0896,9.0915,9.0685,9.0398,9.0378,9.009,8.9725,8.9189,8.8883,8.8729,8.8609,8.8339,8.7995,8.746,8.7307,8.7116,8.6237,8.5779,8.532,8.4671,8.4518,8.4518,8.4518,8.4518,8.4518,8.4518,8.4518,8.4365,8.3868,8.3524,8.3142,8.2607,8.2225,8.2111,8.2493,8.2225,8.2149,8.2493,8.1308,8.0697,8.1232,8.127,8.1499,8.1958,8.234,8.276,8.3295,8.234,8.2034,8.2493,8.1194,8.0506,8.0506,8.0506,8.0506,8.0506,8.0506,8.0506,9.4326,9.7288,9.8673,9.4403,9.1056,8.7248,8.1323,7.4245,6.8436,6.6705,6.3397,6.0973,6.1601,6.2897,6.5089,6.8821,7.3014,7.6669,7.9246,8.2208,8.4324,8.4901,8.6517,8.8594,9.1133,9.3787,9.5826,9.6942,9.7057,9.7057,9.7057,9.6788,9.6557,9.6326,9.6288,9.6288,9.6288,9.6288,9.6288,9.6288,9.6288,9.6288,9.6288,9.6288,9.548,9.4057,9.4057,9.3249,9.1902,9.16,9.143,9.1373,9.1087,9.1144,9.1355,9.1356,9.1375,9.1393,9.1337,9.1126,9.0762,8.988,8.9075,8.8327,8.7906,8.7637,8.7292,8.6661,8.6508,8.6355,8.5743,8.559,8.559,8.559,8.559,8.559,8.559,8.559,8.559,8.559,8.557,8.5436,8.513,8.4652,8.4174,8.3792,8.3295,8.3066,8.3333,8.3142,8.3181,8.3677,8.2225,8.1499,8.2111,8.2149,8.2378,8.2951,8.3219,8.3639,8.425,8.3181,8.2684,8.299,8.1843,8.1117,8.0888,8.1117,8.1232,8.1232,8.1232,8.1232,9.3864,9.6865,9.7788,9.3557,8.9286,8.4593,7.8669,7.2052,6.6628,6.4974,6.2589,6.0781,6.0819,6.1524,6.2986,6.5551,6.9513,7.3129,7.5707,7.9669,8.2324,8.2324,8.3862,8.594,8.8479,9.3326,9.698,9.8634,9.875,9.875,9.875,9.7942,9.7134,9.6326,9.6288,9.6288,9.6288,9.6288,9.6288,9.6288,9.6288,9.6288,9.6288,9.6288,9.5826,9.498,9.498,9.448,9.3595,9.2826,9.2426,9.2199,9.1482,9.1639,9.2314,9.2444,9.2426,9.2295,9.2295,9.1701,9.0781,8.988,8.9055,8.825,8.7349,8.6506,8.5815,8.5815,8.5815,8.5815,8.5815,8.5815,8.5815,8.5815,8.5815,8.5815,8.5815,8.5815,8.5815,8.5815,8.5742,8.5935,8.6738,8.5437,8.4556,8.5358,8.4059,8.3295,8.4174,8.3524,8.3639,8.532,8.3983,8.299,8.299,8.299,8.299,8.299,8.3792,8.4289,8.4289,8.4289,8.3868,8.3028,8.299,8.2569,8.1805,8.2569,8.2951,8.2951,8.2951,8.2951,8.6517,9.0325,9.2595,8.8363,8.4978,8.1439,7.663,7.0283,6.5243,6.4705,6.2551,6.0781,6.0781,6.1012,6.205,6.4589,6.759,7.0898,7.4591,7.9246,8.2516,8.3131,8.5747,8.8479,9.1056,9.3787,9.6326,9.8634,9.8788,9.8788,9.8788,9.798,9.7365,9.7134,9.6596,9.6288,9.6288,9.6288,9.6288,9.6288,9.6288,9.6288,9.6288,9.6288,9.5826,9.498,9.498,9.4518,9.3672,9.3441,9.2962,9.2482,9.2769,9.2731,9.2521,9.3077,9.3269,9.3251,9.3251,9.3079,9.2658,9.1851,9.1006,9.016,8.9276,8.7497,8.5815,8.5815,8.5815,8.5815,8.5815,8.5815,8.5815,8.5815,8.5815,8.5815,8.5815,8.5815,8.5815,8.5815,8.5779,8.601,8.6777,8.5992,8.5513,8.6275,8.5435,8.4824,8.5091,8.49,8.5129,8.6275,8.5397,8.4709,8.4709,8.4212,8.4365,8.5511,8.532,8.5397,8.597,8.49,8.3868,8.3028,8.299,8.2607,8.1805,8.2607,8.299,8.299,8.299,8.299,8.0708,8.4939,8.7478,8.3862,8.1054,7.813,7.4168,6.8783,6.4512,6.4166,6.2358,6.0781,6.0781,6.0781,6.1512,6.3743,6.5974,6.8936,7.3168,7.8438,8.2747,8.5209,8.7671,9.0133,9.271,9.4749,9.698,9.9558,9.975,9.975,9.975,9.8942,9.8327,9.8019,9.6903,9.6288,9.6288,9.6288,9.6288,9.6288,9.6288,9.6288,9.6288,9.6288,9.6019,9.548,9.548,9.5172,0.0,9.4326,9.3903,9.3441,9.3633,9.3595,9.348,9.4018,9.4403,9.4672,9.4672,9.4672,9.4557,9.371,9.2441,9.1056,9.0171,8.8469,8.6883,8.6883,8.6652,8.6384,8.6384,8.6153,8.5923,8.5923,8.5923,8.6,8.6345,8.6384,8.6499,8.6844,8.6847,8.7079,8.7849,8.7293,8.6968,8.7752,8.7121,8.6585,8.6585,8.6585,8.6929,8.7771,8.6815,8.6241,8.6585,8.5436,8.5206,8.6237,8.5817,8.5741,8.6314,8.532,8.4365,8.3486,8.3792,8.3563,8.276,8.3563,8.3945,8.3945,8.3945,8.3945,0.0,8.0246,8.2439,7.9977,7.7515,7.4822,7.1398,6.7436,0.0,6.3397,6.1935,6.0781,6.0781,6.0858,6.1435,6.3128,6.4897,6.7552,7.186,7.7707,8.3401,8.844,8.971,9.1171,9.371,9.6172,9.8634,10.1096,10.1289,10.1289,10.1289,10.0481,9.9712,9.8827,9.725,9.6365,9.6288,9.6288,9.6288,9.6288,9.6288,9.6288,9.6288,9.6288,9.6288,9.6288,9.6288,9.6288,9.6249,9.5441,9.5057,9.4903,9.4172,9.4326,9.5018,9.5057,9.5595,9.6288,9.6288,9.6288,9.6134,9.5211,9.3287,9.121,9.0287,8.9402,8.8709,8.8709,8.8132,8.7478,8.7478,8.6901,8.6286,8.6286,8.6286,8.6517,8.7325,8.7478,8.7709,8.8517,8.8602,8.88,8.9645,8.9034,8.8672,8.9458,8.894,8.8403,8.8403,8.8403,8.871,8.9497,8.8155,8.7541,8.8423,8.6681,8.5569,8.5608,8.5569,8.5569,8.5684,8.5608,8.5167,8.4423,8.5053,8.5053,8.4403,8.5129,8.5511,8.5511,8.5511,8.5511,6.8244,0.0,7.7323,7.5438,7.4014,7.2206,0.0,6.5705,6.3358,6.2551,6.155,6.0781,6.0781,6.1331,6.232,6.4012,6.6282,6.9513,7.4437,8.1362,8.7555,9.1979,9.2672,9.3826,9.6365,9.775,9.9288,10.1212,10.1289,10.1289,10.1289,10.0481,9.9712,9.8827,9.7788,9.6903,9.6326,9.6288,9.6288,9.6288,9.6288,9.6288,9.6288,9.6288,9.6288,9.6288,9.6288,9.6288,9.6288,9.6095,9.5595,9.5057,9.5518,9.5403,9.5057,9.5749,9.6134,9.6288,9.6288,9.6288,9.6057,9.4518,9.3595,9.2826,9.1364,8.9863,8.8709,8.8709,8.8556,8.8402,8.8402,8.8248,8.8094,8.8094,8.8094,8.8132,8.8363,8.8402,8.844,8.8671,8.8654,8.8888,8.9663,8.9051,8.8746,8.9477,8.894,8.8403,8.8403,8.8403,8.871,8.9497,8.871,8.8442,8.9267,8.712,8.601,8.67,8.6087,8.6317,8.7657,8.6394,8.5552,8.5361,8.4863,8.4785,8.5206,8.5397,8.5511,8.5511,8.5511,8.5511,6.5436,6.9129,7.2206,7.0898,7.0206,6.9167,6.6551,6.4282,6.2627,6.2178,6.1716,6.1408,6.1408,6.2089,6.332,6.5397,6.7898,7.2283,8.0131,8.544,9.0402,9.5441,9.6019,9.6865,9.9058,9.9673,10.0289,10.1212,10.1289,10.1289,10.1289,10.0904,10.0096,9.8827,9.8327,9.7519,9.6326,9.6288,9.6288,9.6288,9.6288,9.6288,9.6288,9.6288,9.6288,9.6288,9.6288,9.6288,9.6288,9.6288,9.6019,9.5634,9.6134,9.6019,9.5634,9.6134,9.6288,9.6288,9.6288,9.6288,9.6134,9.5211,9.4364,9.3518,9.2633,9.1171,8.9863,8.9863,8.9556,8.9248,8.9248,8.8979,8.8709,8.8709,8.8709,8.8786,8.9171,8.9248,8.9363,8.9787,8.9863,9.0077,9.0908,9.0332,9.0006,9.0797,9.0221,8.9837,9.0221,8.9914,8.9991,9.0836,8.9837,8.9261,8.9704,8.8129,8.7287,8.7656,8.7234,8.7426,8.8346,8.7465,8.6911,8.6873,8.6335,8.6275,8.6696,8.6696,8.6696,8.6696,8.6696,8.6696,6.4859,6.6744,6.7898,6.7436,6.7398,6.7051,6.5359,6.3974,6.2986,6.2716,6.2678,6.2678,6.2678,6.332,6.4705,6.7282,7.0475,7.613,8.617,8.9171,9.2402,9.8134,9.8788,9.9442,10.1096,10.1289,10.1289,10.1289,10.1212,10.1096,10.1096,10.1019,10.0212,9.8634,9.8596,9.7865,9.6326,9.6288,9.6288,9.6288,9.6288,9.6288,9.6288,9.6288,9.6288,9.6288,9.6288,9.6288,9.6288,9.6288,9.6288,9.6288,9.6288,9.6288,9.6288,9.6288,9.6288,9.6288,9.6288,9.6288,9.6288,9.6134,9.5018,9.3672,9.3557,9.2441,9.121,9.121,9.0671,9.0094,9.0094,8.9594,8.9094,8.9094,8.9094,8.9248,8.994,9.0094,9.0325,9.1056,9.121,9.1479,9.2364,9.1787,9.1518,9.2364,9.1748,9.1479,9.221,9.1672,9.1479,9.221,9.0979,9.0171,9.0287,8.9556,8.9081,8.9034,8.8671,8.844,8.8422,8.8537,8.8481,8.8232,8.8172,8.817,8.817,8.817,8.815,8.8092,8.8092,8.8092,6.3397,6.4974,6.659,6.7898,6.8744,6.8859,6.709,6.709,6.7051,6.559,6.532,6.532,6.532,6.5974,6.7359,6.9898,7.6053,8.2401,8.7748,9.0594,9.3787,9.825,9.8788,9.9442,10.1096,10.1289,10.1289,10.1289,10.0712,10.0289,10.0289,9.9558,9.8711,9.775,9.7711,9.725,9.6326,9.6288,9.6288,9.6288,9.6288,9.6288,9.6288,9.6288,9.6288,9.6288,9.6288,9.6288,9.6288,9.6288,9.6288,9.6288,9.6288,9.6288,9.6288,9.6288,9.6288,9.6288,9.6288,9.6288,9.6172,9.5441,9.4518,9.3557,9.2903,9.1979,9.121,9.121,9.1095,9.1018,9.1018,9.0902,9.0825,9.0825,9.0825,9.0864,9.0979,9.1018,9.1056,9.1171,9.121,9.1479,9.2364,9.1787,9.1518,9.2364,9.1748,9.1248,9.1364,9.1287,9.1248,9.1402,9.1171,9.1287,9.2056,9.1325,9.1115,9.1828,8.9867,8.8602,8.8475,8.9204,8.9206,8.8385,8.8366,8.8347,8.8347,8.8347,8.8309,8.8173,8.8173,8.8172,6.3666,6.4589,6.5705,6.7859,6.9398,7.0244,6.9937,7.0167,7.009,6.8859,6.8244,6.7936,6.7936,6.9013,7.1591,7.6899,8.1862,8.6401,9.021,9.2133,9.4557,9.8365,9.8788,9.9442,10.1096,10.1289,10.1289,10.1289,10.0596,10.0096,10.0096,9.925,9.8404,9.7519,9.7519,9.7096,9.6326,9.6288,9.6288,9.6288,9.6288,9.6288,9.6288,9.6288,9.6288,9.6288,9.6288,9.6288,9.6288,9.6288,9.6288,9.6288,9.6288,9.6288,9.6249,9.5788,9.5595,9.5595,9.5595,9.5288,9.4903,9.498,9.4095,9.2979,9.2595,9.1902,9.121,9.121,9.121,9.121,9.121,9.121,9.121,9.121,9.121,9.121,9.121,9.121,9.1325,9.1825,9.1902,9.2326,9.3633,9.2749,9.2172,9.3018,9.2056,9.1364,9.1825,9.1479,9.1364,9.1864,9.1479,9.1364,9.1748,9.1441,9.1364,9.1787,9.071,9.0038,8.9947,9.0278,9.0241,8.982,8.9764,8.9727,8.9727,8.9727,8.9708,8.965,8.9591,8.9551,6.4243,6.4743,6.5474,6.7821,6.9667,7.1181,7.2272,7.2965,7.3171,7.2338,7.1645,7.1222,7.1222,7.2748,7.6198,8.2824,8.6055,8.8902,9.2287,9.348,9.5211,9.8404,9.8788,9.9442,10.1096,10.1096,10.1019,10.1019,10.0096,9.9481,9.9481,9.8673,9.7904,9.725,9.7211,9.6903,9.6326,9.6288,9.6288,9.6288,9.6288,9.6288,9.6288,9.6288,9.6288,9.6288,9.6288,9.6288,9.6288,9.6288,9.6288,9.6288,9.6288,9.6172,9.5903,9.5249,9.4864,9.4711,9.4903,9.4441,9.3826,9.4711,9.3864,9.2479,9.2479,9.1902,9.121,9.121,9.121,9.121,9.121,9.1364,9.1518,9.1518,9.1633,9.1787,9.1787,9.1787,9.1979,9.2633,9.2787,9.3249,9.4749,9.3749,9.3056,9.3864,9.2749,9.2018,9.271,9.221,9.2056,9.271,9.2172,9.1787,9.1787,9.1979,9.2018,9.1787,9.1441,9.121,9.121,9.11,9.1064,9.1064,9.0991,9.0973,9.0973,9.0973,9.0934,9.0896,9.0819,9.0779,6.4589,6.5205,6.6205,6.7975,6.9667,7.1349,7.311,7.532,7.6812,7.5992,7.5774,7.5735,7.5735,7.7712,8.0515,8.4225,8.694,8.9787,9.3133,9.4364,9.5865,9.8481,9.8788,9.9442,10.1096,10.0596,10.0173,10.0173,9.8634,9.7673,9.7673,9.6903,9.6442,9.6403,9.6403,9.6365,9.6288,9.6288,9.6288,9.6288,9.6288,9.6288,9.6288,9.6288,9.6288,9.6288,9.6288,9.6288,9.6288,9.6288,9.6288,9.6288,9.6288,9.5826,9.5095,9.5018,9.448,9.3903,9.4711,9.4441,9.3826,9.4711,9.3864,9.2479,9.2479,9.1902,9.121,9.121,9.121,9.121,9.121,9.1787,9.2402,9.2402,9.2979,9.3518,9.3518,9.3518,9.3518,9.3595,9.3595,9.3903,9.4826,9.421,9.3903,9.4788,9.4095,9.3518,9.3595,9.3557,9.3518,9.3595,9.3557,9.3518,9.3518,9.4249,9.4364,9.3557,9.2056,9.121,9.121,9.1192,9.1192,9.1192,9.1192,9.1192,9.1192,9.1192,9.11,9.0971,9.0971,9.0953,6.5326,6.5365,6.575,6.7986,6.9785,7.175,7.4524,7.8052,8.0602,8.0355,8.1209,8.1331,7.9067,8.0227,8.2593,8.5918,8.8594,9.1248,9.4095,9.5249,9.6365,9.7827,9.8481,9.925,10.0404,10.0289,10.0096,10.0096,9.8481,9.7519,9.7519,9.6749,9.6288,9.6288,9.6288,9.6288,9.6288,9.6288,9.6288,9.6288,9.6288,9.6288,9.6288,9.6288,9.6288,9.6288,9.6288,9.6288,9.6288,9.6288,9.6288,9.6288,9.6288,9.6095,9.5672,9.4595,9.398,9.3672,9.348,9.321,9.3095,9.3903,9.3403,9.2479,9.2479,9.1902,9.1325,9.1864,9.2018,9.1864,9.1325,9.1864,9.2479,9.2479,9.3095,9.371,9.371,9.371,9.3864,9.4403,9.4518,9.4788,9.5672,9.5095,9.4595,9.4941,9.4249,9.371,9.371,9.371,9.371,9.371,9.371,9.371,9.371,9.398,9.4057,9.371,9.3095,9.2749,9.2749,9.2749,9.2749,9.2749,9.2749,9.2749,9.2749,9.2249,9.2,9.1926,9.1277,9.1009,6.5943,6.5518,6.544,6.7722,6.954,7.1783,7.5446,7.9861,8.3196,8.3275,8.4563,8.466,8.158,8.2303,8.4382,8.7369,8.9744,9.2207,9.5018,9.5903,9.6596,9.7403,9.8019,9.8827,9.9981,9.9596,9.9365,9.9673,9.8096,9.7134,9.7134,9.6596,9.6288,9.6288,9.6288,9.6288,9.6288,9.6288,9.6288,9.6288,9.6288,9.6288,9.6288,9.6288,9.6288,9.6288,9.6288,9.6288,9.6288,9.6288,9.6288,9.6288,9.6288,9.6134,9.5749,9.4557,9.3941,9.3672,9.3364,9.3287,9.3441,9.4249,9.3941,9.3249,9.2941,9.2441,9.2095,9.271,9.3095,9.321,9.2903,9.3056,9.3287,9.3287,9.3903,9.4518,9.4518,9.4518,9.4711,9.5288,9.5403,9.5595,9.6211,9.5826,9.5403,9.5403,9.4903,9.4518,9.4518,9.4518,9.4518,9.4518,9.4518,9.4518,9.4518,9.4518,9.4518,9.4518,9.4518,9.4249,9.371,9.371,9.371,9.371,9.371,9.371,9.371,9.2903,9.2479,9.2479,9.1523,9.1064,6.6314,6.5732,6.5537,6.7215,6.8979,7.1404,7.5774,8.061,8.427,8.4483,8.5171,8.5212,8.3307,8.4343,8.6159,8.8428,9.023,9.2469,9.5845,9.6288,9.6596,9.7403,9.7519,9.8173,9.9904,9.8519,9.7865,9.8711,9.725,9.6288,9.6288,9.6288,9.6288,9.6288,9.6288,9.6288,9.6288,9.6288,9.6288,9.6288,9.6288,9.6288,9.6288,9.6288,9.6288,9.6288,9.6288,9.6288,9.6288,9.6288,9.6288,9.6288,9.6288,9.5788,9.5018,9.498,9.4441,9.3826,9.4672,9.498,9.5134,9.6019,9.5711,9.4826,9.398,9.371,9.371,9.371,9.4326,9.5211,9.6095,9.5672,9.5018,9.5018,9.5672,9.6326,9.6326,9.6326,9.6326,9.6326,9.6326,9.6326,9.6326,9.6326,9.6326,9.6326,9.6326,9.6326,9.6326,9.6326,9.6326,9.6288,9.6288,9.6288,9.6288,9.6288,9.6288,9.6288,9.6288,9.5518,9.3787,9.371,9.371,9.371,9.371,9.371,9.371,9.2903,9.2518,9.2479,9.1633,9.121,6.6432,6.6704,6.7567,6.9908,7.221,7.5072,7.9494,8.3506,8.7546,9.1933,9.1565,8.9684,8.7199,8.7602,8.8445,8.885,9.0829,9.3208,9.5922,9.6288,9.6403,9.6634,9.7173,9.7942,9.9058,9.8173,9.7865,9.8711,9.725,9.6288,9.6288,9.6288,9.6288,9.6288,9.6288,9.6288,9.6288,9.6288,9.6288,9.6288,9.6288,9.6288,9.6288,9.6288,9.6288,9.6288,9.6288,9.6288,9.6288,9.6288,9.6288,9.6288,9.6288,9.6134,9.5826,9.5211,9.4826,9.4557,9.421,9.448,9.5018,9.5288,9.5211,9.4941,9.4672,9.4172,9.3941,9.5172,9.5711,9.6249,9.7673,9.7865,9.7519,9.6903,9.7403,9.8057,9.8057,9.8057,9.8057,9.8057,9.8057,9.8057,9.8057,9.8057,9.8057,9.8057,9.8057,9.7827,9.7211,9.7134,9.6942,9.6365,9.6288,9.6288,9.6288,9.6288,9.6288,9.6288,9.6288,9.6057,9.5557,9.5518,9.5518,9.5518,9.5518,9.5518,9.5518,9.4672,9.4249,9.4249,9.3364,9.2941,6.6454,6.7273,6.8715,7.1999,7.5273,7.926,8.5341,8.7804,9.0238,9.536,9.4567,9.2227,8.9922,9.0119,9.0519,9.0159,9.1948,9.4064,9.6071,9.6343,9.6325,9.6288,9.6749,9.7365,9.8211,9.7519,9.7365,9.8211,9.7057,9.6288,9.6288,9.6288,9.6288,9.6288,9.6288,9.6288,9.6288,9.6288,9.6288,9.6288,9.6288,9.6288,9.6288,9.6288,9.6288,9.6288,9.6288,9.6288,9.6288,9.6288,9.6288,9.6288,9.6288,9.6288,9.6249,9.5711,9.5518,9.5441,9.4903,9.5288,9.598,9.598,9.598,9.5942,9.5595,9.5134,9.5018,9.6403,9.7019,9.7673,9.9365,9.9788,9.9481,9.8288,9.8404,9.8788,9.8788,9.8788,9.8788,9.8788,9.8788,9.8788,9.8788,9.8788,9.8788,9.8788,9.8788,9.8596,9.8096,9.7711,9.7326,9.6826,9.648,9.6288,9.6288,9.6288,9.6288,9.6288,9.6288,9.6288,9.6288,9.6288,9.6288,9.6288,9.6288,9.6288,9.6288,9.5441,9.498,9.498,9.4095,9.371,6.6327,6.7537,6.9372,7.3666,7.8233,8.3816,9.1858,9.251,9.2385,9.5836,9.5239,9.3617,9.1894,9.2256,9.2641,9.2254,9.3542,9.5008,9.6249,9.6429,9.6376,9.6306,9.6288,9.6634,9.7403,9.6788,9.6634,9.7442,9.6749,9.6288,9.6288,9.6288,9.6288,9.6288,9.6288,9.6288,9.6288,9.6288,9.6288,9.6288,9.6288,9.6288,9.6288,9.6288,9.6288,9.6288,9.6288,9.6288,9.6288,9.6288,9.6288,9.6288,9.6288,9.6288,9.6288,9.6288,9.6288,9.6288,9.6288,9.6788,9.7403,9.7403,9.7403,9.725,9.6519,9.6288,9.648,9.7288,9.8134,9.9173,10.0789,10.1212,10.0904,9.9288,9.8981,9.9019,9.9019,9.9019,9.9019,9.9019,9.9019,9.9019,9.9019,9.9019,9.9019,9.9019,9.9019,9.8981,9.8942,9.8211,9.7711,9.7634,9.698,9.6519,9.6442,9.6403,9.6365,9.6288,9.6288,9.6288,9.6288,9.6288,9.6288,9.6288,9.6288,9.6288,9.6288,9.548,9.5095,9.5095,9.4287,9.3941,6.6327,6.8435,7.1167,7.5462,8.1825,8.8032,9.1897,9.3025,9.404,9.6855,9.7124,9.6535,9.5473,9.5939,9.6181,9.5252,9.5864,9.6501,9.656,9.6503,9.6446,9.6306,9.6288,9.6634,9.7403,9.6788,9.6634,9.7442,9.6749,9.6288,9.6288,9.6288,9.6288,9.6288,9.6288,9.6288,9.6288,9.6288,9.6288,9.6288,9.6288,9.6288,9.6288,9.6288,9.6288,9.6288,9.6288,9.6288,9.6288,9.6288,9.6288,9.6288,9.6288,9.6288,9.6288,9.6288,9.6288,9.6288,9.6288,9.6403,9.6557,9.6557,9.6557,9.6519,9.6365,9.6288,9.648,9.7288,9.8134,9.9019,10.0096,10.0789,10.1019,10.0096,10.0289,10.0789,10.0789,10.0789,10.0789,10.0789,10.0789,10.0789,10.0789,10.0789,10.0789,10.0789,10.0789,10.0519,9.9904,9.9635,9.9288,9.8596,9.8365,9.798,9.7288,9.725,9.698,9.6326,9.6288,9.6288,9.6288,9.6288,9.6288,9.6288,9.6288,9.6288,9.6288,9.6095,9.6019,9.6019,9.5826,9.5749,6.6522,6.9645,7.3666,8.0849,8.6314,9.0492,9.2639,9.381,9.4825,9.6152,9.6777,9.6933,9.6464,9.706,9.7288,9.6245,9.6754,9.7115,9.6784,9.6682,9.659,9.6358,9.6361,9.6497,9.6903,9.6557,9.648,9.6903,9.6557,9.6288,9.6288,9.6288,9.6288,9.6288,9.6288,9.6288,9.6288,9.6288,9.6288,9.6288,9.6288,9.6288,9.6288,9.6288,9.6288,9.6288,9.6288,9.6288,9.6288,9.5865,9.5903,9.6249,9.5826,9.5942,9.6288,9.6288,9.6288,9.6288,9.6288,9.6288,9.6288,9.6288,9.6288,9.6288,9.6288,9.6288,9.648,9.7288,9.7827,9.8481,9.975,10.0096,10.0096,10.0096,10.0712,10.1212,10.0789,10.1019,10.1289,10.1289,10.1289,10.1212,10.0789,10.0404,10.0212,10.0712,10.0712,10.0712,10.0712,10.0289,9.9904,9.9481,9.9058,9.8634,9.8173,9.8134,9.7942,9.7519,9.7096,9.6865,9.6865,9.6519,9.6288,9.6288,9.6288,9.6288,9.6288,9.6288,9.6288,9.6288,9.6288,9.6288,6.6522,7.1089,7.6672,8.6119,8.9789,9.1467,9.3029,9.4044,9.4708,9.4825,9.5567,9.6191,9.6191,9.6839,9.7124,9.6374,9.6894,9.7321,9.6998,9.6902,9.674,9.6476,9.6408,9.6376,9.6288,9.6288,9.6288,9.6288,9.6288,9.6288,9.6288,9.6288,9.6288,9.6288,9.6288,9.6288,9.6288,9.6288,9.6288,9.6288,9.6134,9.6095,9.6057,9.5903,9.6019,9.6288,9.6288,9.6288,9.6249,9.5518,9.5634,9.6249,9.5518,9.5672,9.6288,9.6288,9.6288,9.6288,9.6288,9.6288,9.6288,9.6288,9.6288,9.6288,9.6288,9.6288,9.6442,9.7096,9.7403,9.7827,9.9288,9.9211,9.8942,9.9519,10.0404,10.0904,10.0212,10.0596,10.1096,10.1289,10.1212,10.0789,9.9981,9.9288,9.9096,9.9981,10.0096,10.0404,10.1212,10.0712,10.0289,10.0289,9.9673,9.9173,9.9019,9.9019,9.8942,9.8788,9.798,9.7519,9.7519,9.6749,9.6288,9.6288,9.6288,9.6288,9.6288,9.6288,9.6288,9.6288,9.6288,9.6288,6.578,7.2768,8.0263,8.6119,8.8891,9.0413,9.1428,9.2248,9.3068,9.381,9.4669,9.5254,9.5254,9.5992,9.6535,9.6375,9.7036,9.7513,9.7263,9.7139,9.6953,9.6613,9.6519,9.6446,9.6306,9.6288,9.6288,9.6288,9.6288,9.6288,9.6288,9.6288,9.6288,9.6288,9.6288,9.6288,9.6288,9.6288,9.6288,9.6288,9.5518,9.5172,9.5134,9.4403,9.4864,9.6288,9.6288,9.6288,9.6288,9.6172,9.6211,9.6288,9.6172,9.6211,9.6288,9.6288,9.6288,9.6288,9.6288,9.6288,9.6288,9.6288,9.6288,9.6288,9.6288,9.6288,9.6326,9.6442,9.698,9.7557,9.7788,9.8327,9.8634,9.8019,9.9058,10.0212,10.0096,10.0173,10.0481,10.1212,10.0712,9.9981,9.9096,9.8865,9.9096,9.9981,10.0096,10.0404,10.1212,10.1212,10.1096,10.1096,10.1019,10.0712,9.9981,9.9904,9.9596,9.8865,9.798,9.7519,9.7519,9.6749,9.6288,9.6288,9.6288,9.6288,9.6288,9.6288,9.6288,9.6288,9.6288,9.6288,6.7735,7.4954,8.1552,8.6236,8.8344,8.9633,9.0999,9.1585,9.2053,9.2912,9.338,9.3927,9.4903,9.541,9.5684,9.5684,9.5968,9.6318,9.6642,9.6607,9.6582,9.6759,9.6696,9.6583,9.6429,9.6411,9.6394,9.6379,9.6376,9.6394,9.6379,9.6376,9.6376,9.6379,9.6379,9.6343,9.6288,9.6288,9.6057,9.5557,9.5172,9.4749,9.4287,9.4364,9.4826,9.5557,9.5557,9.5865,9.6249,9.5788,9.5865,9.6249,9.5749,9.5865,9.6288,9.6288,9.6288,9.6288,9.6288,9.6288,9.6288,9.6288,9.6288,9.6288,9.6288,9.6288,9.6288,9.6288,9.6557,9.6942,9.7365,9.7442,9.7403,9.748,9.8096,9.8788,9.925,10.0096,10.0904,10.1212,10.0712,9.9981,9.9596,9.9096,9.9096,9.9981,10.0096,10.0404,10.1212,10.1289,10.1289,10.1289,10.1289,10.1212,10.0789,10.0789,10.0596,10.0212,9.9404,9.8942,9.8942,9.8134,9.7711,9.7711,9.6788,9.6288,9.6288,9.6288,9.6288,9.6288,9.6288,9.6288,6.9218,7.5266,8.0381,8.4714,8.6588,8.7837,8.9594,9.0335,9.0882,9.1702,9.2053,9.26,9.3888,9.4473,9.4786,9.4786,9.497,9.5295,9.5839,9.6051,9.6278,9.6644,9.681,9.6734,9.6351,9.629,9.6149,9.5858,9.5836,9.5891,9.5803,9.5836,9.5891,9.5803,9.5808,9.576,9.5634,9.5634,9.5326,9.4672,9.4441,9.4134,9.371,9.4172,9.4595,9.5018,9.5211,9.5711,9.6249,9.5595,9.5711,9.6249,9.5557,9.5711,9.6288,9.6288,9.6288,9.6288,9.6288,9.6288,9.6288,9.6288,9.6288,9.6288,9.6288,9.6288,9.6288,9.6288,9.6442,9.6749,9.7326,9.7211,9.7096,9.7673,9.8019,9.8327,9.8981,10.0289,10.1212,10.1019,10.0481,9.9981,9.9788,9.9211,9.9096,9.9981,10.0096,10.0404,10.1212,10.1289,10.1289,10.1289,10.1289,10.1289,10.1289,10.1289,10.1289,10.1289,10.0481,10.0096,10.0096,9.925,9.8788,9.8788,9.7557,9.6942,9.6942,9.6942,9.6942,9.6942,9.6942,9.6942,6.875,7.2143,7.5891,8.0263,8.2567,8.4245,8.5963,8.7642,8.9086,8.9945,9.0804,9.1389,9.1467,9.2795,9.3888,9.3888,9.4552,9.5098,9.5133,9.5793,9.6239,9.6078,9.6737,9.6799,9.5856,9.5699,9.5246,9.4293,9.4219,9.4203,9.424,9.4219,9.4203,9.424,9.418,9.4056,9.3826,9.3826,9.3787,9.3749,9.2979,9.3018,9.3672,9.2941,9.348,9.5057,9.5865,9.6249,9.6288,9.6249,9.6249,9.6288,9.6249,9.6249,9.6288,9.6288,9.6288,9.6288,9.6288,9.6288,9.6288,9.6288,9.6288,9.6288,9.6288,9.6288,9.6288,9.6288,9.6865,9.7442,9.748,9.8096,9.8673,9.8711,9.9365,9.9981,9.9981,10.0712,10.1096,10.0289,10.0096,9.9827,9.9019,9.8827,9.9096,9.9981,10.0096,10.0404,10.1212,10.1289,10.1289,10.1289,10.1289,10.1289,10.1289,10.1289,10.1289,10.1289,10.0481,10.0096,10.0096,9.925,9.8788,9.8788,9.8711,9.8673,9.8673,9.8673,9.8673,9.8673,9.8673,9.8673,6.4737,6.8205,7.187,7.4564,7.7765,8.081,8.3152,8.5416,8.7603,8.9594,9.0257,9.0648,9.1194,9.2209,9.2951,9.2951,9.3224,9.381,9.4942,9.5347,9.5889,9.6837,9.6702,9.6317,9.5953,9.5334,9.4729,9.4185,9.4195,9.4466,9.4959,9.4561,9.4536,9.5066,9.4505,9.4111,9.3885,9.3834,9.353,9.2991,9.3169,9.3133,9.2941,9.3749,9.4441,9.5057,9.5903,9.6288,9.6288,9.6288,9.6288,9.6288,9.6288,9.6288,9.6288,9.6288,9.6288,9.6288,9.6288,9.6288,9.6288,9.6288,9.6288,9.6288,9.6288,9.6288,9.6288,9.6288,9.6865,9.7519,9.7519,9.8134,9.8942,9.9481,9.9865,10.0212,10.0789,10.1096,10.1212,10.0904,10.0904,10.0789,10.0519,10.0404,10.0519,10.0789,10.0904,10.1019,10.1289,10.1289,10.1289,10.1289,10.1289,10.1289,10.1289,10.1289,10.1289,10.1289,10.1019,10.0904,10.1,10.0692,10.0613,10.0591,10.0591,9.9997,9.8788,9.8788,9.8788,9.8788,9.8788,9.8788,6.1815,6.4657,6.7732,6.9762,7.2846,7.6125,7.9014,8.1903,8.4675,8.729,8.8501,8.9477,9.0648,9.1546,9.217,9.2443,9.2756,9.3341,9.4512,9.5165,9.5924,9.7015,9.6842,9.6382,9.5743,9.5093,9.4356,9.349,9.3736,9.4163,9.4679,9.4574,9.4571,9.4851,9.398,9.3412,9.3252,9.3145,9.2949,9.263,9.3071,9.3287,9.3364,9.448,9.5172,9.548,9.6057,9.6288,9.6288,9.6288,9.6288,9.6288,9.6288,9.6288,9.6288,9.6288,9.6288,9.6288,9.6288,9.6288,9.6288,9.6288,9.6288,9.6365,9.6634,9.6711,9.6749,9.7057,9.7711,9.8365,9.8365,9.8981,9.9788,10.0404,10.0481,10.0596,10.1212,10.1289,10.1289,10.1289,10.1289,10.1289,10.1289,10.1289,10.1289,10.1289,10.1289,10.1289,10.1289,10.1289,10.1289,10.1289,10.1289,10.1289,10.1289,10.1289,10.1289,10.1289,10.1289,10.1404,10.1518,10.1493,10.1581,10.1683,10.1687,10.1184,9.9912,9.98,9.9747,9.9747,9.9747,9.9747,0.0,0.0,0.0,6.5936,6.7888,7.0113,7.351,7.7023,8.0302,8.2918,8.5495,8.7876,8.9672,9.0687,9.1546,9.2365,9.3224,9.381,9.3849,9.5332,9.6425,9.6425,9.7167,9.7011,9.5293,9.5015,9.4084,9.2131,9.2775,9.3267,9.3286,9.4102,9.4231,9.3441,9.2443,9.1861,9.1823,9.1604,9.1915,9.2711,9.2623,9.3421,9.4998,9.5037,9.5498,9.6288,9.6288,9.6288,9.6288,9.6288,9.6288,9.6288,9.6288,9.6288,9.6288,9.6288,9.6288,9.6288,9.6288,9.6288,9.6288,9.6288,9.6326,9.648,9.725,9.7519,9.7711,9.8557,9.9442,10.0096,10.0096,10.0712,10.1289,10.1289,10.1289,10.1289,10.1289,10.1289,10.1289,10.1289,10.1289,10.1289,10.1289,10.1289,10.1289,10.1289,10.1289,10.1289,10.1289,10.1289,10.1289,10.1289,10.1404,10.1404,10.1289,10.1289,10.1289,10.1289,10.1289,10.1385,10.1498,10.1606,10.1703,10.1792,10.2009,10.2105,10.2105,10.1789,10.1603,10.1603,10.1603,10.1603,5.7645,0.0,0.0,0.0,0.0,0.0,6.8435,7.3041,7.7804,8.1044,8.3738,8.6431,8.9437,9.0179,9.0843,9.2287,9.3224,9.4005,9.4669,9.5684,9.6621,9.7284,9.7011,9.6582,9.6074,9.5377,9.4668,9.3891,9.4123,9.4511,9.5058,9.4916,9.4435,9.357,9.2585,9.2035,9.2004,9.1808,9.2134,9.2929,9.3361,9.415,9.523,9.5808,9.6232,9.6446,9.6394,9.6358,9.6358,9.6325,9.6288,9.6288,9.6288,9.6288,9.6288,9.6288,9.6288,9.6288,9.6288,9.6288,9.6288,9.6288,9.6711,9.7211,9.7442,9.7942,9.8481,9.8711,9.9442,10.0212,10.0789,10.1096,10.1289,10.1289,10.1289,10.1289,10.1289,10.1289,10.1289,10.1289,10.1289,10.1289,10.1289,10.1289,10.1289,10.1289,10.1289,10.1308,10.1385,10.202,10.2308,10.2382,10.3018,10.3076,10.2516,10.2516,10.2208,10.1591,10.1496,10.1603,10.1796,10.1879,10.1995,10.2198,10.2289,10.2293,10.2293,10.2111,10.2009,10.2009,10.2009,10.2009,0.0,0.0,0.0,0.0,0.0,0.0,6.4843,6.9333,7.4017,7.714,8.0107,8.3074,8.6197,8.7056,8.772,8.9086,9.0648,9.2482,9.4786,9.584,9.6738,9.7597,9.7245,9.6816,9.6425,9.5866,9.531,9.4712,9.5066,9.562,9.6481,9.5524,9.4758,9.4234,9.2945,9.2235,9.2223,9.2064,9.2537,9.3652,9.4033,9.479,9.6029,9.6493,9.6682,9.6661,9.6536,9.6492,9.6446,9.6343,9.6288,9.6288,9.6288,9.6288,9.6288,9.6288,9.6288,9.6288,9.6288,9.6288,9.6288,9.6288,9.6826,9.7557,9.7942,9.8634,9.9404,9.975,10.0212,10.0712,10.1212,10.1289,10.1289,10.1289,10.1289,10.1289,10.1424,10.1385,10.1404,10.1289,10.1289,10.1289,10.1289,10.1597,10.1789,10.1789,10.2212,10.2405,10.2501,10.3015,10.3392,10.3494,10.3994,10.4211,10.3708,10.3592,10.3398,10.2895,10.2895,10.2891,10.3096,10.2898,10.2788,10.3013,10.271,10.2592,10.2592,10.2304,10.2211,10.2211,10.2211,10.2211,5.6595,0.0,0.0,0.0,5.8911,0.0,6.2071,6.5741,6.9567,7.2065,7.5305,7.8507,8.1083,8.2176,8.2918,8.3816,8.6158,8.9398,9.3888,9.5527,9.6582,9.744,9.7636,9.7401,9.6621,9.6466,9.6062,9.5179,9.5837,9.6631,9.748,9.608,9.5254,9.5254,9.3654,9.2776,9.269,9.2555,9.3258,9.4773,9.463,9.5433,9.7027,9.7027,9.6998,9.6915,9.6729,9.6607,9.6525,9.6358,9.6306,9.6288,9.6288,9.6288,9.6288,9.6288,9.6288,9.6288,9.6288,9.6288,9.6288,9.6288,9.6903,9.7788,9.8557,9.9481,10.0404,10.1096,10.1289,10.1289,10.1289,10.1289,10.1289,10.1289,10.1289,10.1308,10.1499,10.1498,10.1498,10.1404,10.1308,10.1308,10.1308,10.2001,10.2501,10.252,10.3213,10.3791,10.3886,10.4211,10.4482,10.4587,10.4778,10.4887,10.481,10.481,10.4693,10.4576,10.4576,10.4689,10.4793,10.4187,10.3917,10.3882,10.3183,10.2789,10.2789,10.2585,10.2391,10.2391,10.2391,10.2391,5.6599,5.6592,5.6658,5.6774,0.0,0.0,5.8753,6.2189,6.5822,6.7693,7.0816,7.4017,7.6594,7.7179,7.757,7.8468,8.081,8.448,9.0179,9.3497,9.5684,9.6542,9.7284,9.7636,9.744,9.7377,9.726,9.6999,9.7142,9.7324,9.7583,9.6683,9.6152,9.6152,9.5137,9.4579,9.4554,9.4424,9.4874,9.5798,9.5716,9.6206,9.7178,9.7178,9.7139,9.7143,9.6928,9.6796,9.6735,9.6542,9.6394,9.6288,9.6288,9.6288,9.6288,9.6288,9.6288,9.6288,9.6288,9.6288,9.6288,9.6288,9.7326,9.8596,9.875,9.9865,10.1096,10.1289,10.1289,10.1289,10.1289,10.1289,10.1289,10.1289,10.1289,10.1308,10.1499,10.1581,10.1716,10.1577,10.1514,10.1518,10.1514,10.1613,10.171,10.1784,10.2496,10.3202,10.3282,10.4581,10.5616,10.5796,10.651,10.6709,10.5903,10.5903,10.5592,10.4891,10.4813,10.4902,10.5023,10.5001,10.459,10.4104,10.3201,10.2789,10.2789,10.2685,10.2704,10.2704,10.2704,10.2704,5.7889,5.7886,5.7763,5.7326,0.0,0.0,0.0,6.051,6.336,6.4648,6.7303,6.9918,7.1636,7.23,7.2768,7.3197,7.5774,7.9131,8.3035,8.8774,9.3497,9.6074,9.6777,9.7206,9.7675,9.7667,9.765,9.7583,9.7583,9.7593,9.7659,9.6847,9.6386,9.6386,9.5567,9.5094,9.5083,9.5022,9.5432,9.6235,9.6206,9.6655,9.7435,9.7435,9.7447,9.738,9.7188,9.7037,9.6986,9.6811,9.6701,9.6637,9.6459,9.6394,9.6394,9.6394,9.6394,9.6394,9.6394,9.6394,9.6471,9.6895,9.7896,9.9014,9.9382,10.0403,10.1404,10.1384,10.1402,10.1402,10.1402,10.1402,10.1402,10.1402,10.1402,10.1496,10.1688,10.1812,10.1909,10.199,10.1897,10.1677,10.171,10.2002,10.2306,10.2312,10.3522,10.4393,10.4583,10.5808,10.6787,10.6887,10.741,10.7611,10.7104,10.7104,10.6916,10.6488,10.641,10.6501,10.6494,10.62,10.5597,10.4802,10.4307,10.3882,10.3413,10.3413,10.3218,10.2789,10.2789,10.2789,0.0,0.0,0.0,0.0,0.0,5.8611,0.0,0.0,0.0,6.1837,6.375,6.5546,6.6249,6.7068,6.7654,6.7654,7.066,7.3666,7.5618,8.245,8.9125,9.4083,9.5098,9.584,9.6855,9.7089,9.7206,9.7206,9.7206,9.7284,9.744,9.6933,9.666,9.666,9.5957,9.5606,9.5606,9.5606,9.5957,9.666,9.666,9.7011,9.7714,9.7714,9.7655,9.7606,9.7422,9.731,9.7225,9.708,9.7037,9.7005,9.6725,9.6599,9.6599,9.6599,9.6599,9.6599,9.6599,9.6715,9.6947,9.7681,9.8576,9.9497,10.0298,10.1013,10.1588,10.1599,10.1705,10.1699,10.1699,10.1699,10.1699,10.1699,10.1699,10.1687,10.1899,10.1983,10.2124,10.2284,10.2198,10.1983,10.1819,10.2423,10.2779,10.2896,10.4389,10.5493,10.5599,10.6515,10.7192,10.7196,10.7509,10.7708,10.7708,10.7903,10.802,10.802,10.802,10.802,10.802,10.72,10.638,10.5717,10.5287,10.4819,10.4116,10.3882,10.3491,10.2789,10.2789,10.2789,0.0,0.0,0.0,0.0,5.8505,0.0,0.0,0.0,5.8285,5.8363,0.0,6.0002,6.0117,0.0,0.0,6.1408,6.4921,6.8552,7.1089,7.4876,8.0146,8.7525,9.0452,9.2482,9.4083,9.4942,9.541,9.541,9.541,9.5723,9.6503,9.7206,9.7558,9.7558,9.744,9.7401,9.7401,9.7401,9.744,9.7558,9.7558,9.7597,9.7714,9.7714,9.7663,9.7593,9.7493,9.7447,9.7356,9.7234,9.7188,9.7178,9.7005,9.6936,9.6936,9.6936,9.6936,9.6936,9.6936,9.7452,9.8124,9.8202,9.915,10.0411,10.1297,10.1584,10.1703,10.1796,10.1891,10.1995,10.1995,10.1995,10.1995,10.1995,10.1995,10.2097,10.2089,10.2304,10.2387,10.2516,10.2495,10.242,10.2276,10.2177,10.2203,10.2389,10.3216,10.391,10.4001,10.4884,10.5487,10.5587,10.6285,10.681,10.681,10.759,10.802,10.802,10.802,10.802,10.802,10.72,10.6693,10.6614,10.5014,10.4194,10.4116,10.3296,10.2906,10.2789,10.2789,10.2789,0.0,0.0,0.0,0.0,0.0,0.0,5.76,0.0,5.9152,0.0,0.0,0.0,0.0,0.0,0.0,0.0,6.3516,6.6053,6.8161,7.0543,7.4954,8.2762,8.5963,8.8813,9.2053,9.3107,9.3576,9.3576,9.3576,9.42,9.5567,9.6933,9.7714,9.7714,9.7714,9.7714,9.7714,9.7714,9.7714,9.7714,9.7714,9.7714,9.7714,9.7714,9.7671,9.7659,9.7641,9.7588,9.7572,9.7511,9.7499,9.7499,9.7428,9.7294,9.71,9.71,9.71,9.71,9.71,9.7693,9.8578,9.9557,10.0495,10.1381,10.1902,10.2004,10.1913,10.1983,10.2195,10.2311,10.2311,10.2311,10.2311,10.2311,10.2311,10.2303,10.2381,10.2507,10.2599,10.2607,10.2599,10.2585,10.2499,10.2411,10.2294,10.2504,10.3294,10.3908,10.4009,10.4801,10.5285,10.5387,10.622,10.6693,10.6693,10.7512,10.802,10.802,10.802,10.802,10.802,10.759,10.7512,10.7512,10.6185,10.5404,10.4897,10.3999,10.3608,10.3491,10.2984,10.2789,6.6797,0.0,0.0,0.0,0.0,0.0,0.0,0.0,0.0,0.0,0.0,0.0,0.0,0.0,0.0,0.0,0.0,6.465,6.5624,6.7068,7.0621,7.7687,8.163,8.5104,8.8501,8.9789,9.0492,9.0726,9.0765,9.1702,9.3927,9.5918,9.7089,9.7323,9.7597,9.7714,9.7714,9.7714,9.7714,9.7714,9.7714,9.7714,9.7714,9.7714,9.7714,9.7714,9.7714,9.7714,9.7714,9.7714,9.7714,9.7714,9.7714,9.7533,9.7356,9.7356,9.7356,9.7356,9.7356,9.8058,9.9257,10.0911,10.1805,10.2198,10.2306,10.2311,10.221,10.2313,10.24,10.2499,10.2499,10.2499,10.2499,10.2499,10.2499,10.2515,10.2614,10.2608,10.271,10.2688,10.2716,10.271,10.2694,10.2595,10.2592,10.2601,10.33,10.3687,10.3687,10.4311,10.4702,10.4702,10.5482,10.599,10.599,10.681,10.7317,10.7317,10.7317,10.7317,10.7317,10.7317,10.7317,10.7317,10.638,10.5717,10.5014,10.4194,10.3882,10.4116,10.3491,10.3218,0.0,0.0,0.0,6.4648,0.0,0.0,0.0,0.0,5.9131,0.0,0.0,0.0,0.0,0.0,0.0,0.0,0.0,0.0,0.0,6.3906,6.6407,7.1675,7.7531,8.1513,8.2489,8.4089,8.5416,8.6236,8.6314,8.7798,9.1233,9.381,9.5567,9.6425,9.7245,9.7714,9.7714,9.7714,9.7714,9.7714,9.7714,9.7714,9.7714,9.7714,9.7714,9.7714,9.7714,9.7714,9.7714,9.7714,9.7714,9.7714,9.7714,9.7671,9.7671,9.7671,9.7671,9.7671,9.7671,9.8803,10.0512,10.2098,10.2614,10.2499,10.2495,10.2513,10.2515,10.2599,10.2683,10.2781,10.2781,10.2781,10.2781,10.2781,10.2781,10.2781,10.2785,10.2785,10.2785,10.2785,10.2785,10.2785,10.2785,10.2683,10.2601,10.2782,10.2811,10.2789,10.2789,10.2906,10.2906,10.2906,10.3687,10.4194,10.4194,10.5014,10.5482,10.5482,10.5482,10.5482,10.5482,10.5482,10.5482,10.5482,10.4584,10.4194,10.4116,10.3296,10.3296,10.4116,10.4116,10.4116,0.0,0.0,6.9844,6.8125,0.0,0.0,0.0,0.0,0.0,0.0,0.0,0.0,0.0,0.0,0.0,0.0,0.0,0.0,0.0,0.0,6.4297,6.6639,7.2221,7.6672,7.8663,8.042,8.1552,8.1825,8.2411,8.4245,8.7681,9.135,9.4044,9.5488,9.6933,9.7714,9.7714,9.7714,9.7714,9.7714,9.7714,9.7714,9.7714,9.7714,9.7714,9.7714,9.7714,9.7714,9.7714,9.7714,9.7714,9.7714,9.7714,9.7714,9.7714,9.7714,9.7714,9.787,9.9002,9.9822,10.0599,10.2202,10.2698,10.2599,10.2614,10.2607,10.2614,10.271,10.2797,10.2789,10.2789,10.2789,10.2789,10.2789,10.2789,10.2789,10.2789,10.2789,10.2789,10.2789,10.2789,10.2789,10.2789,10.2807,10.2719,10.2815,10.2785,10.2789,10.2789,10.2789,10.2789,10.2789,10.3608,10.4116,10.4116,10.4897,10.5404,10.5404,10.5404,10.5404,10.5404,10.5404,10.5404,10.5404,10.4506,10.4116,10.4116,10.3804,10.4116,10.5014,10.5599,10.5482,7.4765,7.4062,0.0,7.1601,6.9961,0.0,6.6132,0.0,0.0,0.0,0.0,0.0,0.0,0.0,0.0,0.0,0.0,0.0,0.0,6.2267,0.0,0.0,0.0,0.0,7.4173,7.593,7.7218,7.7804,7.8116,8.0146,8.4519,8.8501,9.1741,9.4083,9.6464,9.7714,9.7714,9.7714,9.7714,9.7714,9.7714,9.7714,9.7714,9.7714,9.7714,9.7714,9.7714,9.7714,9.7714,9.7714,9.7714,9.7714,9.7714,9.7714,9.7714,9.7714,9.7909,9.8377,9.9783,10.0485,10.0993,10.2304,10.2704,10.2716,10.2694,10.2688,10.2683,10.2797,10.2815,10.2789,10.2789,10.2789,10.2789,10.2789,10.2789,10.2789,10.2789,10.2789,10.2789,10.2789,10.2789,10.2789,10.2789,10.2789,10.2789,10.2789,10.2789,10.2906,10.3218,10.3296,10.3413,10.3687,10.4194,10.4389,10.4116,10.4584,10.4819,10.4506,10.4506,10.4506,10.4506,10.4506,10.4506,10.4506,10.3882,10.3608,10.3608,10.3882,10.4506,10.5404,10.6302,10.6614]}]]